<?xml version="1.0" encoding="UTF-8" standalone="no" ?>
<gpx xmlns="http://www.topografix.com/GPX/1/1" xmlns:xsi="http://www.w3.org/2001/XMLSchema-instance" xsi:schemaLocation="http://www.topografix.com/GPX/1/1 http://www.topografix.com/GPX/1/1/gpx.xsd" version="1.1" creator="VisuGPX - https://www.visugpx.com">
  <metadata>
    <name>Sulens (tour et sommet)</name>
    <desc><![CDATA[                                                                ]]></desc>
  </metadata>
  <trk>
    <name><![CDATA[20190204142021-EoywD]]></name>
    <trkseg>
      <trkpt lat="45.83967" lon="6.35822">
        <ele>1296.96</ele>
        <time>2018-10-09T10:17:21Z</time>
      </trkpt>
      <trkpt lat="45.83966" lon="6.35821">
        <ele>1376.75</ele>
        <time>2018-10-09T10:17:22Z</time>
      </trkpt>
      <trkpt lat="45.83965" lon="6.3582">
        <ele>1376.75</ele>
        <time>2018-10-09T10:17:23Z</time>
      </trkpt>
      <trkpt lat="45.8396" lon="6.35818">
        <ele>1296.48</ele>
        <time>2018-10-09T10:17:25Z</time>
      </trkpt>
      <trkpt lat="45.83957" lon="6.35817">
        <ele>1296.48</ele>
        <time>2018-10-09T10:17:26Z</time>
      </trkpt>
      <trkpt lat="45.83935" lon="6.35812">
        <ele>1294.55</ele>
        <time>2018-10-09T10:17:33Z</time>
      </trkpt>
      <trkpt lat="45.83929" lon="6.3581">
        <ele>1293.59</ele>
        <time>2018-10-09T10:17:35Z</time>
      </trkpt>
      <trkpt lat="45.83907" lon="6.35809">
        <ele>1291.19</ele>
        <time>2018-10-09T10:17:43Z</time>
      </trkpt>
      <trkpt lat="45.83891" lon="6.3581">
        <ele>1288.78</ele>
        <time>2018-10-09T10:17:49Z</time>
      </trkpt>
      <trkpt lat="45.83869" lon="6.35796">
        <ele>1286.38</ele>
        <time>2018-10-09T10:17:58Z</time>
      </trkpt>
      <trkpt lat="45.8385" lon="6.35775">
        <ele>1283.5</ele>
        <time>2018-10-09T10:18:06Z</time>
      </trkpt>
      <trkpt lat="45.83831" lon="6.35756">
        <ele>1280.13</ele>
        <time>2018-10-09T10:18:14Z</time>
      </trkpt>
      <trkpt lat="45.83823" lon="6.35748">
        <ele>1278.69</ele>
        <time>2018-10-09T10:18:17Z</time>
      </trkpt>
      <trkpt lat="45.83814" lon="6.35741">
        <ele>1277.73</ele>
        <time>2018-10-09T10:18:20Z</time>
      </trkpt>
      <trkpt lat="45.83797" lon="6.35723">
        <ele>1274.85</ele>
        <time>2018-10-09T10:18:28Z</time>
      </trkpt>
      <trkpt lat="45.83777" lon="6.35718">
        <ele>1272.44</ele>
        <time>2018-10-09T10:18:36Z</time>
      </trkpt>
      <trkpt lat="45.83755" lon="6.35723">
        <ele>1270.04</ele>
        <time>2018-10-09T10:18:44Z</time>
      </trkpt>
      <trkpt lat="45.83732" lon="6.35724">
        <ele>1267.16</ele>
        <time>2018-10-09T10:18:53Z</time>
      </trkpt>
      <trkpt lat="45.83729" lon="6.35723">
        <ele>1266.67</ele>
        <time>2018-10-09T10:18:54Z</time>
      </trkpt>
      <trkpt lat="45.83724" lon="6.35719">
        <ele>1265.71</ele>
        <time>2018-10-09T10:18:56Z</time>
      </trkpt>
      <trkpt lat="45.83706" lon="6.35699">
        <ele>1263.79</ele>
        <time>2018-10-09T10:19:03Z</time>
      </trkpt>
      <trkpt lat="45.83685" lon="6.3568">
        <ele>1261.87</ele>
        <time>2018-10-09T10:19:11Z</time>
      </trkpt>
      <trkpt lat="45.83664" lon="6.3566">
        <ele>1259.94</ele>
        <time>2018-10-09T10:19:18Z</time>
      </trkpt>
      <trkpt lat="45.83647" lon="6.35638">
        <ele>1258.98</ele>
        <time>2018-10-09T10:19:24Z</time>
      </trkpt>
      <trkpt lat="45.8363" lon="6.35618">
        <ele>1258.02</ele>
        <time>2018-10-09T10:19:31Z</time>
      </trkpt>
      <trkpt lat="45.83621" lon="6.35593">
        <ele>1256.58</ele>
        <time>2018-10-09T10:19:38Z</time>
      </trkpt>
      <trkpt lat="45.83611" lon="6.35567">
        <ele>1255.14</ele>
        <time>2018-10-09T10:19:45Z</time>
      </trkpt>
      <trkpt lat="45.83601" lon="6.35541">
        <ele>1253.22</ele>
        <time>2018-10-09T10:19:52Z</time>
      </trkpt>
      <trkpt lat="45.83595" lon="6.35522">
        <ele>1250.81</ele>
        <time>2018-10-09T10:19:57Z</time>
      </trkpt>
      <trkpt lat="45.8359" lon="6.35492">
        <ele>1248.41</ele>
        <time>2018-10-09T10:20:04Z</time>
      </trkpt>
      <trkpt lat="45.83585" lon="6.35462">
        <ele>1246.97</ele>
        <time>2018-10-09T10:20:11Z</time>
      </trkpt>
      <trkpt lat="45.83574" lon="6.35435">
        <ele>1244.08</ele>
        <time>2018-10-09T10:20:18Z</time>
      </trkpt>
      <trkpt lat="45.83561" lon="6.35412">
        <ele>1242.16</ele>
        <time>2018-10-09T10:20:25Z</time>
      </trkpt>
      <trkpt lat="45.83546" lon="6.3539">
        <ele>1240.72</ele>
        <time>2018-10-09T10:20:32Z</time>
      </trkpt>
      <trkpt lat="45.83533" lon="6.35369">
        <ele>1239.28</ele>
        <time>2018-10-09T10:20:38Z</time>
      </trkpt>
      <trkpt lat="45.83518" lon="6.35346">
        <ele>1237.83</ele>
        <time>2018-10-09T10:20:45Z</time>
      </trkpt>
      <trkpt lat="45.83501" lon="6.35325">
        <ele>1236.39</ele>
        <time>2018-10-09T10:20:52Z</time>
      </trkpt>
      <trkpt lat="45.83486" lon="6.35308">
        <ele>1234.47</ele>
        <time>2018-10-09T10:20:58Z</time>
      </trkpt>
      <trkpt lat="45.83469" lon="6.3529">
        <ele>1233.03</ele>
        <time>2018-10-09T10:21:05Z</time>
      </trkpt>
      <trkpt lat="45.83471" lon="6.35292">
        <ele>1233.03</ele>
        <time>2018-10-09T10:21:07Z</time>
      </trkpt>
      <trkpt lat="45.83472" lon="6.35293">
        <ele>1233.03</ele>
        <time>2018-10-09T10:21:08Z</time>
      </trkpt>
      <trkpt lat="45.83477" lon="6.35296">
        <ele>1233.51</ele>
        <time>2018-10-09T10:21:35Z</time>
      </trkpt>
      <trkpt lat="45.83478" lon="6.35301">
        <ele>1233.51</ele>
        <time>2018-10-09T10:21:40Z</time>
      </trkpt>
      <trkpt lat="45.83478" lon="6.35303">
        <ele>1233.51</ele>
        <time>2018-10-09T10:21:41Z</time>
      </trkpt>
      <trkpt lat="45.83484" lon="6.35329">
        <ele>1232.07</ele>
        <time>2018-10-09T10:21:50Z</time>
      </trkpt>
      <trkpt lat="45.83479" lon="6.35356">
        <ele>1230.62</ele>
        <time>2018-10-09T10:21:58Z</time>
      </trkpt>
      <trkpt lat="45.83461" lon="6.35372">
        <ele>1229.18</ele>
        <time>2018-10-09T10:22:06Z</time>
      </trkpt>
      <trkpt lat="45.83443" lon="6.3539">
        <ele>1227.74</ele>
        <time>2018-10-09T10:22:13Z</time>
      </trkpt>
      <trkpt lat="45.83425" lon="6.35408">
        <ele>1226.3</ele>
        <time>2018-10-09T10:22:20Z</time>
      </trkpt>
      <trkpt lat="45.83406" lon="6.35417">
        <ele>1225.34</ele>
        <time>2018-10-09T10:22:27Z</time>
      </trkpt>
      <trkpt lat="45.83386" lon="6.35423">
        <ele>1224.86</ele>
        <time>2018-10-09T10:22:34Z</time>
      </trkpt>
      <trkpt lat="45.83367" lon="6.3544">
        <ele>1223.42</ele>
        <time>2018-10-09T10:22:42Z</time>
      </trkpt>
      <trkpt lat="45.83347" lon="6.35446">
        <ele>1223.9</ele>
        <time>2018-10-09T10:22:51Z</time>
      </trkpt>
      <trkpt lat="45.83323" lon="6.35442">
        <ele>1224.86</ele>
        <time>2018-10-09T10:23:00Z</time>
      </trkpt>
      <trkpt lat="45.833" lon="6.35437">
        <ele>1224.86</ele>
        <time>2018-10-09T10:23:08Z</time>
      </trkpt>
      <trkpt lat="45.8328" lon="6.35439">
        <ele>1224.86</ele>
        <time>2018-10-09T10:23:15Z</time>
      </trkpt>
      <trkpt lat="45.83261" lon="6.3545">
        <ele>1224.86</ele>
        <time>2018-10-09T10:23:22Z</time>
      </trkpt>
      <trkpt lat="45.83244" lon="6.35471">
        <ele>1224.38</ele>
        <time>2018-10-09T10:23:30Z</time>
      </trkpt>
      <trkpt lat="45.83231" lon="6.35498">
        <ele>1223.9</ele>
        <time>2018-10-09T10:23:37Z</time>
      </trkpt>
      <trkpt lat="45.83221" lon="6.35525">
        <ele>1223.9</ele>
        <time>2018-10-09T10:23:44Z</time>
      </trkpt>
      <trkpt lat="45.83203" lon="6.3554">
        <ele>1223.9</ele>
        <time>2018-10-09T10:23:52Z</time>
      </trkpt>
      <trkpt lat="45.83185" lon="6.35556">
        <ele>1224.38</ele>
        <time>2018-10-09T10:24:01Z</time>
      </trkpt>
      <trkpt lat="45.83169" lon="6.35574">
        <ele>1224.38</ele>
        <time>2018-10-09T10:24:08Z</time>
      </trkpt>
      <trkpt lat="45.83151" lon="6.35591">
        <ele>1224.86</ele>
        <time>2018-10-09T10:24:17Z</time>
      </trkpt>
      <trkpt lat="45.83128" lon="6.35587">
        <ele>1226.78</ele>
        <time>2018-10-09T10:24:28Z</time>
      </trkpt>
      <trkpt lat="45.83111" lon="6.35568">
        <ele>1226.78</ele>
        <time>2018-10-09T10:24:36Z</time>
      </trkpt>
      <trkpt lat="45.83093" lon="6.35551">
        <ele>1227.74</ele>
        <time>2018-10-09T10:24:45Z</time>
      </trkpt>
      <trkpt lat="45.83076" lon="6.35532">
        <ele>1229.18</ele>
        <time>2018-10-09T10:24:54Z</time>
      </trkpt>
      <trkpt lat="45.83059" lon="6.3551">
        <ele>1230.62</ele>
        <time>2018-10-09T10:25:04Z</time>
      </trkpt>
      <trkpt lat="45.83043" lon="6.35489">
        <ele>1231.59</ele>
        <time>2018-10-09T10:25:13Z</time>
      </trkpt>
      <trkpt lat="45.83042" lon="6.35457">
        <ele>1233.03</ele>
        <time>2018-10-09T10:25:23Z</time>
      </trkpt>
      <trkpt lat="45.83048" lon="6.35428">
        <ele>1234.95</ele>
        <time>2018-10-09T10:25:31Z</time>
      </trkpt>
      <trkpt lat="45.83047" lon="6.35424">
        <ele>1234.95</ele>
        <time>2018-10-09T10:25:32Z</time>
      </trkpt>
      <trkpt lat="45.83039" lon="6.3539">
        <ele>1236.39</ele>
        <time>2018-10-09T10:25:41Z</time>
      </trkpt>
      <trkpt lat="45.83023" lon="6.35369">
        <ele>1237.83</ele>
        <time>2018-10-09T10:25:50Z</time>
      </trkpt>
      <trkpt lat="45.83005" lon="6.35353">
        <ele>1237.83</ele>
        <time>2018-10-09T10:25:59Z</time>
      </trkpt>
      <trkpt lat="45.82991" lon="6.35332">
        <ele>1239.28</ele>
        <time>2018-10-09T10:26:07Z</time>
      </trkpt>
      <trkpt lat="45.82979" lon="6.35309">
        <ele>1240.72</ele>
        <time>2018-10-09T10:26:15Z</time>
      </trkpt>
      <trkpt lat="45.82964" lon="6.35288">
        <ele>1242.16</ele>
        <time>2018-10-09T10:26:23Z</time>
      </trkpt>
      <trkpt lat="45.82947" lon="6.35275">
        <ele>1242.64</ele>
        <time>2018-10-09T10:26:31Z</time>
      </trkpt>
      <trkpt lat="45.82928" lon="6.35262">
        <ele>1242.16</ele>
        <time>2018-10-09T10:26:39Z</time>
      </trkpt>
      <trkpt lat="45.82913" lon="6.35245">
        <ele>1242.16</ele>
        <time>2018-10-09T10:26:46Z</time>
      </trkpt>
      <trkpt lat="45.82899" lon="6.35221">
        <ele>1242.16</ele>
        <time>2018-10-09T10:26:53Z</time>
      </trkpt>
      <trkpt lat="45.82888" lon="6.35194">
        <ele>1241.68</ele>
        <time>2018-10-09T10:27:01Z</time>
      </trkpt>
      <trkpt lat="45.82876" lon="6.3517">
        <ele>1241.2</ele>
        <time>2018-10-09T10:27:08Z</time>
      </trkpt>
      <trkpt lat="45.82858" lon="6.35154">
        <ele>1240.72</ele>
        <time>2018-10-09T10:27:16Z</time>
      </trkpt>
      <trkpt lat="45.82839" lon="6.3516">
        <ele>1239.76</ele>
        <time>2018-10-09T10:27:23Z</time>
      </trkpt>
      <trkpt lat="45.82825" lon="6.35182">
        <ele>1237.35</ele>
        <time>2018-10-09T10:27:30Z</time>
      </trkpt>
      <trkpt lat="45.8281" lon="6.35204">
        <ele>1236.39</ele>
        <time>2018-10-09T10:27:38Z</time>
      </trkpt>
      <trkpt lat="45.82793" lon="6.35223">
        <ele>1234.47</ele>
        <time>2018-10-09T10:27:47Z</time>
      </trkpt>
      <trkpt lat="45.82776" lon="6.35241">
        <ele>1232.07</ele>
        <time>2018-10-09T10:27:56Z</time>
      </trkpt>
      <trkpt lat="45.82754" lon="6.35251">
        <ele>1229.18</ele>
        <time>2018-10-09T10:28:04Z</time>
      </trkpt>
      <trkpt lat="45.82734" lon="6.35258">
        <ele>1227.26</ele>
        <time>2018-10-09T10:28:13Z</time>
      </trkpt>
      <trkpt lat="45.82707" lon="6.35246">
        <ele>1224.86</ele>
        <time>2018-10-09T10:28:21Z</time>
      </trkpt>
      <trkpt lat="45.82684" lon="6.35255">
        <ele>1222.93</ele>
        <time>2018-10-09T10:28:29Z</time>
      </trkpt>
      <trkpt lat="45.82661" lon="6.35255">
        <ele>1220.53</ele>
        <time>2018-10-09T10:28:37Z</time>
      </trkpt>
      <trkpt lat="45.82646" lon="6.35253">
        <ele>1218.61</ele>
        <time>2018-10-09T10:28:43Z</time>
      </trkpt>
      <trkpt lat="45.82623" lon="6.35259">
        <ele>1215.24</ele>
        <time>2018-10-09T10:28:50Z</time>
      </trkpt>
      <trkpt lat="45.82601" lon="6.35272">
        <ele>1212.84</ele>
        <time>2018-10-09T10:28:58Z</time>
      </trkpt>
      <trkpt lat="45.8257" lon="6.35283">
        <ele>1211.88</ele>
        <time>2018-10-09T10:29:06Z</time>
      </trkpt>
      <trkpt lat="45.82543" lon="6.35288">
        <ele>1210.44</ele>
        <time>2018-10-09T10:29:14Z</time>
      </trkpt>
      <trkpt lat="45.8252" lon="6.35301">
        <ele>1209</ele>
        <time>2018-10-09T10:29:22Z</time>
      </trkpt>
      <trkpt lat="45.82497" lon="6.35307">
        <ele>1209.48</ele>
        <time>2018-10-09T10:29:30Z</time>
      </trkpt>
      <trkpt lat="45.82473" lon="6.35313">
        <ele>1211.4</ele>
        <time>2018-10-09T10:29:40Z</time>
      </trkpt>
      <trkpt lat="45.82452" lon="6.35328">
        <ele>1213.8</ele>
        <time>2018-10-09T10:29:50Z</time>
      </trkpt>
      <trkpt lat="45.82428" lon="6.35337">
        <ele>1216.69</ele>
        <time>2018-10-09T10:30:02Z</time>
      </trkpt>
      <trkpt lat="45.82403" lon="6.35332">
        <ele>1217.17</ele>
        <time>2018-10-09T10:30:11Z</time>
      </trkpt>
      <trkpt lat="45.82377" lon="6.35322">
        <ele>1218.61</ele>
        <time>2018-10-09T10:30:21Z</time>
      </trkpt>
      <trkpt lat="45.82369" lon="6.35316">
        <ele>1218.61</ele>
        <time>2018-10-09T10:30:24Z</time>
      </trkpt>
      <trkpt lat="45.82366" lon="6.35314">
        <ele>1218.61</ele>
        <time>2018-10-09T10:30:25Z</time>
      </trkpt>
      <trkpt lat="45.82364" lon="6.35312">
        <ele>1218.13</ele>
        <time>2018-10-09T10:30:26Z</time>
      </trkpt>
      <trkpt lat="45.8236" lon="6.3531">
        <ele>1218.13</ele>
        <time>2018-10-09T10:30:27Z</time>
      </trkpt>
      <trkpt lat="45.82358" lon="6.35309">
        <ele>1218.13</ele>
        <time>2018-10-09T10:30:28Z</time>
      </trkpt>
      <trkpt lat="45.82338" lon="6.35287">
        <ele>1217.65</ele>
        <time>2018-10-09T10:30:36Z</time>
      </trkpt>
      <trkpt lat="45.8232" lon="6.35261">
        <ele>1217.17</ele>
        <time>2018-10-09T10:30:45Z</time>
      </trkpt>
      <trkpt lat="45.82308" lon="6.35234">
        <ele>1216.21</ele>
        <time>2018-10-09T10:30:53Z</time>
      </trkpt>
      <trkpt lat="45.82286" lon="6.35225">
        <ele>1214.76</ele>
        <time>2018-10-09T10:31:01Z</time>
      </trkpt>
      <trkpt lat="45.82263" lon="6.3522">
        <ele>1212.36</ele>
        <time>2018-10-09T10:31:09Z</time>
      </trkpt>
      <trkpt lat="45.82236" lon="6.35215">
        <ele>1211.4</ele>
        <time>2018-10-09T10:31:17Z</time>
      </trkpt>
      <trkpt lat="45.82215" lon="6.35207">
        <ele>1211.4</ele>
        <time>2018-10-09T10:31:25Z</time>
      </trkpt>
      <trkpt lat="45.82195" lon="6.35189">
        <ele>1213.32</ele>
        <time>2018-10-09T10:31:34Z</time>
      </trkpt>
      <trkpt lat="45.8218" lon="6.35161">
        <ele>1214.76</ele>
        <time>2018-10-09T10:31:43Z</time>
      </trkpt>
      <trkpt lat="45.82168" lon="6.35128">
        <ele>1216.21</ele>
        <time>2018-10-09T10:31:51Z</time>
      </trkpt>
      <trkpt lat="45.82158" lon="6.35102">
        <ele>1216.21</ele>
        <time>2018-10-09T10:31:58Z</time>
      </trkpt>
      <trkpt lat="45.82146" lon="6.35076">
        <ele>1216.69</ele>
        <time>2018-10-09T10:32:06Z</time>
      </trkpt>
      <trkpt lat="45.82135" lon="6.35052">
        <ele>1217.17</ele>
        <time>2018-10-09T10:32:14Z</time>
      </trkpt>
      <trkpt lat="45.82121" lon="6.35033">
        <ele>1217.17</ele>
        <time>2018-10-09T10:32:21Z</time>
      </trkpt>
      <trkpt lat="45.821" lon="6.3502">
        <ele>1217.17</ele>
        <time>2018-10-09T10:32:29Z</time>
      </trkpt>
      <trkpt lat="45.82082" lon="6.3501">
        <ele>1216.69</ele>
        <time>2018-10-09T10:32:37Z</time>
      </trkpt>
      <trkpt lat="45.82063" lon="6.34996">
        <ele>1216.69</ele>
        <time>2018-10-09T10:32:45Z</time>
      </trkpt>
      <trkpt lat="45.8204" lon="6.35">
        <ele>1216.21</ele>
        <time>2018-10-09T10:32:53Z</time>
      </trkpt>
      <trkpt lat="45.82019" lon="6.35014">
        <ele>1216.21</ele>
        <time>2018-10-09T10:33:02Z</time>
      </trkpt>
      <trkpt lat="45.81997" lon="6.35024">
        <ele>1216.21</ele>
        <time>2018-10-09T10:33:11Z</time>
      </trkpt>
      <trkpt lat="45.81977" lon="6.3504">
        <ele>1217.17</ele>
        <time>2018-10-09T10:33:20Z</time>
      </trkpt>
      <trkpt lat="45.81966" lon="6.35053">
        <ele>1217.65</ele>
        <time>2018-10-09T10:33:27Z</time>
      </trkpt>
      <trkpt lat="45.81965" lon="6.35057">
        <ele>1217.65</ele>
        <time>2018-10-09T10:33:29Z</time>
      </trkpt>
      <trkpt lat="45.81964" lon="6.35058">
        <ele>1217.65</ele>
        <time>2018-10-09T10:33:30Z</time>
      </trkpt>
      <trkpt lat="45.81965" lon="6.35064">
        <ele>1217.65</ele>
        <time>2018-10-09T10:33:35Z</time>
      </trkpt>
      <trkpt lat="45.8196" lon="6.3507">
        <ele>1217.65</ele>
        <time>2018-10-09T10:33:50Z</time>
      </trkpt>
      <trkpt lat="45.81945" lon="6.35094">
        <ele>1220.53</ele>
        <time>2018-10-09T10:34:02Z</time>
      </trkpt>
      <trkpt lat="45.81942" lon="6.35101">
        <ele>1221.49</ele>
        <time>2018-10-09T10:34:07Z</time>
      </trkpt>
      <trkpt lat="45.81941" lon="6.35103">
        <ele>1221.97</ele>
        <time>2018-10-09T10:34:08Z</time>
      </trkpt>
      <trkpt lat="45.81941" lon="6.35105">
        <ele>1221.97</ele>
        <time>2018-10-09T10:34:09Z</time>
      </trkpt>
      <trkpt lat="45.81934" lon="6.35115">
        <ele>1222.45</ele>
        <time>2018-10-09T10:34:15Z</time>
      </trkpt>
      <trkpt lat="45.81924" lon="6.35142">
        <ele>1223.9</ele>
        <time>2018-10-09T10:34:27Z</time>
      </trkpt>
      <trkpt lat="45.81915" lon="6.35167">
        <ele>1226.78</ele>
        <time>2018-10-09T10:34:37Z</time>
      </trkpt>
      <trkpt lat="45.81905" lon="6.35192">
        <ele>1229.18</ele>
        <time>2018-10-09T10:34:48Z</time>
      </trkpt>
      <trkpt lat="45.81893" lon="6.35203">
        <ele>1232.07</ele>
        <time>2018-10-09T10:34:56Z</time>
      </trkpt>
      <trkpt lat="45.81875" lon="6.35211">
        <ele>1235.43</ele>
        <time>2018-10-09T10:35:07Z</time>
      </trkpt>
      <trkpt lat="45.81854" lon="6.3522">
        <ele>1237.83</ele>
        <time>2018-10-09T10:35:18Z</time>
      </trkpt>
      <trkpt lat="45.81836" lon="6.35237">
        <ele>1240.72</ele>
        <time>2018-10-09T10:35:29Z</time>
      </trkpt>
      <trkpt lat="45.81819" lon="6.35256">
        <ele>1244.08</ele>
        <time>2018-10-09T10:35:42Z</time>
      </trkpt>
      <trkpt lat="45.818" lon="6.35276">
        <ele>1246.01</ele>
        <time>2018-10-09T10:35:53Z</time>
      </trkpt>
      <trkpt lat="45.81781" lon="6.35296">
        <ele>1248.89</ele>
        <time>2018-10-09T10:36:05Z</time>
      </trkpt>
      <trkpt lat="45.81761" lon="6.35311">
        <ele>1251.77</ele>
        <time>2018-10-09T10:36:17Z</time>
      </trkpt>
      <trkpt lat="45.81742" lon="6.3533">
        <ele>1254.18</ele>
        <time>2018-10-09T10:36:29Z</time>
      </trkpt>
      <trkpt lat="45.81731" lon="6.35342">
        <ele>1257.06</ele>
        <time>2018-10-09T10:36:39Z</time>
      </trkpt>
      <trkpt lat="45.8173" lon="6.35341">
        <ele>1257.54</ele>
        <time>2018-10-09T10:36:40Z</time>
      </trkpt>
      <trkpt lat="45.81705" lon="6.35347">
        <ele>1260.43</ele>
        <time>2018-10-09T10:36:53Z</time>
      </trkpt>
      <trkpt lat="45.81685" lon="6.35364">
        <ele>1263.31</ele>
        <time>2018-10-09T10:37:06Z</time>
      </trkpt>
      <trkpt lat="45.81667" lon="6.35385">
        <ele>1266.19</ele>
        <time>2018-10-09T10:37:19Z</time>
      </trkpt>
      <trkpt lat="45.81651" lon="6.35404">
        <ele>1269.56</ele>
        <time>2018-10-09T10:37:31Z</time>
      </trkpt>
      <trkpt lat="45.8164" lon="6.3542">
        <ele>1271.48</ele>
        <time>2018-10-09T10:37:40Z</time>
      </trkpt>
      <trkpt lat="45.81638" lon="6.35422">
        <ele>1271.48</ele>
        <time>2018-10-09T10:37:41Z</time>
      </trkpt>
      <trkpt lat="45.81633" lon="6.35431">
        <ele>1272.44</ele>
        <time>2018-10-09T10:37:45Z</time>
      </trkpt>
      <trkpt lat="45.81632" lon="6.35432">
        <ele>1272.92</ele>
        <time>2018-10-09T10:37:46Z</time>
      </trkpt>
      <trkpt lat="45.8163" lon="6.35435">
        <ele>1272.92</ele>
        <time>2018-10-09T10:37:47Z</time>
      </trkpt>
      <trkpt lat="45.81613" lon="6.35462">
        <ele>1275.33</ele>
        <time>2018-10-09T10:37:59Z</time>
      </trkpt>
      <trkpt lat="45.81599" lon="6.35487">
        <ele>1277.73</ele>
        <time>2018-10-09T10:38:10Z</time>
      </trkpt>
      <trkpt lat="45.81591" lon="6.35507">
        <ele>1279.65</ele>
        <time>2018-10-09T10:38:19Z</time>
      </trkpt>
      <trkpt lat="45.8159" lon="6.35509">
        <ele>1280.13</ele>
        <time>2018-10-09T10:38:20Z</time>
      </trkpt>
      <trkpt lat="45.81589" lon="6.35512">
        <ele>1280.13</ele>
        <time>2018-10-09T10:38:21Z</time>
      </trkpt>
      <trkpt lat="45.81587" lon="6.35514">
        <ele>1280.61</ele>
        <time>2018-10-09T10:38:22Z</time>
      </trkpt>
      <trkpt lat="45.81585" lon="6.35516">
        <ele>1280.61</ele>
        <time>2018-10-09T10:38:23Z</time>
      </trkpt>
      <trkpt lat="45.8157" lon="6.35535">
        <ele>1283.02</ele>
        <time>2018-10-09T10:38:34Z</time>
      </trkpt>
      <trkpt lat="45.81569" lon="6.35537">
        <ele>1283.5</ele>
        <time>2018-10-09T10:38:35Z</time>
      </trkpt>
      <trkpt lat="45.81567" lon="6.35539">
        <ele>1283.5</ele>
        <time>2018-10-09T10:38:36Z</time>
      </trkpt>
      <trkpt lat="45.81566" lon="6.35541">
        <ele>1283.98</ele>
        <time>2018-10-09T10:38:37Z</time>
      </trkpt>
      <trkpt lat="45.81565" lon="6.35544">
        <ele>1283.98</ele>
        <time>2018-10-09T10:38:38Z</time>
      </trkpt>
      <trkpt lat="45.81549" lon="6.35569">
        <ele>1286.86</ele>
        <time>2018-10-09T10:38:49Z</time>
      </trkpt>
      <trkpt lat="45.81534" lon="6.35595">
        <ele>1289.27</ele>
        <time>2018-10-09T10:39:01Z</time>
      </trkpt>
      <trkpt lat="45.81517" lon="6.35615">
        <ele>1291.67</ele>
        <time>2018-10-09T10:39:12Z</time>
      </trkpt>
      <trkpt lat="45.81498" lon="6.35633">
        <ele>1292.63</ele>
        <time>2018-10-09T10:39:23Z</time>
      </trkpt>
      <trkpt lat="45.81485" lon="6.35663">
        <ele>1293.59</ele>
        <time>2018-10-09T10:39:33Z</time>
      </trkpt>
      <trkpt lat="45.81476" lon="6.35695">
        <ele>1295.03</ele>
        <time>2018-10-09T10:39:42Z</time>
      </trkpt>
      <trkpt lat="45.81469" lon="6.35724">
        <ele>1295.03</ele>
        <time>2018-10-09T10:39:51Z</time>
      </trkpt>
      <trkpt lat="45.81456" lon="6.35748">
        <ele>1295.03</ele>
        <time>2018-10-09T10:39:59Z</time>
      </trkpt>
      <trkpt lat="45.81441" lon="6.35771">
        <ele>1295.03</ele>
        <time>2018-10-09T10:40:07Z</time>
      </trkpt>
      <trkpt lat="45.81428" lon="6.35798">
        <ele>1294.55</ele>
        <time>2018-10-09T10:40:15Z</time>
      </trkpt>
      <trkpt lat="45.81413" lon="6.3582">
        <ele>1295.03</ele>
        <time>2018-10-09T10:40:23Z</time>
      </trkpt>
      <trkpt lat="45.81398" lon="6.3584">
        <ele>1295.51</ele>
        <time>2018-10-09T10:40:31Z</time>
      </trkpt>
      <trkpt lat="45.81383" lon="6.35865">
        <ele>1295.99</ele>
        <time>2018-10-09T10:40:40Z</time>
      </trkpt>
      <trkpt lat="45.81373" lon="6.35895">
        <ele>1295.99</ele>
        <time>2018-10-09T10:40:48Z</time>
      </trkpt>
      <trkpt lat="45.81362" lon="6.35919">
        <ele>1295.99</ele>
        <time>2018-10-09T10:40:55Z</time>
      </trkpt>
      <trkpt lat="45.81349" lon="6.35942">
        <ele>1295.51</ele>
        <time>2018-10-09T10:41:03Z</time>
      </trkpt>
      <trkpt lat="45.81335" lon="6.35962">
        <ele>1295.03</ele>
        <time>2018-10-09T10:41:11Z</time>
      </trkpt>
      <trkpt lat="45.81331" lon="6.35965">
        <ele>1295.03</ele>
        <time>2018-10-09T10:41:13Z</time>
      </trkpt>
      <trkpt lat="45.81314" lon="6.35982">
        <ele>1295.03</ele>
        <time>2018-10-09T10:41:22Z</time>
      </trkpt>
      <trkpt lat="45.81297" lon="6.36003">
        <ele>1294.55</ele>
        <time>2018-10-09T10:41:31Z</time>
      </trkpt>
      <trkpt lat="45.81281" lon="6.36026">
        <ele>1295.03</ele>
        <time>2018-10-09T10:41:41Z</time>
      </trkpt>
      <trkpt lat="45.81261" lon="6.36053">
        <ele>1295.03</ele>
        <time>2018-10-09T10:41:50Z</time>
      </trkpt>
      <trkpt lat="45.81242" lon="6.36077">
        <ele>1294.55</ele>
        <time>2018-10-09T10:41:58Z</time>
      </trkpt>
      <trkpt lat="45.81226" lon="6.36105">
        <ele>1293.59</ele>
        <time>2018-10-09T10:42:06Z</time>
      </trkpt>
      <trkpt lat="45.81215" lon="6.36133">
        <ele>1291.67</ele>
        <time>2018-10-09T10:42:13Z</time>
      </trkpt>
      <trkpt lat="45.81197" lon="6.36147">
        <ele>1289.27</ele>
        <time>2018-10-09T10:42:20Z</time>
      </trkpt>
      <trkpt lat="45.81184" lon="6.36153">
        <ele>1287.34</ele>
        <time>2018-10-09T10:42:25Z</time>
      </trkpt>
      <trkpt lat="45.81164" lon="6.36163">
        <ele>1285.9</ele>
        <time>2018-10-09T10:42:33Z</time>
      </trkpt>
      <trkpt lat="45.81158" lon="6.36168">
        <ele>1285.42</ele>
        <time>2018-10-09T10:42:36Z</time>
      </trkpt>
      <trkpt lat="45.81156" lon="6.36169">
        <ele>1285.42</ele>
        <time>2018-10-09T10:42:38Z</time>
      </trkpt>
      <trkpt lat="45.81151" lon="6.36186">
        <ele>1286.38</ele>
        <time>2018-10-09T10:43:05Z</time>
      </trkpt>
      <trkpt lat="45.81151" lon="6.36184">
        <ele>1286.38</ele>
        <time>2018-10-09T10:43:06Z</time>
      </trkpt>
      <trkpt lat="45.81151" lon="6.36175">
        <ele>1286.86</ele>
        <time>2018-10-09T10:43:11Z</time>
      </trkpt>
      <trkpt lat="45.81151" lon="6.36173">
        <ele>1286.86</ele>
        <time>2018-10-09T10:43:12Z</time>
      </trkpt>
      <trkpt lat="45.81151" lon="6.36171">
        <ele>1286.38</ele>
        <time>2018-10-09T10:43:13Z</time>
      </trkpt>
      <trkpt lat="45.81155" lon="6.36166">
        <ele>1285.9</ele>
        <time>2018-10-09T10:43:25Z</time>
      </trkpt>
      <trkpt lat="45.81156" lon="6.36166">
        <ele>1285.42</ele>
        <time>2018-10-09T10:43:26Z</time>
      </trkpt>
      <trkpt lat="45.81156" lon="6.36167">
        <ele>1285.42</ele>
        <time>2018-10-09T10:43:43Z</time>
      </trkpt>
      <trkpt lat="45.81155" lon="6.36167">
        <ele>1285.42</ele>
        <time>2018-10-09T10:43:44Z</time>
      </trkpt>
      <trkpt lat="45.81154" lon="6.36169">
        <ele>1285.42</ele>
        <time>2018-10-09T10:44:00Z</time>
      </trkpt>
      <trkpt lat="45.81155" lon="6.3617">
        <ele>1285.42</ele>
        <time>2018-10-09T10:44:11Z</time>
      </trkpt>
      <trkpt lat="45.81154" lon="6.36169">
        <ele>1285.42</ele>
        <time>2018-10-09T10:44:19Z</time>
      </trkpt>
      <trkpt lat="45.81154" lon="6.36169">
        <ele>1285.42</ele>
        <time>2018-10-09T10:44:31Z</time>
      </trkpt>
      <trkpt lat="45.8115" lon="6.36179">
        <ele>1286.38</ele>
        <time>2018-10-09T10:45:00Z</time>
      </trkpt>
      <trkpt lat="45.81153" lon="6.36191">
        <ele>1286.86</ele>
        <time>2018-10-09T10:45:26Z</time>
      </trkpt>
      <trkpt lat="45.81153" lon="6.36194">
        <ele>1286.38</ele>
        <time>2018-10-09T10:45:28Z</time>
      </trkpt>
      <trkpt lat="45.81153" lon="6.36196">
        <ele>1286.38</ele>
        <time>2018-10-09T10:45:29Z</time>
      </trkpt>
      <trkpt lat="45.81153" lon="6.36197">
        <ele>1286.38</ele>
        <time>2018-10-09T10:45:30Z</time>
      </trkpt>
      <trkpt lat="45.81153" lon="6.36199">
        <ele>1286.38</ele>
        <time>2018-10-09T10:45:31Z</time>
      </trkpt>
      <trkpt lat="45.81153" lon="6.362">
        <ele>1286.38</ele>
        <time>2018-10-09T10:45:32Z</time>
      </trkpt>
      <trkpt lat="45.81153" lon="6.36202">
        <ele>1286.86</ele>
        <time>2018-10-09T10:45:33Z</time>
      </trkpt>
      <trkpt lat="45.81154" lon="6.36204">
        <ele>1286.86</ele>
        <time>2018-10-09T10:45:34Z</time>
      </trkpt>
      <trkpt lat="45.81154" lon="6.36206">
        <ele>1286.86</ele>
        <time>2018-10-09T10:45:35Z</time>
      </trkpt>
      <trkpt lat="45.81155" lon="6.36208">
        <ele>1286.86</ele>
        <time>2018-10-09T10:45:36Z</time>
      </trkpt>
      <trkpt lat="45.81155" lon="6.3621">
        <ele>1287.34</ele>
        <time>2018-10-09T10:45:37Z</time>
      </trkpt>
      <trkpt lat="45.81156" lon="6.3624">
        <ele>1288.3</ele>
        <time>2018-10-09T10:45:52Z</time>
      </trkpt>
      <trkpt lat="45.81156" lon="6.36249">
        <ele>1288.78</ele>
        <time>2018-10-09T10:45:57Z</time>
      </trkpt>
      <trkpt lat="45.81155" lon="6.36277">
        <ele>1289.27</ele>
        <time>2018-10-09T10:46:10Z</time>
      </trkpt>
      <trkpt lat="45.81156" lon="6.36308">
        <ele>1290.23</ele>
        <time>2018-10-09T10:46:18Z</time>
      </trkpt>
      <trkpt lat="45.81155" lon="6.3634">
        <ele>1290.71</ele>
        <time>2018-10-09T10:46:27Z</time>
      </trkpt>
      <trkpt lat="45.81161" lon="6.36368">
        <ele>1291.19</ele>
        <time>2018-10-09T10:46:35Z</time>
      </trkpt>
      <trkpt lat="45.81176" lon="6.36391">
        <ele>1291.19</ele>
        <time>2018-10-09T10:46:43Z</time>
      </trkpt>
      <trkpt lat="45.81195" lon="6.36406">
        <ele>1290.71</ele>
        <time>2018-10-09T10:46:51Z</time>
      </trkpt>
      <trkpt lat="45.81215" lon="6.36417">
        <ele>1290.71</ele>
        <time>2018-10-09T10:46:59Z</time>
      </trkpt>
      <trkpt lat="45.81235" lon="6.3643">
        <ele>1289.75</ele>
        <time>2018-10-09T10:47:06Z</time>
      </trkpt>
      <trkpt lat="45.8125" lon="6.36452">
        <ele>1289.75</ele>
        <time>2018-10-09T10:47:13Z</time>
      </trkpt>
      <trkpt lat="45.81257" lon="6.3648">
        <ele>1290.71</ele>
        <time>2018-10-09T10:47:21Z</time>
      </trkpt>
      <trkpt lat="45.8127" lon="6.36502">
        <ele>1291.19</ele>
        <time>2018-10-09T10:47:29Z</time>
      </trkpt>
      <trkpt lat="45.81289" lon="6.36519">
        <ele>1290.23</ele>
        <time>2018-10-09T10:47:37Z</time>
      </trkpt>
      <trkpt lat="45.81306" lon="6.36535">
        <ele>1289.27</ele>
        <time>2018-10-09T10:47:44Z</time>
      </trkpt>
      <trkpt lat="45.81319" lon="6.36555">
        <ele>1288.78</ele>
        <time>2018-10-09T10:47:50Z</time>
      </trkpt>
      <trkpt lat="45.81329" lon="6.36583">
        <ele>1287.82</ele>
        <time>2018-10-09T10:47:57Z</time>
      </trkpt>
      <trkpt lat="45.81335" lon="6.3661">
        <ele>1287.34</ele>
        <time>2018-10-09T10:48:04Z</time>
      </trkpt>
      <trkpt lat="45.81337" lon="6.3664">
        <ele>1287.82</ele>
        <time>2018-10-09T10:48:12Z</time>
      </trkpt>
      <trkpt lat="45.81339" lon="6.3667">
        <ele>1288.78</ele>
        <time>2018-10-09T10:48:20Z</time>
      </trkpt>
      <trkpt lat="45.81341" lon="6.36698">
        <ele>1290.23</ele>
        <time>2018-10-09T10:48:28Z</time>
      </trkpt>
      <trkpt lat="45.81342" lon="6.36725">
        <ele>1291.67</ele>
        <time>2018-10-09T10:48:36Z</time>
      </trkpt>
      <trkpt lat="45.81341" lon="6.36754">
        <ele>1292.15</ele>
        <time>2018-10-09T10:48:44Z</time>
      </trkpt>
      <trkpt lat="45.81335" lon="6.36782">
        <ele>1291.19</ele>
        <time>2018-10-09T10:48:52Z</time>
      </trkpt>
      <trkpt lat="45.81343" lon="6.36806">
        <ele>1292.63</ele>
        <time>2018-10-09T10:49:01Z</time>
      </trkpt>
      <trkpt lat="45.81354" lon="6.3683">
        <ele>1295.03</ele>
        <time>2018-10-09T10:49:10Z</time>
      </trkpt>
      <trkpt lat="45.81366" lon="6.36851">
        <ele>1295.99</ele>
        <time>2018-10-09T10:49:18Z</time>
      </trkpt>
      <trkpt lat="45.81377" lon="6.36873">
        <ele>1297.44</ele>
        <time>2018-10-09T10:49:26Z</time>
      </trkpt>
      <trkpt lat="45.8138" lon="6.369">
        <ele>1298.88</ele>
        <time>2018-10-09T10:49:35Z</time>
      </trkpt>
      <trkpt lat="45.81382" lon="6.36911">
        <ele>1300.32</ele>
        <time>2018-10-09T10:49:39Z</time>
      </trkpt>
      <trkpt lat="45.81382" lon="6.36918">
        <ele>1301.28</ele>
        <time>2018-10-09T10:49:42Z</time>
      </trkpt>
      <trkpt lat="45.81382" lon="6.36921">
        <ele>1301.28</ele>
        <time>2018-10-09T10:49:43Z</time>
      </trkpt>
      <trkpt lat="45.81383" lon="6.36924">
        <ele>1301.76</ele>
        <time>2018-10-09T10:49:44Z</time>
      </trkpt>
      <trkpt lat="45.81384" lon="6.36926">
        <ele>1302.24</ele>
        <time>2018-10-09T10:49:45Z</time>
      </trkpt>
      <trkpt lat="45.81385" lon="6.36927">
        <ele>1302.72</ele>
        <time>2018-10-09T10:49:46Z</time>
      </trkpt>
      <trkpt lat="45.81386" lon="6.36929">
        <ele>1303.2</ele>
        <time>2018-10-09T10:49:47Z</time>
      </trkpt>
      <trkpt lat="45.81387" lon="6.36931">
        <ele>1303.2</ele>
        <time>2018-10-09T10:49:48Z</time>
      </trkpt>
      <trkpt lat="45.81395" lon="6.36943">
        <ele>1306.57</ele>
        <time>2018-10-09T10:49:57Z</time>
      </trkpt>
      <trkpt lat="45.81409" lon="6.3694">
        <ele>1309.93</ele>
        <time>2018-10-09T10:50:07Z</time>
      </trkpt>
      <trkpt lat="45.81426" lon="6.36932">
        <ele>1312.82</ele>
        <time>2018-10-09T10:50:19Z</time>
      </trkpt>
      <trkpt lat="45.8144" lon="6.36929">
        <ele>1316.18</ele>
        <time>2018-10-09T10:50:30Z</time>
      </trkpt>
      <trkpt lat="45.81455" lon="6.3693">
        <ele>1319.55</ele>
        <time>2018-10-09T10:50:42Z</time>
      </trkpt>
      <trkpt lat="45.81471" lon="6.36926">
        <ele>1322.43</ele>
        <time>2018-10-09T10:50:51Z</time>
      </trkpt>
      <trkpt lat="45.81483" lon="6.36924">
        <ele>1325.8</ele>
        <time>2018-10-09T10:51:01Z</time>
      </trkpt>
      <trkpt lat="45.81485" lon="6.36924">
        <ele>1325.8</ele>
        <time>2018-10-09T10:51:02Z</time>
      </trkpt>
      <trkpt lat="45.81486" lon="6.36923">
        <ele>1325.8</ele>
        <time>2018-10-09T10:51:03Z</time>
      </trkpt>
      <trkpt lat="45.81487" lon="6.36923">
        <ele>1326.28</ele>
        <time>2018-10-09T10:51:04Z</time>
      </trkpt>
      <trkpt lat="45.81488" lon="6.36924">
        <ele>1326.28</ele>
        <time>2018-10-09T10:51:05Z</time>
      </trkpt>
      <trkpt lat="45.81488" lon="6.36925">
        <ele>1326.76</ele>
        <time>2018-10-09T10:51:06Z</time>
      </trkpt>
      <trkpt lat="45.81489" lon="6.36928">
        <ele>1327.24</ele>
        <time>2018-10-09T10:51:08Z</time>
      </trkpt>
      <trkpt lat="45.81491" lon="6.36929">
        <ele>1327.24</ele>
        <time>2018-10-09T10:51:09Z</time>
      </trkpt>
      <trkpt lat="45.81506" lon="6.36947">
        <ele>1329.16</ele>
        <time>2018-10-09T10:51:21Z</time>
      </trkpt>
      <trkpt lat="45.8152" lon="6.36969">
        <ele>1330.12</ele>
        <time>2018-10-09T10:51:30Z</time>
      </trkpt>
      <trkpt lat="45.81529" lon="6.36994">
        <ele>1331.56</ele>
        <time>2018-10-09T10:51:40Z</time>
      </trkpt>
      <trkpt lat="45.81541" lon="6.37013">
        <ele>1333.49</ele>
        <time>2018-10-09T10:51:50Z</time>
      </trkpt>
      <trkpt lat="45.81551" lon="6.37036">
        <ele>1336.85</ele>
        <time>2018-10-09T10:52:01Z</time>
      </trkpt>
      <trkpt lat="45.81554" lon="6.37042">
        <ele>1338.29</ele>
        <time>2018-10-09T10:52:05Z</time>
      </trkpt>
      <trkpt lat="45.81555" lon="6.37044">
        <ele>1338.29</ele>
        <time>2018-10-09T10:52:06Z</time>
      </trkpt>
      <trkpt lat="45.81555" lon="6.37046">
        <ele>1338.77</ele>
        <time>2018-10-09T10:52:07Z</time>
      </trkpt>
      <trkpt lat="45.81556" lon="6.37048">
        <ele>1338.77</ele>
        <time>2018-10-09T10:52:08Z</time>
      </trkpt>
      <trkpt lat="45.81556" lon="6.3705">
        <ele>1339.25</ele>
        <time>2018-10-09T10:52:09Z</time>
      </trkpt>
      <trkpt lat="45.81557" lon="6.37052">
        <ele>1339.73</ele>
        <time>2018-10-09T10:52:10Z</time>
      </trkpt>
      <trkpt lat="45.81558" lon="6.37054">
        <ele>1340.22</ele>
        <time>2018-10-09T10:52:11Z</time>
      </trkpt>
      <trkpt lat="45.81559" lon="6.37056">
        <ele>1340.22</ele>
        <time>2018-10-09T10:52:12Z</time>
      </trkpt>
      <trkpt lat="45.8156" lon="6.37058">
        <ele>1340.22</ele>
        <time>2018-10-09T10:52:13Z</time>
      </trkpt>
      <trkpt lat="45.8156" lon="6.37061">
        <ele>1340.7</ele>
        <time>2018-10-09T10:52:14Z</time>
      </trkpt>
      <trkpt lat="45.81561" lon="6.37088">
        <ele>1342.62</ele>
        <time>2018-10-09T10:52:25Z</time>
      </trkpt>
      <trkpt lat="45.81559" lon="6.37116">
        <ele>1344.54</ele>
        <time>2018-10-09T10:52:35Z</time>
      </trkpt>
      <trkpt lat="45.81559" lon="6.37118">
        <ele>1344.54</ele>
        <time>2018-10-09T10:52:36Z</time>
      </trkpt>
      <trkpt lat="45.81559" lon="6.37121">
        <ele>1345.02</ele>
        <time>2018-10-09T10:52:37Z</time>
      </trkpt>
      <trkpt lat="45.81559" lon="6.37124">
        <ele>1345.02</ele>
        <time>2018-10-09T10:52:38Z</time>
      </trkpt>
      <trkpt lat="45.81559" lon="6.37126">
        <ele>1345.02</ele>
        <time>2018-10-09T10:52:39Z</time>
      </trkpt>
      <trkpt lat="45.81559" lon="6.37128">
        <ele>1345.02</ele>
        <time>2018-10-09T10:52:40Z</time>
      </trkpt>
      <trkpt lat="45.81559" lon="6.37129">
        <ele>1345.02</ele>
        <time>2018-10-09T10:52:41Z</time>
      </trkpt>
      <trkpt lat="45.81568" lon="6.37156">
        <ele>1345.98</ele>
        <time>2018-10-09T10:53:00Z</time>
      </trkpt>
      <trkpt lat="45.81573" lon="6.37174">
        <ele>1348.39</ele>
        <time>2018-10-09T10:53:09Z</time>
      </trkpt>
      <trkpt lat="45.81574" lon="6.37176">
        <ele>1348.87</ele>
        <time>2018-10-09T10:53:10Z</time>
      </trkpt>
      <trkpt lat="45.81576" lon="6.37177">
        <ele>1349.35</ele>
        <time>2018-10-09T10:53:11Z</time>
      </trkpt>
      <trkpt lat="45.81577" lon="6.37179">
        <ele>1349.83</ele>
        <time>2018-10-09T10:53:12Z</time>
      </trkpt>
      <trkpt lat="45.81577" lon="6.37181">
        <ele>1350.31</ele>
        <time>2018-10-09T10:53:13Z</time>
      </trkpt>
      <trkpt lat="45.81577" lon="6.37184">
        <ele>1350.31</ele>
        <time>2018-10-09T10:53:14Z</time>
      </trkpt>
      <trkpt lat="45.81577" lon="6.37187">
        <ele>1350.79</ele>
        <time>2018-10-09T10:53:15Z</time>
      </trkpt>
      <trkpt lat="45.81577" lon="6.3719">
        <ele>1350.79</ele>
        <time>2018-10-09T10:53:16Z</time>
      </trkpt>
      <trkpt lat="45.81577" lon="6.37192">
        <ele>1350.79</ele>
        <time>2018-10-09T10:53:17Z</time>
      </trkpt>
      <trkpt lat="45.81576" lon="6.37195">
        <ele>1350.79</ele>
        <time>2018-10-09T10:53:18Z</time>
      </trkpt>
      <trkpt lat="45.81576" lon="6.37198">
        <ele>1351.27</ele>
        <time>2018-10-09T10:53:19Z</time>
      </trkpt>
      <trkpt lat="45.81575" lon="6.372">
        <ele>1351.75</ele>
        <time>2018-10-09T10:53:20Z</time>
      </trkpt>
      <trkpt lat="45.81565" lon="6.37221">
        <ele>1354.63</ele>
        <time>2018-10-09T10:53:31Z</time>
      </trkpt>
      <trkpt lat="45.81563" lon="6.37238">
        <ele>1356.56</ele>
        <time>2018-10-09T10:53:39Z</time>
      </trkpt>
      <trkpt lat="45.81565" lon="6.3724">
        <ele>1357.04</ele>
        <time>2018-10-09T10:53:40Z</time>
      </trkpt>
      <trkpt lat="45.81567" lon="6.3724">
        <ele>1357.04</ele>
        <time>2018-10-09T10:53:41Z</time>
      </trkpt>
      <trkpt lat="45.81568" lon="6.37241">
        <ele>1357.52</ele>
        <time>2018-10-09T10:53:42Z</time>
      </trkpt>
      <trkpt lat="45.81571" lon="6.37241">
        <ele>1358</ele>
        <time>2018-10-09T10:53:43Z</time>
      </trkpt>
      <trkpt lat="45.81587" lon="6.37241">
        <ele>1358.96</ele>
        <time>2018-10-09T10:53:51Z</time>
      </trkpt>
      <trkpt lat="45.81609" lon="6.37243">
        <ele>1361.36</ele>
        <time>2018-10-09T10:54:02Z</time>
      </trkpt>
      <trkpt lat="45.81619" lon="6.37245">
        <ele>1362.81</ele>
        <time>2018-10-09T10:54:07Z</time>
      </trkpt>
      <trkpt lat="45.81623" lon="6.37245">
        <ele>1363.77</ele>
        <time>2018-10-09T10:54:10Z</time>
      </trkpt>
      <trkpt lat="45.81627" lon="6.37243">
        <ele>1364.73</ele>
        <time>2018-10-09T10:54:17Z</time>
      </trkpt>
      <trkpt lat="45.81628" lon="6.37243">
        <ele>1364.73</ele>
        <time>2018-10-09T10:54:18Z</time>
      </trkpt>
      <trkpt lat="45.81627" lon="6.37247">
        <ele>1364.73</ele>
        <time>2018-10-09T10:55:03Z</time>
      </trkpt>
      <trkpt lat="45.81626" lon="6.37247">
        <ele>1364.73</ele>
        <time>2018-10-09T10:55:23Z</time>
      </trkpt>
      <trkpt lat="45.81627" lon="6.37247">
        <ele>1364.73</ele>
        <time>2018-10-09T10:55:43Z</time>
      </trkpt>
      <trkpt lat="45.81627" lon="6.37246">
        <ele>1363.77</ele>
        <time>2018-10-09T10:55:58Z</time>
      </trkpt>
      <trkpt lat="45.81627" lon="6.37247">
        <ele>1364.25</ele>
        <time>2018-10-09T10:56:47Z</time>
      </trkpt>
      <trkpt lat="45.81627" lon="6.37248">
        <ele>1365.21</ele>
        <time>2018-10-09T10:57:10Z</time>
      </trkpt>
      <trkpt lat="45.8163" lon="6.37245">
        <ele>1365.21</ele>
        <time>2018-10-09T10:57:39Z</time>
      </trkpt>
      <trkpt lat="45.81631" lon="6.37245">
        <ele>1365.21</ele>
        <time>2018-10-09T10:57:40Z</time>
      </trkpt>
      <trkpt lat="45.81631" lon="6.37245">
        <ele>1365.21</ele>
        <time>2018-10-09T10:57:43Z</time>
      </trkpt>
      <trkpt lat="45.81628" lon="6.37248">
        <ele>1365.21</ele>
        <time>2018-10-09T10:57:47Z</time>
      </trkpt>
      <trkpt lat="45.81625" lon="6.37246">
        <ele>1364.73</ele>
        <time>2018-10-09T10:59:22Z</time>
      </trkpt>
      <trkpt lat="45.81623" lon="6.37243">
        <ele>1364.73</ele>
        <time>2018-10-09T10:59:34Z</time>
      </trkpt>
      <trkpt lat="45.8163" lon="6.3725">
        <ele>1364.73</ele>
        <time>2018-10-09T11:00:10Z</time>
      </trkpt>
      <trkpt lat="45.81648" lon="6.37266">
        <ele>1365.69</ele>
        <time>2018-10-09T11:00:18Z</time>
      </trkpt>
      <trkpt lat="45.81663" lon="6.37285">
        <ele>1366.17</ele>
        <time>2018-10-09T11:00:24Z</time>
      </trkpt>
      <trkpt lat="45.81674" lon="6.37309">
        <ele>1366.65</ele>
        <time>2018-10-09T11:00:30Z</time>
      </trkpt>
      <trkpt lat="45.81682" lon="6.37338">
        <ele>1367.61</ele>
        <time>2018-10-09T11:00:37Z</time>
      </trkpt>
      <trkpt lat="45.81693" lon="6.37363">
        <ele>1368.57</ele>
        <time>2018-10-09T11:00:44Z</time>
      </trkpt>
      <trkpt lat="45.81707" lon="6.37387">
        <ele>1368.57</ele>
        <time>2018-10-09T11:00:51Z</time>
      </trkpt>
      <trkpt lat="45.81711" lon="6.37416">
        <ele>1368.09</ele>
        <time>2018-10-09T11:00:57Z</time>
      </trkpt>
      <trkpt lat="45.81717" lon="6.37444">
        <ele>1367.61</ele>
        <time>2018-10-09T11:01:04Z</time>
      </trkpt>
      <trkpt lat="45.81728" lon="6.37464">
        <ele>1367.13</ele>
        <time>2018-10-09T11:01:22Z</time>
      </trkpt>
      <trkpt lat="45.81725" lon="6.37465">
        <ele>1366.65</ele>
        <time>2018-10-09T11:01:29Z</time>
      </trkpt>
      <trkpt lat="45.81724" lon="6.37465">
        <ele>1366.65</ele>
        <time>2018-10-09T11:01:30Z</time>
      </trkpt>
      <trkpt lat="45.81724" lon="6.37465">
        <ele>1366.17</ele>
        <time>2018-10-09T11:01:31Z</time>
      </trkpt>
      <trkpt lat="45.81733" lon="6.37473">
        <ele>1368.09</ele>
        <time>2018-10-09T11:02:07Z</time>
      </trkpt>
      <trkpt lat="45.81744" lon="6.37501">
        <ele>1370.5</ele>
        <time>2018-10-09T11:02:17Z</time>
      </trkpt>
      <trkpt lat="45.81762" lon="6.37515">
        <ele>1370.98</ele>
        <time>2018-10-09T11:02:25Z</time>
      </trkpt>
      <trkpt lat="45.81784" lon="6.37511">
        <ele>1371.94</ele>
        <time>2018-10-09T11:02:32Z</time>
      </trkpt>
      <trkpt lat="45.81806" lon="6.37503">
        <ele>1372.42</ele>
        <time>2018-10-09T11:02:39Z</time>
      </trkpt>
      <trkpt lat="45.81826" lon="6.37495">
        <ele>1373.38</ele>
        <time>2018-10-09T11:02:46Z</time>
      </trkpt>
      <trkpt lat="45.81845" lon="6.3749">
        <ele>1375.3</ele>
        <time>2018-10-09T11:02:54Z</time>
      </trkpt>
      <trkpt lat="45.81854" lon="6.37487">
        <ele>1375.78</ele>
        <time>2018-10-09T11:02:58Z</time>
      </trkpt>
      <trkpt lat="45.81856" lon="6.37486">
        <ele>1376.26</ele>
        <time>2018-10-09T11:02:59Z</time>
      </trkpt>
      <trkpt lat="45.81858" lon="6.37486">
        <ele>1376.26</ele>
        <time>2018-10-09T11:03:00Z</time>
      </trkpt>
      <trkpt lat="45.8186" lon="6.37486">
        <ele>1376.75</ele>
        <time>2018-10-09T11:03:01Z</time>
      </trkpt>
      <trkpt lat="45.81862" lon="6.37487">
        <ele>1377.23</ele>
        <time>2018-10-09T11:03:02Z</time>
      </trkpt>
      <trkpt lat="45.81863" lon="6.37488">
        <ele>1377.23</ele>
        <time>2018-10-09T11:03:03Z</time>
      </trkpt>
      <trkpt lat="45.81865" lon="6.3749">
        <ele>1377.71</ele>
        <time>2018-10-09T11:03:04Z</time>
      </trkpt>
      <trkpt lat="45.81883" lon="6.37509">
        <ele>1379.63</ele>
        <time>2018-10-09T11:03:14Z</time>
      </trkpt>
      <trkpt lat="45.81892" lon="6.37522">
        <ele>1381.07</ele>
        <time>2018-10-09T11:03:20Z</time>
      </trkpt>
      <trkpt lat="45.81915" lon="6.37528">
        <ele>1382.99</ele>
        <time>2018-10-09T11:03:29Z</time>
      </trkpt>
      <trkpt lat="45.81935" lon="6.37534">
        <ele>1384.44</ele>
        <time>2018-10-09T11:03:38Z</time>
      </trkpt>
      <trkpt lat="45.81937" lon="6.37536">
        <ele>1384.44</ele>
        <time>2018-10-09T11:03:39Z</time>
      </trkpt>
      <trkpt lat="45.81939" lon="6.37538">
        <ele>1384.44</ele>
        <time>2018-10-09T11:03:40Z</time>
      </trkpt>
      <trkpt lat="45.81948" lon="6.37551">
        <ele>1385.4</ele>
        <time>2018-10-09T11:03:45Z</time>
      </trkpt>
      <trkpt lat="45.8195" lon="6.37554">
        <ele>1385.4</ele>
        <time>2018-10-09T11:03:46Z</time>
      </trkpt>
      <trkpt lat="45.81952" lon="6.37556">
        <ele>1385.88</ele>
        <time>2018-10-09T11:03:47Z</time>
      </trkpt>
      <trkpt lat="45.81967" lon="6.37577">
        <ele>1386.84</ele>
        <time>2018-10-09T11:03:55Z</time>
      </trkpt>
      <trkpt lat="45.81978" lon="6.37602">
        <ele>1388.28</ele>
        <time>2018-10-09T11:04:03Z</time>
      </trkpt>
      <trkpt lat="45.81989" lon="6.37627">
        <ele>1390.2</ele>
        <time>2018-10-09T11:04:13Z</time>
      </trkpt>
      <trkpt lat="45.81992" lon="6.37635">
        <ele>1391.17</ele>
        <time>2018-10-09T11:04:16Z</time>
      </trkpt>
      <trkpt lat="45.81993" lon="6.37638">
        <ele>1391.17</ele>
        <time>2018-10-09T11:04:17Z</time>
      </trkpt>
      <trkpt lat="45.81995" lon="6.37641">
        <ele>1391.17</ele>
        <time>2018-10-09T11:04:18Z</time>
      </trkpt>
      <trkpt lat="45.81996" lon="6.37644">
        <ele>1391.65</ele>
        <time>2018-10-09T11:04:19Z</time>
      </trkpt>
      <trkpt lat="45.81996" lon="6.37648">
        <ele>1391.65</ele>
        <time>2018-10-09T11:04:20Z</time>
      </trkpt>
      <trkpt lat="45.81996" lon="6.37651">
        <ele>1391.65</ele>
        <time>2018-10-09T11:04:21Z</time>
      </trkpt>
      <trkpt lat="45.82" lon="6.3768">
        <ele>1394.05</ele>
        <time>2018-10-09T11:04:31Z</time>
      </trkpt>
      <trkpt lat="45.81996" lon="6.37706">
        <ele>1395.97</ele>
        <time>2018-10-09T11:04:41Z</time>
      </trkpt>
      <trkpt lat="45.81994" lon="6.37739">
        <ele>1397.89</ele>
        <time>2018-10-09T11:04:51Z</time>
      </trkpt>
      <trkpt lat="45.81996" lon="6.37768">
        <ele>1400.78</ele>
        <time>2018-10-09T11:05:01Z</time>
      </trkpt>
      <trkpt lat="45.81999" lon="6.37764">
        <ele>1401.26</ele>
        <time>2018-10-09T11:05:56Z</time>
      </trkpt>
      <trkpt lat="45.82" lon="6.37763">
        <ele>1401.26</ele>
        <time>2018-10-09T11:05:57Z</time>
      </trkpt>
      <trkpt lat="45.8201" lon="6.37748">
        <ele>1404.62</ele>
        <time>2018-10-09T11:06:18Z</time>
      </trkpt>
      <trkpt lat="45.82024" lon="6.37729">
        <ele>1407.51</ele>
        <time>2018-10-09T11:06:32Z</time>
      </trkpt>
      <trkpt lat="45.82027" lon="6.37723">
        <ele>1408.47</ele>
        <time>2018-10-09T11:06:35Z</time>
      </trkpt>
      <trkpt lat="45.82029" lon="6.37721">
        <ele>1408.95</ele>
        <time>2018-10-09T11:06:36Z</time>
      </trkpt>
      <trkpt lat="45.82029" lon="6.37719">
        <ele>1409.43</ele>
        <time>2018-10-09T11:06:37Z</time>
      </trkpt>
      <trkpt lat="45.8203" lon="6.37717">
        <ele>1409.43</ele>
        <time>2018-10-09T11:06:38Z</time>
      </trkpt>
      <trkpt lat="45.82031" lon="6.37716">
        <ele>1409.91</ele>
        <time>2018-10-09T11:06:39Z</time>
      </trkpt>
      <trkpt lat="45.82032" lon="6.37714">
        <ele>1410.39</ele>
        <time>2018-10-09T11:06:40Z</time>
      </trkpt>
      <trkpt lat="45.82033" lon="6.37712">
        <ele>1410.39</ele>
        <time>2018-10-09T11:06:41Z</time>
      </trkpt>
      <trkpt lat="45.82033" lon="6.3771">
        <ele>1410.39</ele>
        <time>2018-10-09T11:06:42Z</time>
      </trkpt>
      <trkpt lat="45.82044" lon="6.37699">
        <ele>1413.28</ele>
        <time>2018-10-09T11:06:50Z</time>
      </trkpt>
      <trkpt lat="45.82045" lon="6.377">
        <ele>1413.76</ele>
        <time>2018-10-09T11:06:51Z</time>
      </trkpt>
      <trkpt lat="45.82046" lon="6.37701">
        <ele>1414.24</ele>
        <time>2018-10-09T11:06:52Z</time>
      </trkpt>
      <trkpt lat="45.82049" lon="6.37713">
        <ele>1416.64</ele>
        <time>2018-10-09T11:06:59Z</time>
      </trkpt>
      <trkpt lat="45.8205" lon="6.37715">
        <ele>1417.12</ele>
        <time>2018-10-09T11:07:00Z</time>
      </trkpt>
      <trkpt lat="45.82051" lon="6.37717">
        <ele>1417.12</ele>
        <time>2018-10-09T11:07:01Z</time>
      </trkpt>
      <trkpt lat="45.82052" lon="6.37719">
        <ele>1417.6</ele>
        <time>2018-10-09T11:07:02Z</time>
      </trkpt>
      <trkpt lat="45.82052" lon="6.37721">
        <ele>1417.6</ele>
        <time>2018-10-09T11:07:03Z</time>
      </trkpt>
      <trkpt lat="45.82053" lon="6.37724">
        <ele>1418.08</ele>
        <time>2018-10-09T11:07:04Z</time>
      </trkpt>
      <trkpt lat="45.82053" lon="6.37726">
        <ele>1418.56</ele>
        <time>2018-10-09T11:07:05Z</time>
      </trkpt>
      <trkpt lat="45.82054" lon="6.37728">
        <ele>1418.56</ele>
        <time>2018-10-09T11:07:06Z</time>
      </trkpt>
      <trkpt lat="45.82055" lon="6.37731">
        <ele>1419.04</ele>
        <time>2018-10-09T11:07:07Z</time>
      </trkpt>
      <trkpt lat="45.82056" lon="6.37734">
        <ele>1419.52</ele>
        <time>2018-10-09T11:07:08Z</time>
      </trkpt>
      <trkpt lat="45.82056" lon="6.37736">
        <ele>1419.52</ele>
        <time>2018-10-09T11:07:09Z</time>
      </trkpt>
      <trkpt lat="45.82056" lon="6.3775">
        <ele>1420.97</ele>
        <time>2018-10-09T11:07:14Z</time>
      </trkpt>
      <trkpt lat="45.82055" lon="6.37752">
        <ele>1421.45</ele>
        <time>2018-10-09T11:07:15Z</time>
      </trkpt>
      <trkpt lat="45.82055" lon="6.37755">
        <ele>1421.45</ele>
        <time>2018-10-09T11:07:16Z</time>
      </trkpt>
      <trkpt lat="45.82056" lon="6.37757">
        <ele>1421.93</ele>
        <time>2018-10-09T11:07:17Z</time>
      </trkpt>
      <trkpt lat="45.82057" lon="6.37759">
        <ele>1422.41</ele>
        <time>2018-10-09T11:07:18Z</time>
      </trkpt>
      <trkpt lat="45.82058" lon="6.3776">
        <ele>1422.41</ele>
        <time>2018-10-09T11:07:19Z</time>
      </trkpt>
      <trkpt lat="45.8206" lon="6.3776">
        <ele>1422.89</ele>
        <time>2018-10-09T11:07:20Z</time>
      </trkpt>
      <trkpt lat="45.82061" lon="6.3776">
        <ele>1423.37</ele>
        <time>2018-10-09T11:07:21Z</time>
      </trkpt>
      <trkpt lat="45.82062" lon="6.37759">
        <ele>1423.37</ele>
        <time>2018-10-09T11:07:22Z</time>
      </trkpt>
      <trkpt lat="45.82063" lon="6.37758">
        <ele>1423.37</ele>
        <time>2018-10-09T11:07:23Z</time>
      </trkpt>
      <trkpt lat="45.82064" lon="6.37756">
        <ele>1423.85</ele>
        <time>2018-10-09T11:07:24Z</time>
      </trkpt>
      <trkpt lat="45.82064" lon="6.37755">
        <ele>1424.33</ele>
        <time>2018-10-09T11:07:25Z</time>
      </trkpt>
      <trkpt lat="45.82064" lon="6.37753">
        <ele>1424.81</ele>
        <time>2018-10-09T11:07:26Z</time>
      </trkpt>
      <trkpt lat="45.82064" lon="6.37751">
        <ele>1425.29</ele>
        <time>2018-10-09T11:07:27Z</time>
      </trkpt>
      <trkpt lat="45.82065" lon="6.37749">
        <ele>1425.29</ele>
        <time>2018-10-09T11:07:28Z</time>
      </trkpt>
      <trkpt lat="45.82065" lon="6.37748">
        <ele>1425.77</ele>
        <time>2018-10-09T11:07:29Z</time>
      </trkpt>
      <trkpt lat="45.82065" lon="6.37746">
        <ele>1426.25</ele>
        <time>2018-10-09T11:07:30Z</time>
      </trkpt>
      <trkpt lat="45.82065" lon="6.37744">
        <ele>1426.25</ele>
        <time>2018-10-09T11:07:31Z</time>
      </trkpt>
      <trkpt lat="45.82066" lon="6.37743">
        <ele>1426.73</ele>
        <time>2018-10-09T11:07:32Z</time>
      </trkpt>
      <trkpt lat="45.82068" lon="6.37734">
        <ele>1428.18</ele>
        <time>2018-10-09T11:07:37Z</time>
      </trkpt>
      <trkpt lat="45.82068" lon="6.37733">
        <ele>1428.66</ele>
        <time>2018-10-09T11:07:38Z</time>
      </trkpt>
      <trkpt lat="45.82068" lon="6.37731">
        <ele>1429.14</ele>
        <time>2018-10-09T11:07:39Z</time>
      </trkpt>
      <trkpt lat="45.82068" lon="6.37729">
        <ele>1429.62</ele>
        <time>2018-10-09T11:07:40Z</time>
      </trkpt>
      <trkpt lat="45.82069" lon="6.37728">
        <ele>1429.62</ele>
        <time>2018-10-09T11:07:41Z</time>
      </trkpt>
      <trkpt lat="45.82069" lon="6.37726">
        <ele>1430.1</ele>
        <time>2018-10-09T11:07:42Z</time>
      </trkpt>
      <trkpt lat="45.8207" lon="6.37725">
        <ele>1430.58</ele>
        <time>2018-10-09T11:07:43Z</time>
      </trkpt>
      <trkpt lat="45.82071" lon="6.37724">
        <ele>1431.06</ele>
        <time>2018-10-09T11:07:44Z</time>
      </trkpt>
      <trkpt lat="45.82071" lon="6.37722">
        <ele>1431.06</ele>
        <time>2018-10-09T11:07:45Z</time>
      </trkpt>
      <trkpt lat="45.82071" lon="6.3772">
        <ele>1431.06</ele>
        <time>2018-10-09T11:07:46Z</time>
      </trkpt>
      <trkpt lat="45.82072" lon="6.37719">
        <ele>1431.54</ele>
        <time>2018-10-09T11:07:47Z</time>
      </trkpt>
      <trkpt lat="45.82072" lon="6.37717">
        <ele>1432.02</ele>
        <time>2018-10-09T11:07:48Z</time>
      </trkpt>
      <trkpt lat="45.82073" lon="6.37716">
        <ele>1432.02</ele>
        <time>2018-10-09T11:07:49Z</time>
      </trkpt>
      <trkpt lat="45.82073" lon="6.37714">
        <ele>1432.5</ele>
        <time>2018-10-09T11:07:50Z</time>
      </trkpt>
      <trkpt lat="45.82074" lon="6.37712">
        <ele>1432.98</ele>
        <time>2018-10-09T11:07:51Z</time>
      </trkpt>
      <trkpt lat="45.82074" lon="6.37711">
        <ele>1432.98</ele>
        <time>2018-10-09T11:07:52Z</time>
      </trkpt>
      <trkpt lat="45.82075" lon="6.37709">
        <ele>1432.98</ele>
        <time>2018-10-09T11:07:53Z</time>
      </trkpt>
      <trkpt lat="45.82078" lon="6.37705">
        <ele>1434.42</ele>
        <time>2018-10-09T11:07:56Z</time>
      </trkpt>
      <trkpt lat="45.82089" lon="6.37693">
        <ele>1436.83</ele>
        <time>2018-10-09T11:08:04Z</time>
      </trkpt>
      <trkpt lat="45.82089" lon="6.37692">
        <ele>1436.83</ele>
        <time>2018-10-09T11:08:05Z</time>
      </trkpt>
      <trkpt lat="45.8209" lon="6.3769">
        <ele>1437.31</ele>
        <time>2018-10-09T11:08:06Z</time>
      </trkpt>
      <trkpt lat="45.82091" lon="6.37689">
        <ele>1437.31</ele>
        <time>2018-10-09T11:08:07Z</time>
      </trkpt>
      <trkpt lat="45.82091" lon="6.37687">
        <ele>1437.79</ele>
        <time>2018-10-09T11:08:08Z</time>
      </trkpt>
      <trkpt lat="45.82092" lon="6.37686">
        <ele>1438.27</ele>
        <time>2018-10-09T11:08:09Z</time>
      </trkpt>
      <trkpt lat="45.82093" lon="6.37681">
        <ele>1439.23</ele>
        <time>2018-10-09T11:08:12Z</time>
      </trkpt>
      <trkpt lat="45.82093" lon="6.37679">
        <ele>1439.23</ele>
        <time>2018-10-09T11:08:13Z</time>
      </trkpt>
      <trkpt lat="45.82097" lon="6.37664">
        <ele>1441.63</ele>
        <time>2018-10-09T11:08:21Z</time>
      </trkpt>
      <trkpt lat="45.82098" lon="6.37663">
        <ele>1442.11</ele>
        <time>2018-10-09T11:08:22Z</time>
      </trkpt>
      <trkpt lat="45.82098" lon="6.37661">
        <ele>1442.6</ele>
        <time>2018-10-09T11:08:23Z</time>
      </trkpt>
      <trkpt lat="45.82097" lon="6.37637">
        <ele>1445.48</ele>
        <time>2018-10-09T11:08:35Z</time>
      </trkpt>
      <trkpt lat="45.82097" lon="6.37613">
        <ele>1448.36</ele>
        <time>2018-10-09T11:08:48Z</time>
      </trkpt>
      <trkpt lat="45.82101" lon="6.37603">
        <ele>1449.81</ele>
        <time>2018-10-09T11:08:54Z</time>
      </trkpt>
      <trkpt lat="45.82101" lon="6.37598">
        <ele>1450.77</ele>
        <time>2018-10-09T11:08:57Z</time>
      </trkpt>
      <trkpt lat="45.82101" lon="6.37596">
        <ele>1450.77</ele>
        <time>2018-10-09T11:08:58Z</time>
      </trkpt>
      <trkpt lat="45.82101" lon="6.37594">
        <ele>1451.25</ele>
        <time>2018-10-09T11:08:59Z</time>
      </trkpt>
      <trkpt lat="45.821" lon="6.37592">
        <ele>1451.73</ele>
        <time>2018-10-09T11:09:00Z</time>
      </trkpt>
      <trkpt lat="45.821" lon="6.37589">
        <ele>1451.73</ele>
        <time>2018-10-09T11:09:01Z</time>
      </trkpt>
      <trkpt lat="45.82099" lon="6.37561">
        <ele>1453.65</ele>
        <time>2018-10-09T11:09:12Z</time>
      </trkpt>
      <trkpt lat="45.82099" lon="6.37558">
        <ele>1453.65</ele>
        <time>2018-10-09T11:09:13Z</time>
      </trkpt>
      <trkpt lat="45.82098" lon="6.37555">
        <ele>1454.13</ele>
        <time>2018-10-09T11:09:14Z</time>
      </trkpt>
      <trkpt lat="45.82098" lon="6.37553">
        <ele>1454.13</ele>
        <time>2018-10-09T11:09:15Z</time>
      </trkpt>
      <trkpt lat="45.82098" lon="6.37551">
        <ele>1454.13</ele>
        <time>2018-10-09T11:09:16Z</time>
      </trkpt>
      <trkpt lat="45.82097" lon="6.37549">
        <ele>1454.13</ele>
        <time>2018-10-09T11:09:17Z</time>
      </trkpt>
      <trkpt lat="45.82095" lon="6.37547">
        <ele>1454.61</ele>
        <time>2018-10-09T11:09:18Z</time>
      </trkpt>
      <trkpt lat="45.82094" lon="6.37546">
        <ele>1454.61</ele>
        <time>2018-10-09T11:09:19Z</time>
      </trkpt>
      <trkpt lat="45.82093" lon="6.37544">
        <ele>1454.61</ele>
        <time>2018-10-09T11:09:20Z</time>
      </trkpt>
      <trkpt lat="45.82092" lon="6.37541">
        <ele>1454.61</ele>
        <time>2018-10-09T11:09:21Z</time>
      </trkpt>
      <trkpt lat="45.82091" lon="6.37538">
        <ele>1455.09</ele>
        <time>2018-10-09T11:09:22Z</time>
      </trkpt>
      <trkpt lat="45.82086" lon="6.37523">
        <ele>1456.53</ele>
        <time>2018-10-09T11:09:29Z</time>
      </trkpt>
      <trkpt lat="45.82086" lon="6.37521">
        <ele>1457.02</ele>
        <time>2018-10-09T11:09:30Z</time>
      </trkpt>
      <trkpt lat="45.82086" lon="6.3752">
        <ele>1457.5</ele>
        <time>2018-10-09T11:09:31Z</time>
      </trkpt>
      <trkpt lat="45.82087" lon="6.37519">
        <ele>1457.98</ele>
        <time>2018-10-09T11:09:32Z</time>
      </trkpt>
      <trkpt lat="45.82088" lon="6.37518">
        <ele>1457.98</ele>
        <time>2018-10-09T11:09:33Z</time>
      </trkpt>
      <trkpt lat="45.8209" lon="6.37518">
        <ele>1457.98</ele>
        <time>2018-10-09T11:09:34Z</time>
      </trkpt>
      <trkpt lat="45.82091" lon="6.37519">
        <ele>1457.98</ele>
        <time>2018-10-09T11:09:35Z</time>
      </trkpt>
      <trkpt lat="45.82093" lon="6.3752">
        <ele>1458.46</ele>
        <time>2018-10-09T11:09:36Z</time>
      </trkpt>
      <trkpt lat="45.82095" lon="6.37528">
        <ele>1459.9</ele>
        <time>2018-10-09T11:09:40Z</time>
      </trkpt>
      <trkpt lat="45.82097" lon="6.37529">
        <ele>1460.38</ele>
        <time>2018-10-09T11:09:42Z</time>
      </trkpt>
      <trkpt lat="45.82098" lon="6.3753">
        <ele>1460.86</ele>
        <time>2018-10-09T11:09:43Z</time>
      </trkpt>
      <trkpt lat="45.821" lon="6.37531">
        <ele>1461.82</ele>
        <time>2018-10-09T11:09:46Z</time>
      </trkpt>
      <trkpt lat="45.82101" lon="6.37532">
        <ele>1461.82</ele>
        <time>2018-10-09T11:09:47Z</time>
      </trkpt>
      <trkpt lat="45.82102" lon="6.37532">
        <ele>1462.3</ele>
        <time>2018-10-09T11:09:48Z</time>
      </trkpt>
      <trkpt lat="45.8211" lon="6.3754">
        <ele>1465.19</ele>
        <time>2018-10-09T11:10:02Z</time>
      </trkpt>
      <trkpt lat="45.82119" lon="6.37554">
        <ele>1468.55</ele>
        <time>2018-10-09T11:10:19Z</time>
      </trkpt>
      <trkpt lat="45.82125" lon="6.37569">
        <ele>1471.92</ele>
        <time>2018-10-09T11:10:33Z</time>
      </trkpt>
      <trkpt lat="45.82128" lon="6.37591">
        <ele>1474.8</ele>
        <time>2018-10-09T11:10:50Z</time>
      </trkpt>
      <trkpt lat="45.82129" lon="6.37598">
        <ele>1475.76</ele>
        <time>2018-10-09T11:10:55Z</time>
      </trkpt>
      <trkpt lat="45.8213" lon="6.37599">
        <ele>1476.24</ele>
        <time>2018-10-09T11:10:56Z</time>
      </trkpt>
      <trkpt lat="45.8213" lon="6.376">
        <ele>1476.72</ele>
        <time>2018-10-09T11:10:57Z</time>
      </trkpt>
      <trkpt lat="45.82131" lon="6.37602">
        <ele>1477.2</ele>
        <time>2018-10-09T11:10:59Z</time>
      </trkpt>
      <trkpt lat="45.82132" lon="6.37603">
        <ele>1477.2</ele>
        <time>2018-10-09T11:11:00Z</time>
      </trkpt>
      <trkpt lat="45.82133" lon="6.37604">
        <ele>1477.68</ele>
        <time>2018-10-09T11:11:01Z</time>
      </trkpt>
      <trkpt lat="45.82134" lon="6.37605">
        <ele>1477.68</ele>
        <time>2018-10-09T11:11:02Z</time>
      </trkpt>
      <trkpt lat="45.82134" lon="6.37606">
        <ele>1477.68</ele>
        <time>2018-10-09T11:11:03Z</time>
      </trkpt>
      <trkpt lat="45.82137" lon="6.3761">
        <ele>1478.16</ele>
        <time>2018-10-09T11:11:07Z</time>
      </trkpt>
      <trkpt lat="45.82138" lon="6.3761">
        <ele>1478.16</ele>
        <time>2018-10-09T11:11:08Z</time>
      </trkpt>
      <trkpt lat="45.82139" lon="6.37611">
        <ele>1478.65</ele>
        <time>2018-10-09T11:11:09Z</time>
      </trkpt>
      <trkpt lat="45.82146" lon="6.37609">
        <ele>1480.09</ele>
        <time>2018-10-09T11:11:16Z</time>
      </trkpt>
      <trkpt lat="45.82146" lon="6.37603">
        <ele>1481.05</ele>
        <time>2018-10-09T11:11:22Z</time>
      </trkpt>
      <trkpt lat="45.82143" lon="6.37588">
        <ele>1483.93</ele>
        <time>2018-10-09T11:11:32Z</time>
      </trkpt>
      <trkpt lat="45.82143" lon="6.37586">
        <ele>1484.41</ele>
        <time>2018-10-09T11:11:33Z</time>
      </trkpt>
      <trkpt lat="45.82144" lon="6.37585">
        <ele>1484.41</ele>
        <time>2018-10-09T11:11:34Z</time>
      </trkpt>
      <trkpt lat="45.82145" lon="6.37584">
        <ele>1484.41</ele>
        <time>2018-10-09T11:11:35Z</time>
      </trkpt>
      <trkpt lat="45.82146" lon="6.37583">
        <ele>1484.89</ele>
        <time>2018-10-09T11:11:36Z</time>
      </trkpt>
      <trkpt lat="45.82147" lon="6.37583">
        <ele>1485.37</ele>
        <time>2018-10-09T11:11:37Z</time>
      </trkpt>
      <trkpt lat="45.82148" lon="6.37582">
        <ele>1485.37</ele>
        <time>2018-10-09T11:11:38Z</time>
      </trkpt>
      <trkpt lat="45.82149" lon="6.37583">
        <ele>1485.37</ele>
        <time>2018-10-09T11:11:39Z</time>
      </trkpt>
      <trkpt lat="45.82155" lon="6.37589">
        <ele>1486.34</ele>
        <time>2018-10-09T11:11:44Z</time>
      </trkpt>
      <trkpt lat="45.82156" lon="6.3759">
        <ele>1486.82</ele>
        <time>2018-10-09T11:11:45Z</time>
      </trkpt>
      <trkpt lat="45.82157" lon="6.37592">
        <ele>1486.82</ele>
        <time>2018-10-09T11:11:46Z</time>
      </trkpt>
      <trkpt lat="45.82158" lon="6.37593">
        <ele>1487.3</ele>
        <time>2018-10-09T11:11:47Z</time>
      </trkpt>
      <trkpt lat="45.8216" lon="6.37594">
        <ele>1487.78</ele>
        <time>2018-10-09T11:11:48Z</time>
      </trkpt>
      <trkpt lat="45.82161" lon="6.37595">
        <ele>1487.78</ele>
        <time>2018-10-09T11:11:49Z</time>
      </trkpt>
      <trkpt lat="45.82163" lon="6.37597">
        <ele>1488.26</ele>
        <time>2018-10-09T11:11:50Z</time>
      </trkpt>
      <trkpt lat="45.82164" lon="6.37598">
        <ele>1488.74</ele>
        <time>2018-10-09T11:11:51Z</time>
      </trkpt>
      <trkpt lat="45.82174" lon="6.37607">
        <ele>1490.66</ele>
        <time>2018-10-09T11:11:58Z</time>
      </trkpt>
      <trkpt lat="45.82177" lon="6.37612">
        <ele>1491.14</ele>
        <time>2018-10-09T11:12:00Z</time>
      </trkpt>
      <trkpt lat="45.82179" lon="6.3764">
        <ele>1494.51</ele>
        <time>2018-10-09T11:12:12Z</time>
      </trkpt>
      <trkpt lat="45.82179" lon="6.37642">
        <ele>1494.99</ele>
        <time>2018-10-09T11:12:13Z</time>
      </trkpt>
      <trkpt lat="45.82179" lon="6.37644">
        <ele>1494.99</ele>
        <time>2018-10-09T11:12:14Z</time>
      </trkpt>
      <trkpt lat="45.82178" lon="6.37647">
        <ele>1494.99</ele>
        <time>2018-10-09T11:12:15Z</time>
      </trkpt>
      <trkpt lat="45.82177" lon="6.37649">
        <ele>1495.47</ele>
        <time>2018-10-09T11:12:16Z</time>
      </trkpt>
      <trkpt lat="45.8217" lon="6.37668">
        <ele>1498.83</ele>
        <time>2018-10-09T11:12:26Z</time>
      </trkpt>
      <trkpt lat="45.82171" lon="6.37688">
        <ele>1501.72</ele>
        <time>2018-10-09T11:12:36Z</time>
      </trkpt>
      <trkpt lat="45.82174" lon="6.3769">
        <ele>1502.2</ele>
        <time>2018-10-09T11:12:38Z</time>
      </trkpt>
      <trkpt lat="45.82176" lon="6.3769">
        <ele>1502.2</ele>
        <time>2018-10-09T11:12:39Z</time>
      </trkpt>
      <trkpt lat="45.82177" lon="6.37689">
        <ele>1502.68</ele>
        <time>2018-10-09T11:12:40Z</time>
      </trkpt>
      <trkpt lat="45.82178" lon="6.37687">
        <ele>1503.16</ele>
        <time>2018-10-09T11:12:41Z</time>
      </trkpt>
      <trkpt lat="45.82179" lon="6.37685">
        <ele>1503.64</ele>
        <time>2018-10-09T11:12:42Z</time>
      </trkpt>
      <trkpt lat="45.8218" lon="6.37684">
        <ele>1503.64</ele>
        <time>2018-10-09T11:12:43Z</time>
      </trkpt>
      <trkpt lat="45.82181" lon="6.37682">
        <ele>1504.12</ele>
        <time>2018-10-09T11:12:44Z</time>
      </trkpt>
      <trkpt lat="45.82182" lon="6.3768">
        <ele>1504.6</ele>
        <time>2018-10-09T11:12:45Z</time>
      </trkpt>
      <trkpt lat="45.82183" lon="6.37679">
        <ele>1504.6</ele>
        <time>2018-10-09T11:12:46Z</time>
      </trkpt>
      <trkpt lat="45.82184" lon="6.37677">
        <ele>1505.08</ele>
        <time>2018-10-09T11:12:47Z</time>
      </trkpt>
      <trkpt lat="45.82185" lon="6.37675">
        <ele>1505.08</ele>
        <time>2018-10-09T11:12:48Z</time>
      </trkpt>
      <trkpt lat="45.82185" lon="6.37673">
        <ele>1505.08</ele>
        <time>2018-10-09T11:12:49Z</time>
      </trkpt>
      <trkpt lat="45.82186" lon="6.37671">
        <ele>1505.56</ele>
        <time>2018-10-09T11:12:50Z</time>
      </trkpt>
      <trkpt lat="45.82187" lon="6.37669">
        <ele>1505.56</ele>
        <time>2018-10-09T11:12:51Z</time>
      </trkpt>
      <trkpt lat="45.82188" lon="6.37667">
        <ele>1506.52</ele>
        <time>2018-10-09T11:12:52Z</time>
      </trkpt>
      <trkpt lat="45.82189" lon="6.37665">
        <ele>1506.52</ele>
        <time>2018-10-09T11:12:53Z</time>
      </trkpt>
      <trkpt lat="45.82191" lon="6.37663">
        <ele>1507</ele>
        <time>2018-10-09T11:12:54Z</time>
      </trkpt>
      <trkpt lat="45.82192" lon="6.37662">
        <ele>1507</ele>
        <time>2018-10-09T11:12:55Z</time>
      </trkpt>
      <trkpt lat="45.82193" lon="6.3766">
        <ele>1507</ele>
        <time>2018-10-09T11:12:56Z</time>
      </trkpt>
      <trkpt lat="45.82207" lon="6.37642">
        <ele>1510.37</ele>
        <time>2018-10-09T11:13:09Z</time>
      </trkpt>
      <trkpt lat="45.82209" lon="6.37638">
        <ele>1510.37</ele>
        <time>2018-10-09T11:13:11Z</time>
      </trkpt>
      <trkpt lat="45.8221" lon="6.37636">
        <ele>1510.85</ele>
        <time>2018-10-09T11:13:12Z</time>
      </trkpt>
      <trkpt lat="45.82211" lon="6.37634">
        <ele>1510.85</ele>
        <time>2018-10-09T11:13:13Z</time>
      </trkpt>
      <trkpt lat="45.82215" lon="6.37609">
        <ele>1512.77</ele>
        <time>2018-10-09T11:13:24Z</time>
      </trkpt>
      <trkpt lat="45.82216" lon="6.37579">
        <ele>1515.18</ele>
        <time>2018-10-09T11:13:36Z</time>
      </trkpt>
      <trkpt lat="45.8221" lon="6.37554">
        <ele>1518.54</ele>
        <time>2018-10-09T11:13:47Z</time>
      </trkpt>
      <trkpt lat="45.822" lon="6.37529">
        <ele>1521.42</ele>
        <time>2018-10-09T11:13:58Z</time>
      </trkpt>
      <trkpt lat="45.82203" lon="6.37518">
        <ele>1523.35</ele>
        <time>2018-10-09T11:14:04Z</time>
      </trkpt>
      <trkpt lat="45.82206" lon="6.37518">
        <ele>1523.35</ele>
        <time>2018-10-09T11:14:05Z</time>
      </trkpt>
      <trkpt lat="45.82208" lon="6.37519">
        <ele>1523.83</ele>
        <time>2018-10-09T11:14:06Z</time>
      </trkpt>
      <trkpt lat="45.8221" lon="6.37521">
        <ele>1523.83</ele>
        <time>2018-10-09T11:14:07Z</time>
      </trkpt>
      <trkpt lat="45.82211" lon="6.37523">
        <ele>1524.31</ele>
        <time>2018-10-09T11:14:08Z</time>
      </trkpt>
      <trkpt lat="45.82211" lon="6.37525">
        <ele>1524.31</ele>
        <time>2018-10-09T11:14:09Z</time>
      </trkpt>
      <trkpt lat="45.82221" lon="6.37537">
        <ele>1527.67</ele>
        <time>2018-10-09T11:14:19Z</time>
      </trkpt>
      <trkpt lat="45.82225" lon="6.37539">
        <ele>1528.63</ele>
        <time>2018-10-09T11:14:22Z</time>
      </trkpt>
      <trkpt lat="45.82226" lon="6.3754">
        <ele>1529.11</ele>
        <time>2018-10-09T11:14:23Z</time>
      </trkpt>
      <trkpt lat="45.82227" lon="6.37541">
        <ele>1529.59</ele>
        <time>2018-10-09T11:14:24Z</time>
      </trkpt>
      <trkpt lat="45.82228" lon="6.37542">
        <ele>1529.59</ele>
        <time>2018-10-09T11:14:25Z</time>
      </trkpt>
      <trkpt lat="45.82229" lon="6.37543">
        <ele>1529.59</ele>
        <time>2018-10-09T11:14:26Z</time>
      </trkpt>
      <trkpt lat="45.82231" lon="6.37544">
        <ele>1530.08</ele>
        <time>2018-10-09T11:14:27Z</time>
      </trkpt>
      <trkpt lat="45.82231" lon="6.37544">
        <ele>1530.56</ele>
        <time>2018-10-09T11:14:28Z</time>
      </trkpt>
      <trkpt lat="45.82233" lon="6.37545">
        <ele>1530.56</ele>
        <time>2018-10-09T11:14:29Z</time>
      </trkpt>
      <trkpt lat="45.82244" lon="6.37555">
        <ele>1533.92</ele>
        <time>2018-10-09T11:14:39Z</time>
      </trkpt>
      <trkpt lat="45.82246" lon="6.37557">
        <ele>1534.4</ele>
        <time>2018-10-09T11:14:41Z</time>
      </trkpt>
      <trkpt lat="45.82246" lon="6.37558">
        <ele>1534.4</ele>
        <time>2018-10-09T11:14:42Z</time>
      </trkpt>
      <trkpt lat="45.82247" lon="6.37559">
        <ele>1534.88</ele>
        <time>2018-10-09T11:14:43Z</time>
      </trkpt>
      <trkpt lat="45.82253" lon="6.37569">
        <ele>1537.77</ele>
        <time>2018-10-09T11:14:53Z</time>
      </trkpt>
      <trkpt lat="45.82261" lon="6.37581">
        <ele>1540.65</ele>
        <time>2018-10-09T11:15:06Z</time>
      </trkpt>
      <trkpt lat="45.82267" lon="6.37592">
        <ele>1544.01</ele>
        <time>2018-10-09T11:15:18Z</time>
      </trkpt>
      <trkpt lat="45.82271" lon="6.3761">
        <ele>1547.38</ele>
        <time>2018-10-09T11:15:32Z</time>
      </trkpt>
      <trkpt lat="45.82271" lon="6.37616">
        <ele>1547.86</ele>
        <time>2018-10-09T11:15:36Z</time>
      </trkpt>
      <trkpt lat="45.82272" lon="6.37618">
        <ele>1548.34</ele>
        <time>2018-10-09T11:15:37Z</time>
      </trkpt>
      <trkpt lat="45.82282" lon="6.37645">
        <ele>1551.22</ele>
        <time>2018-10-09T11:15:52Z</time>
      </trkpt>
      <trkpt lat="45.82288" lon="6.37665">
        <ele>1554.11</ele>
        <time>2018-10-09T11:16:00Z</time>
      </trkpt>
      <trkpt lat="45.8229" lon="6.37689">
        <ele>1556.99</ele>
        <time>2018-10-09T11:16:10Z</time>
      </trkpt>
      <trkpt lat="45.82291" lon="6.37693">
        <ele>1557.47</ele>
        <time>2018-10-09T11:16:12Z</time>
      </trkpt>
      <trkpt lat="45.82292" lon="6.37694">
        <ele>1557.95</ele>
        <time>2018-10-09T11:16:13Z</time>
      </trkpt>
      <trkpt lat="45.82293" lon="6.37693">
        <ele>1558.43</ele>
        <time>2018-10-09T11:16:15Z</time>
      </trkpt>
      <trkpt lat="45.82294" lon="6.37692">
        <ele>1558.92</ele>
        <time>2018-10-09T11:16:16Z</time>
      </trkpt>
      <trkpt lat="45.82294" lon="6.37691">
        <ele>1559.4</ele>
        <time>2018-10-09T11:16:17Z</time>
      </trkpt>
      <trkpt lat="45.82295" lon="6.37689">
        <ele>1559.4</ele>
        <time>2018-10-09T11:16:18Z</time>
      </trkpt>
      <trkpt lat="45.82297" lon="6.37687">
        <ele>1559.4</ele>
        <time>2018-10-09T11:16:19Z</time>
      </trkpt>
      <trkpt lat="45.82309" lon="6.3767">
        <ele>1562.76</ele>
        <time>2018-10-09T11:16:31Z</time>
      </trkpt>
      <trkpt lat="45.82323" lon="6.3766">
        <ele>1565.64</ele>
        <time>2018-10-09T11:16:42Z</time>
      </trkpt>
      <trkpt lat="45.82327" lon="6.37658">
        <ele>1566.61</ele>
        <time>2018-10-09T11:16:45Z</time>
      </trkpt>
      <trkpt lat="45.82329" lon="6.37658">
        <ele>1566.61</ele>
        <time>2018-10-09T11:16:46Z</time>
      </trkpt>
      <trkpt lat="45.8233" lon="6.37657">
        <ele>1567.09</ele>
        <time>2018-10-09T11:16:47Z</time>
      </trkpt>
      <trkpt lat="45.82331" lon="6.37658">
        <ele>1567.09</ele>
        <time>2018-10-09T11:16:48Z</time>
      </trkpt>
      <trkpt lat="45.82333" lon="6.37658">
        <ele>1567.57</ele>
        <time>2018-10-09T11:16:49Z</time>
      </trkpt>
      <trkpt lat="45.82334" lon="6.3766">
        <ele>1567.57</ele>
        <time>2018-10-09T11:16:50Z</time>
      </trkpt>
      <trkpt lat="45.82335" lon="6.37662">
        <ele>1568.05</ele>
        <time>2018-10-09T11:16:51Z</time>
      </trkpt>
      <trkpt lat="45.82336" lon="6.37664">
        <ele>1568.53</ele>
        <time>2018-10-09T11:16:52Z</time>
      </trkpt>
      <trkpt lat="45.82336" lon="6.37668">
        <ele>1569.01</ele>
        <time>2018-10-09T11:16:53Z</time>
      </trkpt>
      <trkpt lat="45.82335" lon="6.3767">
        <ele>1569.01</ele>
        <time>2018-10-09T11:16:54Z</time>
      </trkpt>
      <trkpt lat="45.82335" lon="6.37671">
        <ele>1569.49</ele>
        <time>2018-10-09T11:16:55Z</time>
      </trkpt>
      <trkpt lat="45.82334" lon="6.37675">
        <ele>1569.49</ele>
        <time>2018-10-09T11:16:57Z</time>
      </trkpt>
      <trkpt lat="45.82332" lon="6.37683">
        <ele>1571.41</ele>
        <time>2018-10-09T11:17:02Z</time>
      </trkpt>
      <trkpt lat="45.82331" lon="6.37684">
        <ele>1571.41</ele>
        <time>2018-10-09T11:17:03Z</time>
      </trkpt>
      <trkpt lat="45.8233" lon="6.37685">
        <ele>1571.41</ele>
        <time>2018-10-09T11:17:04Z</time>
      </trkpt>
      <trkpt lat="45.82329" lon="6.3769">
        <ele>1572.37</ele>
        <time>2018-10-09T11:17:08Z</time>
      </trkpt>
      <trkpt lat="45.82328" lon="6.37707">
        <ele>1575.74</ele>
        <time>2018-10-09T11:17:22Z</time>
      </trkpt>
      <trkpt lat="45.8233" lon="6.37726">
        <ele>1578.62</ele>
        <time>2018-10-09T11:17:36Z</time>
      </trkpt>
      <trkpt lat="45.82331" lon="6.37741">
        <ele>1581.99</ele>
        <time>2018-10-09T11:17:48Z</time>
      </trkpt>
      <trkpt lat="45.82341" lon="6.37756">
        <ele>1584.87</ele>
        <time>2018-10-09T11:18:02Z</time>
      </trkpt>
      <trkpt lat="45.82342" lon="6.37757">
        <ele>1584.87</ele>
        <time>2018-10-09T11:18:03Z</time>
      </trkpt>
      <trkpt lat="45.82343" lon="6.37758">
        <ele>1585.35</ele>
        <time>2018-10-09T11:18:04Z</time>
      </trkpt>
      <trkpt lat="45.82344" lon="6.37759">
        <ele>1585.83</ele>
        <time>2018-10-09T11:18:05Z</time>
      </trkpt>
      <trkpt lat="45.82356" lon="6.37767">
        <ele>1588.72</ele>
        <time>2018-10-09T11:18:20Z</time>
      </trkpt>
      <trkpt lat="45.82362" lon="6.37775">
        <ele>1591.6</ele>
        <time>2018-10-09T11:18:32Z</time>
      </trkpt>
      <trkpt lat="45.82363" lon="6.37776">
        <ele>1591.6</ele>
        <time>2018-10-09T11:18:33Z</time>
      </trkpt>
      <trkpt lat="45.82371" lon="6.37788">
        <ele>1594</ele>
        <time>2018-10-09T11:18:45Z</time>
      </trkpt>
      <trkpt lat="45.82372" lon="6.37789">
        <ele>1594</ele>
        <time>2018-10-09T11:18:46Z</time>
      </trkpt>
      <trkpt lat="45.82378" lon="6.3781">
        <ele>1597.37</ele>
        <time>2018-10-09T11:19:00Z</time>
      </trkpt>
      <trkpt lat="45.82374" lon="6.37823">
        <ele>1599.29</ele>
        <time>2018-10-09T11:19:09Z</time>
      </trkpt>
      <trkpt lat="45.82374" lon="6.37825">
        <ele>1599.29</ele>
        <time>2018-10-09T11:19:10Z</time>
      </trkpt>
      <trkpt lat="45.82374" lon="6.37826">
        <ele>1599.77</ele>
        <time>2018-10-09T11:19:11Z</time>
      </trkpt>
      <trkpt lat="45.82371" lon="6.37834">
        <ele>1600.25</ele>
        <time>2018-10-09T11:19:16Z</time>
      </trkpt>
      <trkpt lat="45.8237" lon="6.37836">
        <ele>1600.73</ele>
        <time>2018-10-09T11:19:17Z</time>
      </trkpt>
      <trkpt lat="45.82368" lon="6.37844">
        <ele>1602.17</ele>
        <time>2018-10-09T11:19:23Z</time>
      </trkpt>
      <trkpt lat="45.82367" lon="6.37845">
        <ele>1602.17</ele>
        <time>2018-10-09T11:19:24Z</time>
      </trkpt>
      <trkpt lat="45.82366" lon="6.37846">
        <ele>1602.17</ele>
        <time>2018-10-09T11:19:25Z</time>
      </trkpt>
      <trkpt lat="45.82357" lon="6.37855">
        <ele>1604.58</ele>
        <time>2018-10-09T11:19:36Z</time>
      </trkpt>
      <trkpt lat="45.82356" lon="6.37856">
        <ele>1605.06</ele>
        <time>2018-10-09T11:19:37Z</time>
      </trkpt>
      <trkpt lat="45.82353" lon="6.3786">
        <ele>1606.02</ele>
        <time>2018-10-09T11:19:41Z</time>
      </trkpt>
      <trkpt lat="45.82352" lon="6.37861">
        <ele>1606.02</ele>
        <time>2018-10-09T11:19:42Z</time>
      </trkpt>
      <trkpt lat="45.82351" lon="6.37862">
        <ele>1606.5</ele>
        <time>2018-10-09T11:19:43Z</time>
      </trkpt>
      <trkpt lat="45.8235" lon="6.37863">
        <ele>1606.98</ele>
        <time>2018-10-09T11:19:44Z</time>
      </trkpt>
      <trkpt lat="45.82349" lon="6.37866">
        <ele>1607.46</ele>
        <time>2018-10-09T11:19:47Z</time>
      </trkpt>
      <trkpt lat="45.82344" lon="6.37883">
        <ele>1610.83</ele>
        <time>2018-10-09T11:20:00Z</time>
      </trkpt>
      <trkpt lat="45.82345" lon="6.37892">
        <ele>1612.75</ele>
        <time>2018-10-09T11:20:08Z</time>
      </trkpt>
      <trkpt lat="45.82346" lon="6.37892">
        <ele>1612.75</ele>
        <time>2018-10-09T11:20:09Z</time>
      </trkpt>
      <trkpt lat="45.8235" lon="6.37891">
        <ele>1613.71</ele>
        <time>2018-10-09T11:20:13Z</time>
      </trkpt>
      <trkpt lat="45.8235" lon="6.3789">
        <ele>1614.19</ele>
        <time>2018-10-09T11:20:14Z</time>
      </trkpt>
      <trkpt lat="45.82365" lon="6.37884">
        <ele>1617.07</ele>
        <time>2018-10-09T11:20:28Z</time>
      </trkpt>
      <trkpt lat="45.8238" lon="6.37886">
        <ele>1620.44</ele>
        <time>2018-10-09T11:20:41Z</time>
      </trkpt>
      <trkpt lat="45.82395" lon="6.37884">
        <ele>1623.32</ele>
        <time>2018-10-09T11:20:54Z</time>
      </trkpt>
      <trkpt lat="45.82414" lon="6.37885">
        <ele>1626.21</ele>
        <time>2018-10-09T11:21:10Z</time>
      </trkpt>
      <trkpt lat="45.82418" lon="6.37886">
        <ele>1626.69</ele>
        <time>2018-10-09T11:21:13Z</time>
      </trkpt>
      <trkpt lat="45.82419" lon="6.37887">
        <ele>1627.17</ele>
        <time>2018-10-09T11:21:14Z</time>
      </trkpt>
      <trkpt lat="45.82421" lon="6.37886">
        <ele>1627.17</ele>
        <time>2018-10-09T11:21:15Z</time>
      </trkpt>
      <trkpt lat="45.82438" lon="6.37885">
        <ele>1630.05</ele>
        <time>2018-10-09T11:21:30Z</time>
      </trkpt>
      <trkpt lat="45.82452" lon="6.37886">
        <ele>1633.42</ele>
        <time>2018-10-09T11:21:43Z</time>
      </trkpt>
      <trkpt lat="45.82465" lon="6.37885">
        <ele>1636.3</ele>
        <time>2018-10-09T11:21:55Z</time>
      </trkpt>
      <trkpt lat="45.82475" lon="6.37877">
        <ele>1639.19</ele>
        <time>2018-10-09T11:22:07Z</time>
      </trkpt>
      <trkpt lat="45.82488" lon="6.37869">
        <ele>1642.07</ele>
        <time>2018-10-09T11:22:19Z</time>
      </trkpt>
      <trkpt lat="45.82506" lon="6.37861">
        <ele>1645.43</ele>
        <time>2018-10-09T11:22:35Z</time>
      </trkpt>
      <trkpt lat="45.82525" lon="6.37868">
        <ele>1647.36</ele>
        <time>2018-10-09T11:22:46Z</time>
      </trkpt>
      <trkpt lat="45.82544" lon="6.37873">
        <ele>1650.24</ele>
        <time>2018-10-09T11:22:57Z</time>
      </trkpt>
      <trkpt lat="45.82554" lon="6.37872">
        <ele>1651.68</ele>
        <time>2018-10-09T11:23:04Z</time>
      </trkpt>
      <trkpt lat="45.82557" lon="6.37869">
        <ele>1652.16</ele>
        <time>2018-10-09T11:23:46Z</time>
      </trkpt>
      <trkpt lat="45.82557" lon="6.37868">
        <ele>1652.16</ele>
        <time>2018-10-09T11:23:47Z</time>
      </trkpt>
      <trkpt lat="45.82558" lon="6.37867">
        <ele>1652.16</ele>
        <time>2018-10-09T11:23:48Z</time>
      </trkpt>
      <trkpt lat="45.82558" lon="6.37865">
        <ele>1652.16</ele>
        <time>2018-10-09T11:23:49Z</time>
      </trkpt>
      <trkpt lat="45.82559" lon="6.37863">
        <ele>1652.16</ele>
        <time>2018-10-09T11:23:50Z</time>
      </trkpt>
      <trkpt lat="45.8256" lon="6.37862">
        <ele>1652.16</ele>
        <time>2018-10-09T11:23:51Z</time>
      </trkpt>
      <trkpt lat="45.8256" lon="6.3786">
        <ele>1652.16</ele>
        <time>2018-10-09T11:23:52Z</time>
      </trkpt>
      <trkpt lat="45.82561" lon="6.37859">
        <ele>1652.16</ele>
        <time>2018-10-09T11:23:53Z</time>
      </trkpt>
      <trkpt lat="45.82571" lon="6.37834">
        <ele>1650.24</ele>
        <time>2018-10-09T11:24:06Z</time>
      </trkpt>
      <trkpt lat="45.82587" lon="6.37813">
        <ele>1647.84</ele>
        <time>2018-10-09T11:24:14Z</time>
      </trkpt>
      <trkpt lat="45.82599" lon="6.37796">
        <ele>1645.43</ele>
        <time>2018-10-09T11:24:20Z</time>
      </trkpt>
      <trkpt lat="45.82602" lon="6.37795">
        <ele>1644.95</ele>
        <time>2018-10-09T11:24:21Z</time>
      </trkpt>
      <trkpt lat="45.82605" lon="6.37794">
        <ele>1644.47</ele>
        <time>2018-10-09T11:24:22Z</time>
      </trkpt>
      <trkpt lat="45.82608" lon="6.37793">
        <ele>1643.99</ele>
        <time>2018-10-09T11:24:23Z</time>
      </trkpt>
      <trkpt lat="45.82612" lon="6.37793">
        <ele>1643.51</ele>
        <time>2018-10-09T11:24:24Z</time>
      </trkpt>
      <trkpt lat="45.82615" lon="6.37792">
        <ele>1643.03</ele>
        <time>2018-10-09T11:24:25Z</time>
      </trkpt>
      <trkpt lat="45.8263" lon="6.37775">
        <ele>1640.63</ele>
        <time>2018-10-09T11:24:32Z</time>
      </trkpt>
      <trkpt lat="45.82642" lon="6.37753">
        <ele>1638.22</ele>
        <time>2018-10-09T11:24:39Z</time>
      </trkpt>
      <trkpt lat="45.82662" lon="6.37751">
        <ele>1635.34</ele>
        <time>2018-10-09T11:24:46Z</time>
      </trkpt>
      <trkpt lat="45.82677" lon="6.37763">
        <ele>1631.98</ele>
        <time>2018-10-09T11:24:52Z</time>
      </trkpt>
      <trkpt lat="45.82694" lon="6.37766">
        <ele>1629.09</ele>
        <time>2018-10-09T11:24:58Z</time>
      </trkpt>
      <trkpt lat="45.8271" lon="6.37763">
        <ele>1625.73</ele>
        <time>2018-10-09T11:25:03Z</time>
      </trkpt>
      <trkpt lat="45.82727" lon="6.37759">
        <ele>1622.84</ele>
        <time>2018-10-09T11:25:10Z</time>
      </trkpt>
      <trkpt lat="45.82727" lon="6.37755">
        <ele>1621.88</ele>
        <time>2018-10-09T11:25:11Z</time>
      </trkpt>
      <trkpt lat="45.82729" lon="6.37748">
        <ele>1621.4</ele>
        <time>2018-10-09T11:25:13Z</time>
      </trkpt>
      <trkpt lat="45.82731" lon="6.37745">
        <ele>1620.44</ele>
        <time>2018-10-09T11:25:14Z</time>
      </trkpt>
      <trkpt lat="45.82733" lon="6.37744">
        <ele>1619.48</ele>
        <time>2018-10-09T11:25:15Z</time>
      </trkpt>
      <trkpt lat="45.82737" lon="6.37745">
        <ele>1619</ele>
        <time>2018-10-09T11:25:16Z</time>
      </trkpt>
      <trkpt lat="45.82739" lon="6.37747">
        <ele>1618.52</ele>
        <time>2018-10-09T11:25:17Z</time>
      </trkpt>
      <trkpt lat="45.82746" lon="6.37746">
        <ele>1617.07</ele>
        <time>2018-10-09T11:25:20Z</time>
      </trkpt>
      <trkpt lat="45.82746" lon="6.37743">
        <ele>1616.11</ele>
        <time>2018-10-09T11:25:21Z</time>
      </trkpt>
      <trkpt lat="45.82745" lon="6.3774">
        <ele>1615.15</ele>
        <time>2018-10-09T11:25:22Z</time>
      </trkpt>
      <trkpt lat="45.82743" lon="6.37731">
        <ele>1613.71</ele>
        <time>2018-10-09T11:25:24Z</time>
      </trkpt>
      <trkpt lat="45.82744" lon="6.37727">
        <ele>1613.23</ele>
        <time>2018-10-09T11:25:25Z</time>
      </trkpt>
      <trkpt lat="45.82746" lon="6.37725">
        <ele>1612.75</ele>
        <time>2018-10-09T11:25:26Z</time>
      </trkpt>
      <trkpt lat="45.82748" lon="6.37725">
        <ele>1611.79</ele>
        <time>2018-10-09T11:25:27Z</time>
      </trkpt>
      <trkpt lat="45.82751" lon="6.37727">
        <ele>1611.31</ele>
        <time>2018-10-09T11:25:28Z</time>
      </trkpt>
      <trkpt lat="45.82753" lon="6.37729">
        <ele>1610.83</ele>
        <time>2018-10-09T11:25:29Z</time>
      </trkpt>
      <trkpt lat="45.82755" lon="6.37731">
        <ele>1609.86</ele>
        <time>2018-10-09T11:25:30Z</time>
      </trkpt>
      <trkpt lat="45.82759" lon="6.37732">
        <ele>1609.38</ele>
        <time>2018-10-09T11:25:32Z</time>
      </trkpt>
      <trkpt lat="45.82761" lon="6.3773">
        <ele>1608.9</ele>
        <time>2018-10-09T11:25:33Z</time>
      </trkpt>
      <trkpt lat="45.82763" lon="6.37728">
        <ele>1608.42</ele>
        <time>2018-10-09T11:25:34Z</time>
      </trkpt>
      <trkpt lat="45.82763" lon="6.37724">
        <ele>1607.94</ele>
        <time>2018-10-09T11:25:35Z</time>
      </trkpt>
      <trkpt lat="45.82762" lon="6.3772">
        <ele>1607.46</ele>
        <time>2018-10-09T11:25:36Z</time>
      </trkpt>
      <trkpt lat="45.82761" lon="6.37717">
        <ele>1606.98</ele>
        <time>2018-10-09T11:25:37Z</time>
      </trkpt>
      <trkpt lat="45.8276" lon="6.37706">
        <ele>1605.54</ele>
        <time>2018-10-09T11:25:40Z</time>
      </trkpt>
      <trkpt lat="45.82762" lon="6.37704">
        <ele>1605.06</ele>
        <time>2018-10-09T11:25:41Z</time>
      </trkpt>
      <trkpt lat="45.82764" lon="6.37702">
        <ele>1604.58</ele>
        <time>2018-10-09T11:25:42Z</time>
      </trkpt>
      <trkpt lat="45.82767" lon="6.37702">
        <ele>1604.1</ele>
        <time>2018-10-09T11:25:43Z</time>
      </trkpt>
      <trkpt lat="45.8277" lon="6.37702">
        <ele>1603.62</ele>
        <time>2018-10-09T11:25:44Z</time>
      </trkpt>
      <trkpt lat="45.82783" lon="6.37702">
        <ele>1601.69</ele>
        <time>2018-10-09T11:25:48Z</time>
      </trkpt>
      <trkpt lat="45.82801" lon="6.37685">
        <ele>1598.33</ele>
        <time>2018-10-09T11:25:55Z</time>
      </trkpt>
      <trkpt lat="45.82804" lon="6.37684">
        <ele>1598.33</ele>
        <time>2018-10-09T11:25:56Z</time>
      </trkpt>
      <trkpt lat="45.82807" lon="6.37684">
        <ele>1597.85</ele>
        <time>2018-10-09T11:25:57Z</time>
      </trkpt>
      <trkpt lat="45.8281" lon="6.37686">
        <ele>1597.37</ele>
        <time>2018-10-09T11:25:58Z</time>
      </trkpt>
      <trkpt lat="45.82812" lon="6.37689">
        <ele>1596.89</ele>
        <time>2018-10-09T11:25:59Z</time>
      </trkpt>
      <trkpt lat="45.82814" lon="6.37694">
        <ele>1596.41</ele>
        <time>2018-10-09T11:26:00Z</time>
      </trkpt>
      <trkpt lat="45.82815" lon="6.37698">
        <ele>1595.93</ele>
        <time>2018-10-09T11:26:01Z</time>
      </trkpt>
      <trkpt lat="45.82817" lon="6.37702">
        <ele>1595.45</ele>
        <time>2018-10-09T11:26:02Z</time>
      </trkpt>
      <trkpt lat="45.82837" lon="6.37715">
        <ele>1593.04</ele>
        <time>2018-10-09T11:26:10Z</time>
      </trkpt>
      <trkpt lat="45.82852" lon="6.37715">
        <ele>1590.16</ele>
        <time>2018-10-09T11:26:15Z</time>
      </trkpt>
      <trkpt lat="45.82872" lon="6.37716">
        <ele>1586.31</ele>
        <time>2018-10-09T11:26:21Z</time>
      </trkpt>
      <trkpt lat="45.82883" lon="6.37703">
        <ele>1583.43</ele>
        <time>2018-10-09T11:26:27Z</time>
      </trkpt>
      <trkpt lat="45.8289" lon="6.37679">
        <ele>1580.06</ele>
        <time>2018-10-09T11:26:35Z</time>
      </trkpt>
      <trkpt lat="45.82895" lon="6.37676">
        <ele>1579.1</ele>
        <time>2018-10-09T11:26:39Z</time>
      </trkpt>
      <trkpt lat="45.82896" lon="6.37676">
        <ele>1579.1</ele>
        <time>2018-10-09T11:26:40Z</time>
      </trkpt>
      <trkpt lat="45.82908" lon="6.37677">
        <ele>1576.7</ele>
        <time>2018-10-09T11:27:19Z</time>
      </trkpt>
      <trkpt lat="45.82911" lon="6.3768">
        <ele>1576.22</ele>
        <time>2018-10-09T11:27:28Z</time>
      </trkpt>
      <trkpt lat="45.82922" lon="6.37687">
        <ele>1574.78</ele>
        <time>2018-10-09T11:27:43Z</time>
      </trkpt>
      <trkpt lat="45.82922" lon="6.37689">
        <ele>1574.78</ele>
        <time>2018-10-09T11:27:44Z</time>
      </trkpt>
      <trkpt lat="45.82923" lon="6.37691">
        <ele>1574.78</ele>
        <time>2018-10-09T11:27:45Z</time>
      </trkpt>
      <trkpt lat="45.82923" lon="6.37693">
        <ele>1574.78</ele>
        <time>2018-10-09T11:27:46Z</time>
      </trkpt>
      <trkpt lat="45.82925" lon="6.37697">
        <ele>1574.3</ele>
        <time>2018-10-09T11:27:47Z</time>
      </trkpt>
      <trkpt lat="45.82926" lon="6.37701">
        <ele>1573.82</ele>
        <time>2018-10-09T11:27:48Z</time>
      </trkpt>
      <trkpt lat="45.82926" lon="6.37725">
        <ele>1570.45</ele>
        <time>2018-10-09T11:27:54Z</time>
      </trkpt>
      <trkpt lat="45.82923" lon="6.37745">
        <ele>1568.05</ele>
        <time>2018-10-09T11:27:59Z</time>
      </trkpt>
      <trkpt lat="45.82924" lon="6.37749">
        <ele>1567.57</ele>
        <time>2018-10-09T11:28:00Z</time>
      </trkpt>
      <trkpt lat="45.82926" lon="6.37751">
        <ele>1567.09</ele>
        <time>2018-10-09T11:28:01Z</time>
      </trkpt>
      <trkpt lat="45.82929" lon="6.37749">
        <ele>1566.61</ele>
        <time>2018-10-09T11:28:02Z</time>
      </trkpt>
      <trkpt lat="45.82932" lon="6.37747">
        <ele>1565.64</ele>
        <time>2018-10-09T11:28:03Z</time>
      </trkpt>
      <trkpt lat="45.82935" lon="6.37744">
        <ele>1565.16</ele>
        <time>2018-10-09T11:28:04Z</time>
      </trkpt>
      <trkpt lat="45.82938" lon="6.37742">
        <ele>1564.68</ele>
        <time>2018-10-09T11:28:05Z</time>
      </trkpt>
      <trkpt lat="45.82957" lon="6.37733">
        <ele>1561.32</ele>
        <time>2018-10-09T11:28:12Z</time>
      </trkpt>
      <trkpt lat="45.8298" lon="6.37734">
        <ele>1558.43</ele>
        <time>2018-10-09T11:28:19Z</time>
      </trkpt>
      <trkpt lat="45.82983" lon="6.37733">
        <ele>1557.95</ele>
        <time>2018-10-09T11:28:20Z</time>
      </trkpt>
      <trkpt lat="45.82999" lon="6.37716">
        <ele>1554.59</ele>
        <time>2018-10-09T11:28:27Z</time>
      </trkpt>
      <trkpt lat="45.83005" lon="6.37691">
        <ele>1552.19</ele>
        <time>2018-10-09T11:28:34Z</time>
      </trkpt>
      <trkpt lat="45.83023" lon="6.3768">
        <ele>1550.26</ele>
        <time>2018-10-09T11:28:40Z</time>
      </trkpt>
      <trkpt lat="45.83042" lon="6.37688">
        <ele>1548.34</ele>
        <time>2018-10-09T11:28:46Z</time>
      </trkpt>
      <trkpt lat="45.8306" lon="6.37703">
        <ele>1547.86</ele>
        <time>2018-10-09T11:28:52Z</time>
      </trkpt>
      <trkpt lat="45.83078" lon="6.37721">
        <ele>1547.38</ele>
        <time>2018-10-09T11:28:59Z</time>
      </trkpt>
      <trkpt lat="45.83095" lon="6.37738">
        <ele>1547.38</ele>
        <time>2018-10-09T11:29:06Z</time>
      </trkpt>
      <trkpt lat="45.83109" lon="6.37764">
        <ele>1545.94</ele>
        <time>2018-10-09T11:29:13Z</time>
      </trkpt>
      <trkpt lat="45.83113" lon="6.37775">
        <ele>1545.46</ele>
        <time>2018-10-09T11:29:16Z</time>
      </trkpt>
      <trkpt lat="45.83116" lon="6.37777">
        <ele>1545.46</ele>
        <time>2018-10-09T11:29:17Z</time>
      </trkpt>
      <trkpt lat="45.83118" lon="6.37778">
        <ele>1545.46</ele>
        <time>2018-10-09T11:29:18Z</time>
      </trkpt>
      <trkpt lat="45.83121" lon="6.37779">
        <ele>1545.46</ele>
        <time>2018-10-09T11:29:19Z</time>
      </trkpt>
      <trkpt lat="45.83124" lon="6.3778">
        <ele>1545.46</ele>
        <time>2018-10-09T11:29:20Z</time>
      </trkpt>
      <trkpt lat="45.83127" lon="6.3778">
        <ele>1545.94</ele>
        <time>2018-10-09T11:29:21Z</time>
      </trkpt>
      <trkpt lat="45.83148" lon="6.37789">
        <ele>1544.01</ele>
        <time>2018-10-09T11:29:28Z</time>
      </trkpt>
      <trkpt lat="45.83164" lon="6.37808">
        <ele>1540.17</ele>
        <time>2018-10-09T11:29:34Z</time>
      </trkpt>
      <trkpt lat="45.83184" lon="6.37822">
        <ele>1537.77</ele>
        <time>2018-10-09T11:29:41Z</time>
      </trkpt>
      <trkpt lat="45.83207" lon="6.37825">
        <ele>1534.88</ele>
        <time>2018-10-09T11:29:48Z</time>
      </trkpt>
      <trkpt lat="45.83227" lon="6.37816">
        <ele>1532</ele>
        <time>2018-10-09T11:29:53Z</time>
      </trkpt>
      <trkpt lat="45.83231" lon="6.37816">
        <ele>1531.04</ele>
        <time>2018-10-09T11:29:54Z</time>
      </trkpt>
      <trkpt lat="45.83251" lon="6.37828">
        <ele>1528.63</ele>
        <time>2018-10-09T11:30:00Z</time>
      </trkpt>
      <trkpt lat="45.83257" lon="6.37833">
        <ele>1527.67</ele>
        <time>2018-10-09T11:30:02Z</time>
      </trkpt>
      <trkpt lat="45.83274" lon="6.37849">
        <ele>1524.79</ele>
        <time>2018-10-09T11:30:08Z</time>
      </trkpt>
      <trkpt lat="45.8329" lon="6.37864">
        <ele>1522.39</ele>
        <time>2018-10-09T11:30:14Z</time>
      </trkpt>
      <trkpt lat="45.83309" lon="6.37875">
        <ele>1519.98</ele>
        <time>2018-10-09T11:30:20Z</time>
      </trkpt>
      <trkpt lat="45.8333" lon="6.37884">
        <ele>1516.62</ele>
        <time>2018-10-09T11:30:26Z</time>
      </trkpt>
      <trkpt lat="45.83349" lon="6.37896">
        <ele>1515.18</ele>
        <time>2018-10-09T11:30:32Z</time>
      </trkpt>
      <trkpt lat="45.83372" lon="6.37894">
        <ele>1514.21</ele>
        <time>2018-10-09T11:30:39Z</time>
      </trkpt>
      <trkpt lat="45.83379" lon="6.37893">
        <ele>1513.25</ele>
        <time>2018-10-09T11:30:41Z</time>
      </trkpt>
      <trkpt lat="45.83384" lon="6.37892">
        <ele>1512.77</ele>
        <time>2018-10-09T11:30:42Z</time>
      </trkpt>
      <trkpt lat="45.83388" lon="6.37892">
        <ele>1512.29</ele>
        <time>2018-10-09T11:30:43Z</time>
      </trkpt>
      <trkpt lat="45.83391" lon="6.37893">
        <ele>1511.81</ele>
        <time>2018-10-09T11:30:44Z</time>
      </trkpt>
      <trkpt lat="45.83394" lon="6.37896">
        <ele>1511.81</ele>
        <time>2018-10-09T11:30:45Z</time>
      </trkpt>
      <trkpt lat="45.83397" lon="6.37898">
        <ele>1511.81</ele>
        <time>2018-10-09T11:30:46Z</time>
      </trkpt>
      <trkpt lat="45.834" lon="6.37901">
        <ele>1511.33</ele>
        <time>2018-10-09T11:30:47Z</time>
      </trkpt>
      <trkpt lat="45.83403" lon="6.37903">
        <ele>1511.33</ele>
        <time>2018-10-09T11:30:48Z</time>
      </trkpt>
      <trkpt lat="45.8342" lon="6.37918">
        <ele>1510.37</ele>
        <time>2018-10-09T11:30:54Z</time>
      </trkpt>
      <trkpt lat="45.8344" lon="6.37929">
        <ele>1507.48</ele>
        <time>2018-10-09T11:31:01Z</time>
      </trkpt>
      <trkpt lat="45.83452" lon="6.37949">
        <ele>1505.56</ele>
        <time>2018-10-09T11:31:08Z</time>
      </trkpt>
      <trkpt lat="45.8346" lon="6.37976">
        <ele>1504.6</ele>
        <time>2018-10-09T11:31:14Z</time>
      </trkpt>
      <trkpt lat="45.8347" lon="6.38001">
        <ele>1503.16</ele>
        <time>2018-10-09T11:31:20Z</time>
      </trkpt>
      <trkpt lat="45.83484" lon="6.38022">
        <ele>1501.24</ele>
        <time>2018-10-09T11:31:26Z</time>
      </trkpt>
      <trkpt lat="45.83503" lon="6.38037">
        <ele>1498.83</ele>
        <time>2018-10-09T11:31:33Z</time>
      </trkpt>
      <trkpt lat="45.83524" lon="6.38038">
        <ele>1497.39</ele>
        <time>2018-10-09T11:31:39Z</time>
      </trkpt>
      <trkpt lat="45.83545" lon="6.3803">
        <ele>1495.95</ele>
        <time>2018-10-09T11:31:45Z</time>
      </trkpt>
      <trkpt lat="45.83566" lon="6.38026">
        <ele>1493.06</ele>
        <time>2018-10-09T11:31:51Z</time>
      </trkpt>
      <trkpt lat="45.83585" lon="6.38017">
        <ele>1490.66</ele>
        <time>2018-10-09T11:31:57Z</time>
      </trkpt>
      <trkpt lat="45.83605" lon="6.38009">
        <ele>1488.26</ele>
        <time>2018-10-09T11:32:03Z</time>
      </trkpt>
      <trkpt lat="45.83626" lon="6.38016">
        <ele>1485.37</ele>
        <time>2018-10-09T11:32:09Z</time>
      </trkpt>
      <trkpt lat="45.8364" lon="6.38037">
        <ele>1482.97</ele>
        <time>2018-10-09T11:32:15Z</time>
      </trkpt>
      <trkpt lat="45.83652" lon="6.38061">
        <ele>1481.05</ele>
        <time>2018-10-09T11:32:21Z</time>
      </trkpt>
      <trkpt lat="45.83657" lon="6.38092">
        <ele>1478.65</ele>
        <time>2018-10-09T11:32:28Z</time>
      </trkpt>
      <trkpt lat="45.83665" lon="6.38112">
        <ele>1475.76</ele>
        <time>2018-10-09T11:32:33Z</time>
      </trkpt>
      <trkpt lat="45.83668" lon="6.38113">
        <ele>1475.28</ele>
        <time>2018-10-09T11:32:34Z</time>
      </trkpt>
      <trkpt lat="45.8367" lon="6.38115">
        <ele>1474.8</ele>
        <time>2018-10-09T11:32:35Z</time>
      </trkpt>
      <trkpt lat="45.83691" lon="6.38115">
        <ele>1471.44</ele>
        <time>2018-10-09T11:32:42Z</time>
      </trkpt>
      <trkpt lat="45.83708" lon="6.38113">
        <ele>1468.07</ele>
        <time>2018-10-09T11:32:48Z</time>
      </trkpt>
      <trkpt lat="45.83726" lon="6.38102">
        <ele>1465.19</ele>
        <time>2018-10-09T11:32:54Z</time>
      </trkpt>
      <trkpt lat="45.83741" lon="6.38093">
        <ele>1461.82</ele>
        <time>2018-10-09T11:32:59Z</time>
      </trkpt>
      <trkpt lat="45.83755" lon="6.38101">
        <ele>1458.46</ele>
        <time>2018-10-09T11:33:04Z</time>
      </trkpt>
      <trkpt lat="45.83763" lon="6.38109">
        <ele>1456.05</ele>
        <time>2018-10-09T11:33:08Z</time>
      </trkpt>
      <trkpt lat="45.83766" lon="6.38108">
        <ele>1455.57</ele>
        <time>2018-10-09T11:33:09Z</time>
      </trkpt>
      <trkpt lat="45.83768" lon="6.38107">
        <ele>1454.61</ele>
        <time>2018-10-09T11:33:10Z</time>
      </trkpt>
      <trkpt lat="45.83771" lon="6.38105">
        <ele>1454.61</ele>
        <time>2018-10-09T11:33:11Z</time>
      </trkpt>
      <trkpt lat="45.83773" lon="6.38104">
        <ele>1453.65</ele>
        <time>2018-10-09T11:33:12Z</time>
      </trkpt>
      <trkpt lat="45.83776" lon="6.38104">
        <ele>1453.17</ele>
        <time>2018-10-09T11:33:13Z</time>
      </trkpt>
      <trkpt lat="45.83779" lon="6.38105">
        <ele>1452.69</ele>
        <time>2018-10-09T11:33:14Z</time>
      </trkpt>
      <trkpt lat="45.83782" lon="6.38106">
        <ele>1452.21</ele>
        <time>2018-10-09T11:33:15Z</time>
      </trkpt>
      <trkpt lat="45.83785" lon="6.38109">
        <ele>1451.25</ele>
        <time>2018-10-09T11:33:16Z</time>
      </trkpt>
      <trkpt lat="45.83786" lon="6.38112">
        <ele>1450.77</ele>
        <time>2018-10-09T11:33:17Z</time>
      </trkpt>
      <trkpt lat="45.83787" lon="6.38115">
        <ele>1450.29</ele>
        <time>2018-10-09T11:33:18Z</time>
      </trkpt>
      <trkpt lat="45.83788" lon="6.38118">
        <ele>1449.81</ele>
        <time>2018-10-09T11:33:19Z</time>
      </trkpt>
      <trkpt lat="45.8379" lon="6.38121">
        <ele>1448.84</ele>
        <time>2018-10-09T11:33:20Z</time>
      </trkpt>
      <trkpt lat="45.83791" lon="6.38123">
        <ele>1448.36</ele>
        <time>2018-10-09T11:33:21Z</time>
      </trkpt>
      <trkpt lat="45.83794" lon="6.38124">
        <ele>1448.36</ele>
        <time>2018-10-09T11:33:22Z</time>
      </trkpt>
      <trkpt lat="45.83797" lon="6.38125">
        <ele>1447.88</ele>
        <time>2018-10-09T11:33:23Z</time>
      </trkpt>
      <trkpt lat="45.83799" lon="6.38125">
        <ele>1447.4</ele>
        <time>2018-10-09T11:33:24Z</time>
      </trkpt>
      <trkpt lat="45.83802" lon="6.38124">
        <ele>1446.44</ele>
        <time>2018-10-09T11:33:25Z</time>
      </trkpt>
      <trkpt lat="45.83805" lon="6.38123">
        <ele>1445.96</ele>
        <time>2018-10-09T11:33:26Z</time>
      </trkpt>
      <trkpt lat="45.83808" lon="6.38121">
        <ele>1445</ele>
        <time>2018-10-09T11:33:27Z</time>
      </trkpt>
      <trkpt lat="45.83819" lon="6.38099">
        <ele>1441.63</ele>
        <time>2018-10-09T11:33:34Z</time>
      </trkpt>
      <trkpt lat="45.83817" lon="6.38076">
        <ele>1438.75</ele>
        <time>2018-10-09T11:33:39Z</time>
      </trkpt>
      <trkpt lat="45.83825" lon="6.38047">
        <ele>1435.39</ele>
        <time>2018-10-09T11:33:45Z</time>
      </trkpt>
      <trkpt lat="45.83837" lon="6.38024">
        <ele>1432.02</ele>
        <time>2018-10-09T11:33:51Z</time>
      </trkpt>
      <trkpt lat="45.83852" lon="6.38007">
        <ele>1428.18</ele>
        <time>2018-10-09T11:33:57Z</time>
      </trkpt>
      <trkpt lat="45.83867" lon="6.37994">
        <ele>1425.29</ele>
        <time>2018-10-09T11:34:03Z</time>
      </trkpt>
      <trkpt lat="45.8387" lon="6.37994">
        <ele>1424.81</ele>
        <time>2018-10-09T11:34:04Z</time>
      </trkpt>
      <trkpt lat="45.83873" lon="6.37995">
        <ele>1424.33</ele>
        <time>2018-10-09T11:34:05Z</time>
      </trkpt>
      <trkpt lat="45.83876" lon="6.37997">
        <ele>1423.37</ele>
        <time>2018-10-09T11:34:06Z</time>
      </trkpt>
      <trkpt lat="45.83878" lon="6.38">
        <ele>1422.41</ele>
        <time>2018-10-09T11:34:07Z</time>
      </trkpt>
      <trkpt lat="45.8388" lon="6.38003">
        <ele>1422.41</ele>
        <time>2018-10-09T11:34:08Z</time>
      </trkpt>
      <trkpt lat="45.83882" lon="6.38007">
        <ele>1421.93</ele>
        <time>2018-10-09T11:34:09Z</time>
      </trkpt>
      <trkpt lat="45.8389" lon="6.38024">
        <ele>1418.56</ele>
        <time>2018-10-09T11:34:14Z</time>
      </trkpt>
      <trkpt lat="45.83894" lon="6.38028">
        <ele>1417.6</ele>
        <time>2018-10-09T11:34:16Z</time>
      </trkpt>
      <trkpt lat="45.83897" lon="6.38028">
        <ele>1417.12</ele>
        <time>2018-10-09T11:34:17Z</time>
      </trkpt>
      <trkpt lat="45.83917" lon="6.38016">
        <ele>1414.24</ele>
        <time>2018-10-09T11:34:24Z</time>
      </trkpt>
      <trkpt lat="45.83931" lon="6.37993">
        <ele>1411.35</ele>
        <time>2018-10-09T11:34:31Z</time>
      </trkpt>
      <trkpt lat="45.83942" lon="6.37968">
        <ele>1407.99</ele>
        <time>2018-10-09T11:34:38Z</time>
      </trkpt>
      <trkpt lat="45.8395" lon="6.37945">
        <ele>1404.62</ele>
        <time>2018-10-09T11:34:44Z</time>
      </trkpt>
      <trkpt lat="45.83962" lon="6.37918">
        <ele>1401.74</ele>
        <time>2018-10-09T11:34:51Z</time>
      </trkpt>
      <trkpt lat="45.83975" lon="6.37892">
        <ele>1397.89</ele>
        <time>2018-10-09T11:34:58Z</time>
      </trkpt>
      <trkpt lat="45.83986" lon="6.37872">
        <ele>1394.53</ele>
        <time>2018-10-09T11:35:04Z</time>
      </trkpt>
      <trkpt lat="45.84002" lon="6.37851">
        <ele>1391.65</ele>
        <time>2018-10-09T11:35:11Z</time>
      </trkpt>
      <trkpt lat="45.84026" lon="6.37831">
        <ele>1388.76</ele>
        <time>2018-10-09T11:35:20Z</time>
      </trkpt>
      <trkpt lat="45.84038" lon="6.37817">
        <ele>1385.88</ele>
        <time>2018-10-09T11:35:25Z</time>
      </trkpt>
      <trkpt lat="45.8405" lon="6.37797">
        <ele>1382.99</ele>
        <time>2018-10-09T11:35:31Z</time>
      </trkpt>
      <trkpt lat="45.84055" lon="6.37792">
        <ele>1382.03</ele>
        <time>2018-10-09T11:35:33Z</time>
      </trkpt>
      <trkpt lat="45.84069" lon="6.37774">
        <ele>1379.15</ele>
        <time>2018-10-09T11:35:39Z</time>
      </trkpt>
      <trkpt lat="45.84081" lon="6.37756">
        <ele>1375.3</ele>
        <time>2018-10-09T11:35:45Z</time>
      </trkpt>
      <trkpt lat="45.84092" lon="6.37732">
        <ele>1371.94</ele>
        <time>2018-10-09T11:35:52Z</time>
      </trkpt>
      <trkpt lat="45.84097" lon="6.37711">
        <ele>1368.57</ele>
        <time>2018-10-09T11:35:58Z</time>
      </trkpt>
      <trkpt lat="45.84105" lon="6.37687">
        <ele>1365.69</ele>
        <time>2018-10-09T11:36:05Z</time>
      </trkpt>
      <trkpt lat="45.84116" lon="6.37687">
        <ele>1363.77</ele>
        <time>2018-10-09T11:36:09Z</time>
      </trkpt>
      <trkpt lat="45.84118" lon="6.3769">
        <ele>1362.81</ele>
        <time>2018-10-09T11:36:10Z</time>
      </trkpt>
      <trkpt lat="45.8412" lon="6.37694">
        <ele>1362.33</ele>
        <time>2018-10-09T11:36:11Z</time>
      </trkpt>
      <trkpt lat="45.84122" lon="6.37698">
        <ele>1361.84</ele>
        <time>2018-10-09T11:36:12Z</time>
      </trkpt>
      <trkpt lat="45.84124" lon="6.37703">
        <ele>1361.36</ele>
        <time>2018-10-09T11:36:13Z</time>
      </trkpt>
      <trkpt lat="45.84125" lon="6.37707">
        <ele>1360.88</ele>
        <time>2018-10-09T11:36:14Z</time>
      </trkpt>
      <trkpt lat="45.84133" lon="6.37733">
        <ele>1358</ele>
        <time>2018-10-09T11:36:20Z</time>
      </trkpt>
      <trkpt lat="45.84143" lon="6.37751">
        <ele>1355.6</ele>
        <time>2018-10-09T11:36:25Z</time>
      </trkpt>
      <trkpt lat="45.84157" lon="6.37775">
        <ele>1353.19</ele>
        <time>2018-10-09T11:36:32Z</time>
      </trkpt>
      <trkpt lat="45.84167" lon="6.37799">
        <ele>1350.79</ele>
        <time>2018-10-09T11:36:38Z</time>
      </trkpt>
      <trkpt lat="45.84174" lon="6.37815">
        <ele>1349.35</ele>
        <time>2018-10-09T11:36:42Z</time>
      </trkpt>
      <trkpt lat="45.84184" lon="6.37842">
        <ele>1346.94</ele>
        <time>2018-10-09T11:36:49Z</time>
      </trkpt>
      <trkpt lat="45.84195" lon="6.37868">
        <ele>1344.06</ele>
        <time>2018-10-09T11:36:56Z</time>
      </trkpt>
      <trkpt lat="45.8421" lon="6.37888">
        <ele>1340.7</ele>
        <time>2018-10-09T11:37:04Z</time>
      </trkpt>
      <trkpt lat="45.84232" lon="6.37882">
        <ele>1337.81</ele>
        <time>2018-10-09T11:37:11Z</time>
      </trkpt>
      <trkpt lat="45.84252" lon="6.37882">
        <ele>1335.89</ele>
        <time>2018-10-09T11:37:18Z</time>
      </trkpt>
      <trkpt lat="45.84269" lon="6.37897">
        <ele>1333.49</ele>
        <time>2018-10-09T11:37:25Z</time>
      </trkpt>
      <trkpt lat="45.84285" lon="6.37915">
        <ele>1330.6</ele>
        <time>2018-10-09T11:37:33Z</time>
      </trkpt>
      <trkpt lat="45.84291" lon="6.37916">
        <ele>1329.64</ele>
        <time>2018-10-09T11:37:35Z</time>
      </trkpt>
      <trkpt lat="45.84294" lon="6.37915">
        <ele>1329.16</ele>
        <time>2018-10-09T11:37:36Z</time>
      </trkpt>
      <trkpt lat="45.84296" lon="6.37913">
        <ele>1329.16</ele>
        <time>2018-10-09T11:37:37Z</time>
      </trkpt>
      <trkpt lat="45.84299" lon="6.3791">
        <ele>1328.68</ele>
        <time>2018-10-09T11:37:38Z</time>
      </trkpt>
      <trkpt lat="45.843" lon="6.37907">
        <ele>1328.2</ele>
        <time>2018-10-09T11:37:39Z</time>
      </trkpt>
      <trkpt lat="45.84301" lon="6.37904">
        <ele>1327.72</ele>
        <time>2018-10-09T11:37:40Z</time>
      </trkpt>
      <trkpt lat="45.84303" lon="6.379">
        <ele>1327.72</ele>
        <time>2018-10-09T11:37:41Z</time>
      </trkpt>
      <trkpt lat="45.84304" lon="6.37896">
        <ele>1327.24</ele>
        <time>2018-10-09T11:37:42Z</time>
      </trkpt>
      <trkpt lat="45.84309" lon="6.37867">
        <ele>1324.83</ele>
        <time>2018-10-09T11:37:49Z</time>
      </trkpt>
      <trkpt lat="45.84314" lon="6.37836">
        <ele>1321.47</ele>
        <time>2018-10-09T11:37:56Z</time>
      </trkpt>
      <trkpt lat="45.84326" lon="6.37814">
        <ele>1319.55</ele>
        <time>2018-10-09T11:38:02Z</time>
      </trkpt>
      <trkpt lat="45.8434" lon="6.3779">
        <ele>1317.14</ele>
        <time>2018-10-09T11:38:09Z</time>
      </trkpt>
      <trkpt lat="45.84354" lon="6.37768">
        <ele>1315.7</ele>
        <time>2018-10-09T11:38:16Z</time>
      </trkpt>
      <trkpt lat="45.84372" lon="6.37749">
        <ele>1313.78</ele>
        <time>2018-10-09T11:38:24Z</time>
      </trkpt>
      <trkpt lat="45.84384" lon="6.37723">
        <ele>1311.38</ele>
        <time>2018-10-09T11:38:32Z</time>
      </trkpt>
      <trkpt lat="45.84383" lon="6.3772">
        <ele>1310.9</ele>
        <time>2018-10-09T11:38:33Z</time>
      </trkpt>
      <trkpt lat="45.84383" lon="6.37716">
        <ele>1310.41</ele>
        <time>2018-10-09T11:38:34Z</time>
      </trkpt>
      <trkpt lat="45.84381" lon="6.37712">
        <ele>1310.41</ele>
        <time>2018-10-09T11:38:35Z</time>
      </trkpt>
      <trkpt lat="45.8438" lon="6.37708">
        <ele>1309.93</ele>
        <time>2018-10-09T11:38:36Z</time>
      </trkpt>
      <trkpt lat="45.84378" lon="6.37704">
        <ele>1309.45</ele>
        <time>2018-10-09T11:38:37Z</time>
      </trkpt>
      <trkpt lat="45.84376" lon="6.377">
        <ele>1308.97</ele>
        <time>2018-10-09T11:38:38Z</time>
      </trkpt>
      <trkpt lat="45.84373" lon="6.37697">
        <ele>1308.49</ele>
        <time>2018-10-09T11:38:39Z</time>
      </trkpt>
      <trkpt lat="45.84371" lon="6.37694">
        <ele>1308.01</ele>
        <time>2018-10-09T11:38:40Z</time>
      </trkpt>
      <trkpt lat="45.84353" lon="6.37685">
        <ele>1305.61</ele>
        <time>2018-10-09T11:38:46Z</time>
      </trkpt>
      <trkpt lat="45.84332" lon="6.37679">
        <ele>1302.72</ele>
        <time>2018-10-09T11:38:53Z</time>
      </trkpt>
      <trkpt lat="45.84314" lon="6.37664">
        <ele>1300.32</ele>
        <time>2018-10-09T11:39:00Z</time>
      </trkpt>
      <trkpt lat="45.84304" lon="6.37643">
        <ele>1297.44</ele>
        <time>2018-10-09T11:39:07Z</time>
      </trkpt>
      <trkpt lat="45.84299" lon="6.37626">
        <ele>1295.03</ele>
        <time>2018-10-09T11:39:11Z</time>
      </trkpt>
      <trkpt lat="45.84288" lon="6.37608">
        <ele>1292.15</ele>
        <time>2018-10-09T11:39:17Z</time>
      </trkpt>
      <trkpt lat="45.84276" lon="6.3759">
        <ele>1288.78</ele>
        <time>2018-10-09T11:39:23Z</time>
      </trkpt>
      <trkpt lat="45.8427" lon="6.37576">
        <ele>1286.38</ele>
        <time>2018-10-09T11:39:27Z</time>
      </trkpt>
      <trkpt lat="45.84264" lon="6.37544">
        <ele>1283.5</ele>
        <time>2018-10-09T11:39:34Z</time>
      </trkpt>
      <trkpt lat="45.84256" lon="6.37515">
        <ele>1280.61</ele>
        <time>2018-10-09T11:39:41Z</time>
      </trkpt>
      <trkpt lat="45.84246" lon="6.37492">
        <ele>1277.25</ele>
        <time>2018-10-09T11:39:48Z</time>
      </trkpt>
      <trkpt lat="45.84236" lon="6.37473">
        <ele>1274.36</ele>
        <time>2018-10-09T11:39:54Z</time>
      </trkpt>
      <trkpt lat="45.84227" lon="6.37451">
        <ele>1271</ele>
        <time>2018-10-09T11:40:00Z</time>
      </trkpt>
      <trkpt lat="45.84221" lon="6.37444">
        <ele>1270.04</ele>
        <time>2018-10-09T11:40:02Z</time>
      </trkpt>
      <trkpt lat="45.84219" lon="6.3744">
        <ele>1269.56</ele>
        <time>2018-10-09T11:40:03Z</time>
      </trkpt>
      <trkpt lat="45.84203" lon="6.37409">
        <ele>1267.64</ele>
        <time>2018-10-09T11:40:10Z</time>
      </trkpt>
      <trkpt lat="45.84191" lon="6.37382">
        <ele>1265.71</ele>
        <time>2018-10-09T11:40:17Z</time>
      </trkpt>
      <trkpt lat="45.8418" lon="6.37357">
        <ele>1263.31</ele>
        <time>2018-10-09T11:40:24Z</time>
      </trkpt>
      <trkpt lat="45.84168" lon="6.37329">
        <ele>1260.43</ele>
        <time>2018-10-09T11:40:31Z</time>
      </trkpt>
      <trkpt lat="45.8416" lon="6.373">
        <ele>1258.5</ele>
        <time>2018-10-09T11:40:38Z</time>
      </trkpt>
      <trkpt lat="45.84155" lon="6.3727">
        <ele>1256.58</ele>
        <time>2018-10-09T11:40:45Z</time>
      </trkpt>
      <trkpt lat="45.84149" lon="6.37241">
        <ele>1254.18</ele>
        <time>2018-10-09T11:40:52Z</time>
      </trkpt>
      <trkpt lat="45.84146" lon="6.37213">
        <ele>1251.29</ele>
        <time>2018-10-09T11:40:59Z</time>
      </trkpt>
      <trkpt lat="45.8415" lon="6.37182">
        <ele>1248.89</ele>
        <time>2018-10-09T11:41:06Z</time>
      </trkpt>
      <trkpt lat="45.84148" lon="6.37152">
        <ele>1246.97</ele>
        <time>2018-10-09T11:41:13Z</time>
      </trkpt>
      <trkpt lat="45.84138" lon="6.37125">
        <ele>1246.01</ele>
        <time>2018-10-09T11:41:20Z</time>
      </trkpt>
      <trkpt lat="45.8413" lon="6.37098">
        <ele>1246.01</ele>
        <time>2018-10-09T11:41:27Z</time>
      </trkpt>
      <trkpt lat="45.8412" lon="6.37071">
        <ele>1245.53</ele>
        <time>2018-10-09T11:41:34Z</time>
      </trkpt>
      <trkpt lat="45.84108" lon="6.37044">
        <ele>1245.04</ele>
        <time>2018-10-09T11:41:41Z</time>
      </trkpt>
      <trkpt lat="45.84098" lon="6.37018">
        <ele>1245.04</ele>
        <time>2018-10-09T11:41:48Z</time>
      </trkpt>
      <trkpt lat="45.84091" lon="6.3699">
        <ele>1245.53</ele>
        <time>2018-10-09T11:41:56Z</time>
      </trkpt>
      <trkpt lat="45.84081" lon="6.36967">
        <ele>1245.53</ele>
        <time>2018-10-09T11:42:04Z</time>
      </trkpt>
      <trkpt lat="45.84068" lon="6.36943">
        <ele>1245.53</ele>
        <time>2018-10-09T11:42:12Z</time>
      </trkpt>
      <trkpt lat="45.84057" lon="6.36916">
        <ele>1246.01</ele>
        <time>2018-10-09T11:42:20Z</time>
      </trkpt>
      <trkpt lat="45.84041" lon="6.369">
        <ele>1244.56</ele>
        <time>2018-10-09T11:42:27Z</time>
      </trkpt>
      <trkpt lat="45.84038" lon="6.36893">
        <ele>1244.08</ele>
        <time>2018-10-09T11:42:29Z</time>
      </trkpt>
      <trkpt lat="45.84038" lon="6.36888">
        <ele>1244.08</ele>
        <time>2018-10-09T11:42:30Z</time>
      </trkpt>
      <trkpt lat="45.84038" lon="6.36858">
        <ele>1243.12</ele>
        <time>2018-10-09T11:42:37Z</time>
      </trkpt>
      <trkpt lat="45.84038" lon="6.36829">
        <ele>1242.16</ele>
        <time>2018-10-09T11:42:44Z</time>
      </trkpt>
      <trkpt lat="45.84038" lon="6.368">
        <ele>1241.2</ele>
        <time>2018-10-09T11:42:52Z</time>
      </trkpt>
      <trkpt lat="45.84033" lon="6.3677">
        <ele>1239.76</ele>
        <time>2018-10-09T11:43:00Z</time>
      </trkpt>
      <trkpt lat="45.84026" lon="6.36738">
        <ele>1238.8</ele>
        <time>2018-10-09T11:43:08Z</time>
      </trkpt>
      <trkpt lat="45.8402" lon="6.3672">
        <ele>1238.32</ele>
        <time>2018-10-09T11:43:13Z</time>
      </trkpt>
      <trkpt lat="45.84013" lon="6.36687">
        <ele>1237.83</ele>
        <time>2018-10-09T11:43:22Z</time>
      </trkpt>
      <trkpt lat="45.84019" lon="6.36654">
        <ele>1237.83</ele>
        <time>2018-10-09T11:43:31Z</time>
      </trkpt>
      <trkpt lat="45.84028" lon="6.3662">
        <ele>1240.72</ele>
        <time>2018-10-09T11:43:42Z</time>
      </trkpt>
      <trkpt lat="45.8404" lon="6.36591">
        <ele>1243.12</ele>
        <time>2018-10-09T11:43:53Z</time>
      </trkpt>
      <trkpt lat="45.84053" lon="6.36563">
        <ele>1244.56</ele>
        <time>2018-10-09T11:44:03Z</time>
      </trkpt>
      <trkpt lat="45.84061" lon="6.36528">
        <ele>1246.01</ele>
        <time>2018-10-09T11:44:13Z</time>
      </trkpt>
      <trkpt lat="45.84061" lon="6.36493">
        <ele>1248.41</ele>
        <time>2018-10-09T11:44:23Z</time>
      </trkpt>
      <trkpt lat="45.84057" lon="6.36461">
        <ele>1250.33</ele>
        <time>2018-10-09T11:44:33Z</time>
      </trkpt>
      <trkpt lat="45.84057" lon="6.36455">
        <ele>1250.81</ele>
        <time>2018-10-09T11:44:35Z</time>
      </trkpt>
      <trkpt lat="45.84057" lon="6.36452">
        <ele>1251.29</ele>
        <time>2018-10-09T11:44:36Z</time>
      </trkpt>
      <trkpt lat="45.84052" lon="6.36423">
        <ele>1253.22</ele>
        <time>2018-10-09T11:44:46Z</time>
      </trkpt>
      <trkpt lat="45.84043" lon="6.36395">
        <ele>1255.62</ele>
        <time>2018-10-09T11:44:56Z</time>
      </trkpt>
      <trkpt lat="45.84039" lon="6.36375">
        <ele>1257.54</ele>
        <time>2018-10-09T11:45:03Z</time>
      </trkpt>
      <trkpt lat="45.8404" lon="6.36372">
        <ele>1257.54</ele>
        <time>2018-10-09T11:45:04Z</time>
      </trkpt>
      <trkpt lat="45.8404" lon="6.36369">
        <ele>1258.02</ele>
        <time>2018-10-09T11:45:05Z</time>
      </trkpt>
      <trkpt lat="45.8404" lon="6.3636">
        <ele>1258.02</ele>
        <time>2018-10-09T11:45:08Z</time>
      </trkpt>
      <trkpt lat="45.8404" lon="6.36357">
        <ele>1258.5</ele>
        <time>2018-10-09T11:45:09Z</time>
      </trkpt>
      <trkpt lat="45.84039" lon="6.36354">
        <ele>1258.98</ele>
        <time>2018-10-09T11:45:10Z</time>
      </trkpt>
      <trkpt lat="45.84039" lon="6.36351">
        <ele>1259.46</ele>
        <time>2018-10-09T11:45:11Z</time>
      </trkpt>
      <trkpt lat="45.84039" lon="6.36348">
        <ele>1259.46</ele>
        <time>2018-10-09T11:45:12Z</time>
      </trkpt>
      <trkpt lat="45.84038" lon="6.36345">
        <ele>1259.94</ele>
        <time>2018-10-09T11:45:13Z</time>
      </trkpt>
      <trkpt lat="45.84037" lon="6.36343">
        <ele>1259.94</ele>
        <time>2018-10-09T11:45:14Z</time>
      </trkpt>
      <trkpt lat="45.84037" lon="6.36339">
        <ele>1259.94</ele>
        <time>2018-10-09T11:45:15Z</time>
      </trkpt>
      <trkpt lat="45.84037" lon="6.36337">
        <ele>1259.94</ele>
        <time>2018-10-09T11:45:16Z</time>
      </trkpt>
      <trkpt lat="45.84038" lon="6.36334">
        <ele>1260.43</ele>
        <time>2018-10-09T11:45:17Z</time>
      </trkpt>
      <trkpt lat="45.84036" lon="6.3631">
        <ele>1261.87</ele>
        <time>2018-10-09T11:45:25Z</time>
      </trkpt>
      <trkpt lat="45.84036" lon="6.36307">
        <ele>1262.35</ele>
        <time>2018-10-09T11:45:26Z</time>
      </trkpt>
      <trkpt lat="45.84036" lon="6.36304">
        <ele>1262.35</ele>
        <time>2018-10-09T11:45:27Z</time>
      </trkpt>
      <trkpt lat="45.84038" lon="6.36287">
        <ele>1263.31</ele>
        <time>2018-10-09T11:45:33Z</time>
      </trkpt>
      <trkpt lat="45.84038" lon="6.36285">
        <ele>1263.31</ele>
        <time>2018-10-09T11:45:34Z</time>
      </trkpt>
      <trkpt lat="45.84039" lon="6.36282">
        <ele>1263.79</ele>
        <time>2018-10-09T11:45:35Z</time>
      </trkpt>
      <trkpt lat="45.84039" lon="6.3628">
        <ele>1263.79</ele>
        <time>2018-10-09T11:45:36Z</time>
      </trkpt>
      <trkpt lat="45.84039" lon="6.36277">
        <ele>1263.79</ele>
        <time>2018-10-09T11:45:37Z</time>
      </trkpt>
      <trkpt lat="45.84039" lon="6.36275">
        <ele>1264.27</ele>
        <time>2018-10-09T11:45:38Z</time>
      </trkpt>
      <trkpt lat="45.84039" lon="6.36272">
        <ele>1264.75</ele>
        <time>2018-10-09T11:45:39Z</time>
      </trkpt>
      <trkpt lat="45.84039" lon="6.36269">
        <ele>1264.75</ele>
        <time>2018-10-09T11:45:40Z</time>
      </trkpt>
      <trkpt lat="45.8404" lon="6.36255">
        <ele>1265.23</ele>
        <time>2018-10-09T11:45:45Z</time>
      </trkpt>
      <trkpt lat="45.84039" lon="6.36252">
        <ele>1265.71</ele>
        <time>2018-10-09T11:45:46Z</time>
      </trkpt>
      <trkpt lat="45.84039" lon="6.36223">
        <ele>1268.12</ele>
        <time>2018-10-09T11:45:56Z</time>
      </trkpt>
      <trkpt lat="45.84036" lon="6.36205">
        <ele>1269.56</ele>
        <time>2018-10-09T11:46:03Z</time>
      </trkpt>
      <trkpt lat="45.84036" lon="6.36203">
        <ele>1270.04</ele>
        <time>2018-10-09T11:46:04Z</time>
      </trkpt>
      <trkpt lat="45.84036" lon="6.362">
        <ele>1270.04</ele>
        <time>2018-10-09T11:46:05Z</time>
      </trkpt>
      <trkpt lat="45.84035" lon="6.36198">
        <ele>1270.04</ele>
        <time>2018-10-09T11:46:06Z</time>
      </trkpt>
      <trkpt lat="45.84035" lon="6.36196">
        <ele>1270.52</ele>
        <time>2018-10-09T11:46:07Z</time>
      </trkpt>
      <trkpt lat="45.84034" lon="6.36194">
        <ele>1271</ele>
        <time>2018-10-09T11:46:08Z</time>
      </trkpt>
      <trkpt lat="45.84033" lon="6.36192">
        <ele>1271</ele>
        <time>2018-10-09T11:46:09Z</time>
      </trkpt>
      <trkpt lat="45.84032" lon="6.36189">
        <ele>1271</ele>
        <time>2018-10-09T11:46:10Z</time>
      </trkpt>
      <trkpt lat="45.84031" lon="6.36187">
        <ele>1271.48</ele>
        <time>2018-10-09T11:46:11Z</time>
      </trkpt>
      <trkpt lat="45.8403" lon="6.36185">
        <ele>1271.48</ele>
        <time>2018-10-09T11:46:12Z</time>
      </trkpt>
      <trkpt lat="45.8403" lon="6.36183">
        <ele>1271.96</ele>
        <time>2018-10-09T11:46:13Z</time>
      </trkpt>
      <trkpt lat="45.84028" lon="6.36181">
        <ele>1271.96</ele>
        <time>2018-10-09T11:46:14Z</time>
      </trkpt>
      <trkpt lat="45.84027" lon="6.36178">
        <ele>1272.44</ele>
        <time>2018-10-09T11:46:15Z</time>
      </trkpt>
      <trkpt lat="45.84026" lon="6.36176">
        <ele>1272.44</ele>
        <time>2018-10-09T11:46:16Z</time>
      </trkpt>
      <trkpt lat="45.84026" lon="6.36174">
        <ele>1272.92</ele>
        <time>2018-10-09T11:46:17Z</time>
      </trkpt>
      <trkpt lat="45.84025" lon="6.36171">
        <ele>1272.92</ele>
        <time>2018-10-09T11:46:18Z</time>
      </trkpt>
      <trkpt lat="45.84023" lon="6.36169">
        <ele>1273.4</ele>
        <time>2018-10-09T11:46:19Z</time>
      </trkpt>
      <trkpt lat="45.84022" lon="6.36166">
        <ele>1273.4</ele>
        <time>2018-10-09T11:46:20Z</time>
      </trkpt>
      <trkpt lat="45.84021" lon="6.36164">
        <ele>1273.88</ele>
        <time>2018-10-09T11:46:21Z</time>
      </trkpt>
      <trkpt lat="45.8402" lon="6.36162">
        <ele>1274.36</ele>
        <time>2018-10-09T11:46:22Z</time>
      </trkpt>
      <trkpt lat="45.84019" lon="6.3616">
        <ele>1274.36</ele>
        <time>2018-10-09T11:46:23Z</time>
      </trkpt>
      <trkpt lat="45.84018" lon="6.36157">
        <ele>1274.36</ele>
        <time>2018-10-09T11:46:24Z</time>
      </trkpt>
      <trkpt lat="45.84017" lon="6.36154">
        <ele>1274.85</ele>
        <time>2018-10-09T11:46:25Z</time>
      </trkpt>
      <trkpt lat="45.84016" lon="6.36152">
        <ele>1274.85</ele>
        <time>2018-10-09T11:46:26Z</time>
      </trkpt>
      <trkpt lat="45.84014" lon="6.3615">
        <ele>1275.33</ele>
        <time>2018-10-09T11:46:27Z</time>
      </trkpt>
      <trkpt lat="45.84013" lon="6.36148">
        <ele>1275.33</ele>
        <time>2018-10-09T11:46:28Z</time>
      </trkpt>
      <trkpt lat="45.84011" lon="6.36146">
        <ele>1275.81</ele>
        <time>2018-10-09T11:46:29Z</time>
      </trkpt>
      <trkpt lat="45.8401" lon="6.36144">
        <ele>1275.81</ele>
        <time>2018-10-09T11:46:30Z</time>
      </trkpt>
      <trkpt lat="45.84009" lon="6.36142">
        <ele>1276.29</ele>
        <time>2018-10-09T11:46:31Z</time>
      </trkpt>
      <trkpt lat="45.84002" lon="6.36128">
        <ele>1277.25</ele>
        <time>2018-10-09T11:46:37Z</time>
      </trkpt>
      <trkpt lat="45.84002" lon="6.36126">
        <ele>1277.73</ele>
        <time>2018-10-09T11:46:38Z</time>
      </trkpt>
      <trkpt lat="45.84002" lon="6.36123">
        <ele>1277.73</ele>
        <time>2018-10-09T11:46:39Z</time>
      </trkpt>
      <trkpt lat="45.84001" lon="6.3612">
        <ele>1278.21</ele>
        <time>2018-10-09T11:46:40Z</time>
      </trkpt>
      <trkpt lat="45.84001" lon="6.36118">
        <ele>1278.21</ele>
        <time>2018-10-09T11:46:41Z</time>
      </trkpt>
      <trkpt lat="45.83999" lon="6.36091">
        <ele>1281.09</ele>
        <time>2018-10-09T11:46:52Z</time>
      </trkpt>
      <trkpt lat="45.83994" lon="6.36065">
        <ele>1283.98</ele>
        <time>2018-10-09T11:47:03Z</time>
      </trkpt>
      <trkpt lat="45.83987" lon="6.36039">
        <ele>1285.9</ele>
        <time>2018-10-09T11:47:13Z</time>
      </trkpt>
      <trkpt lat="45.83984" lon="6.36015">
        <ele>1288.3</ele>
        <time>2018-10-09T11:47:23Z</time>
      </trkpt>
      <trkpt lat="45.83984" lon="6.36013">
        <ele>1288.3</ele>
        <time>2018-10-09T11:47:24Z</time>
      </trkpt>
      <trkpt lat="45.83983" lon="6.3601">
        <ele>1288.3</ele>
        <time>2018-10-09T11:47:25Z</time>
      </trkpt>
      <trkpt lat="45.83983" lon="6.36008">
        <ele>1288.78</ele>
        <time>2018-10-09T11:47:26Z</time>
      </trkpt>
      <trkpt lat="45.83983" lon="6.36005">
        <ele>1288.78</ele>
        <time>2018-10-09T11:47:27Z</time>
      </trkpt>
      <trkpt lat="45.83984" lon="6.35976">
        <ele>1291.19</ele>
        <time>2018-10-09T11:47:38Z</time>
      </trkpt>
      <trkpt lat="45.83984" lon="6.35967">
        <ele>1292.15</ele>
        <time>2018-10-09T11:47:42Z</time>
      </trkpt>
      <trkpt lat="45.83985" lon="6.35965">
        <ele>1292.63</ele>
        <time>2018-10-09T11:47:43Z</time>
      </trkpt>
      <trkpt lat="45.83985" lon="6.35962">
        <ele>1292.63</ele>
        <time>2018-10-09T11:47:44Z</time>
      </trkpt>
      <trkpt lat="45.83986" lon="6.3596">
        <ele>1292.63</ele>
        <time>2018-10-09T11:47:45Z</time>
      </trkpt>
      <trkpt lat="45.83986" lon="6.35957">
        <ele>1292.63</ele>
        <time>2018-10-09T11:47:46Z</time>
      </trkpt>
      <trkpt lat="45.83986" lon="6.35954">
        <ele>1293.11</ele>
        <time>2018-10-09T11:47:47Z</time>
      </trkpt>
      <trkpt lat="45.83989" lon="6.35926">
        <ele>1295.03</ele>
        <time>2018-10-09T11:47:58Z</time>
      </trkpt>
      <trkpt lat="45.84002" lon="6.35899">
        <ele>1297.44</ele>
        <time>2018-10-09T11:48:10Z</time>
      </trkpt>
      <trkpt lat="45.84013" lon="6.35873">
        <ele>1300.32</ele>
        <time>2018-10-09T11:48:22Z</time>
      </trkpt>
      <trkpt lat="45.84004" lon="6.35849">
        <ele>1302.72</ele>
        <time>2018-10-09T11:48:34Z</time>
      </trkpt>
      <trkpt lat="45.83988" lon="6.35833">
        <ele>1303.2</ele>
        <time>2018-10-09T11:48:48Z</time>
      </trkpt>
      <trkpt lat="45.83979" lon="6.35828">
        <ele>1303.2</ele>
        <time>2018-10-09T11:48:55Z</time>
      </trkpt>
      <trkpt lat="45.83978" lon="6.35828">
        <ele>1303.2</ele>
        <time>2018-10-09T11:48:56Z</time>
      </trkpt>
      <trkpt lat="45.83977" lon="6.35828">
        <ele>1303.2</ele>
        <time>2018-10-09T11:48:57Z</time>
      </trkpt>
      <trkpt lat="45.83975" lon="6.35828">
        <ele>1303.2</ele>
        <time>2018-10-09T11:48:58Z</time>
      </trkpt>
      <trkpt lat="45.83974" lon="6.35828">
        <ele>1303.2</ele>
        <time>2018-10-09T11:48:59Z</time>
      </trkpt>
      <trkpt lat="45.83973" lon="6.35828">
        <ele>1303.2</ele>
        <time>2018-10-09T11:49:00Z</time>
      </trkpt>
      <trkpt lat="45.83972" lon="6.35828">
        <ele>1302.72</ele>
        <time>2018-10-09T11:49:01Z</time>
      </trkpt>
      <trkpt lat="45.83971" lon="6.35829">
        <ele>1302.72</ele>
        <time>2018-10-09T11:49:02Z</time>
      </trkpt>
      <trkpt lat="45.8397" lon="6.35831">
        <ele>1302.72</ele>
        <time>2018-10-09T11:49:03Z</time>
      </trkpt>
      <trkpt lat="45.83964" lon="6.35848">
        <ele>1304.17</ele>
        <time>2018-10-09T11:49:15Z</time>
      </trkpt>
      <trkpt lat="45.83959" lon="6.3585">
        <ele>1305.13</ele>
        <time>2018-10-09T11:49:18Z</time>
      </trkpt>
      <trkpt lat="45.83939" lon="6.35847">
        <ele>1305.61</ele>
        <time>2018-10-09T11:49:31Z</time>
      </trkpt>
      <trkpt lat="45.83921" lon="6.35856">
        <ele>1308.01</ele>
        <time>2018-10-09T11:49:45Z</time>
      </trkpt>
      <trkpt lat="45.8392" lon="6.35857">
        <ele>1308.01</ele>
        <time>2018-10-09T11:49:46Z</time>
      </trkpt>
      <trkpt lat="45.83919" lon="6.35858">
        <ele>1308.49</ele>
        <time>2018-10-09T11:49:47Z</time>
      </trkpt>
      <trkpt lat="45.83904" lon="6.35878">
        <ele>1311.38</ele>
        <time>2018-10-09T11:50:03Z</time>
      </trkpt>
      <trkpt lat="45.83901" lon="6.35883">
        <ele>1312.34</ele>
        <time>2018-10-09T11:50:07Z</time>
      </trkpt>
      <trkpt lat="45.839" lon="6.35886">
        <ele>1312.82</ele>
        <time>2018-10-09T11:50:09Z</time>
      </trkpt>
      <trkpt lat="45.83889" lon="6.35907">
        <ele>1315.7</ele>
        <time>2018-10-09T11:50:24Z</time>
      </trkpt>
      <trkpt lat="45.83888" lon="6.3591">
        <ele>1316.18</ele>
        <time>2018-10-09T11:50:26Z</time>
      </trkpt>
      <trkpt lat="45.83888" lon="6.35911">
        <ele>1316.18</ele>
        <time>2018-10-09T11:50:27Z</time>
      </trkpt>
      <trkpt lat="45.83887" lon="6.35912">
        <ele>1316.66</ele>
        <time>2018-10-09T11:50:28Z</time>
      </trkpt>
      <trkpt lat="45.83887" lon="6.35914">
        <ele>1316.66</ele>
        <time>2018-10-09T11:50:29Z</time>
      </trkpt>
      <trkpt lat="45.83887" lon="6.35916">
        <ele>1316.66</ele>
        <time>2018-10-09T11:50:30Z</time>
      </trkpt>
      <trkpt lat="45.83886" lon="6.35917">
        <ele>1317.14</ele>
        <time>2018-10-09T11:50:31Z</time>
      </trkpt>
      <trkpt lat="45.83886" lon="6.35919">
        <ele>1317.14</ele>
        <time>2018-10-09T11:50:32Z</time>
      </trkpt>
      <trkpt lat="45.83886" lon="6.35921">
        <ele>1317.62</ele>
        <time>2018-10-09T11:50:33Z</time>
      </trkpt>
      <trkpt lat="45.83883" lon="6.35927">
        <ele>1318.59</ele>
        <time>2018-10-09T11:50:38Z</time>
      </trkpt>
      <trkpt lat="45.83882" lon="6.35928">
        <ele>1318.59</ele>
        <time>2018-10-09T11:50:39Z</time>
      </trkpt>
      <trkpt lat="45.83882" lon="6.35929">
        <ele>1319.07</ele>
        <time>2018-10-09T11:50:40Z</time>
      </trkpt>
      <trkpt lat="45.8388" lon="6.35932">
        <ele>1319.55</ele>
        <time>2018-10-09T11:50:42Z</time>
      </trkpt>
      <trkpt lat="45.83879" lon="6.35933">
        <ele>1319.55</ele>
        <time>2018-10-09T11:50:43Z</time>
      </trkpt>
      <trkpt lat="45.83879" lon="6.35934">
        <ele>1320.03</ele>
        <time>2018-10-09T11:50:44Z</time>
      </trkpt>
      <trkpt lat="45.83873" lon="6.35941">
        <ele>1321.47</ele>
        <time>2018-10-09T11:50:49Z</time>
      </trkpt>
      <trkpt lat="45.83872" lon="6.35942">
        <ele>1321.95</ele>
        <time>2018-10-09T11:50:50Z</time>
      </trkpt>
      <trkpt lat="45.8387" lon="6.35943">
        <ele>1322.43</ele>
        <time>2018-10-09T11:50:51Z</time>
      </trkpt>
      <trkpt lat="45.83855" lon="6.35957">
        <ele>1324.83</ele>
        <time>2018-10-09T11:51:02Z</time>
      </trkpt>
      <trkpt lat="45.83854" lon="6.35957">
        <ele>1325.31</ele>
        <time>2018-10-09T11:51:03Z</time>
      </trkpt>
      <trkpt lat="45.83853" lon="6.35957">
        <ele>1325.8</ele>
        <time>2018-10-09T11:51:04Z</time>
      </trkpt>
      <trkpt lat="45.83852" lon="6.35957">
        <ele>1325.8</ele>
        <time>2018-10-09T11:51:05Z</time>
      </trkpt>
      <trkpt lat="45.8385" lon="6.35956">
        <ele>1326.28</ele>
        <time>2018-10-09T11:51:06Z</time>
      </trkpt>
      <trkpt lat="45.83848" lon="6.35956">
        <ele>1326.28</ele>
        <time>2018-10-09T11:51:07Z</time>
      </trkpt>
      <trkpt lat="45.83847" lon="6.35956">
        <ele>1326.76</ele>
        <time>2018-10-09T11:51:08Z</time>
      </trkpt>
      <trkpt lat="45.83846" lon="6.35955">
        <ele>1327.24</ele>
        <time>2018-10-09T11:51:09Z</time>
      </trkpt>
      <trkpt lat="45.83844" lon="6.35955">
        <ele>1327.24</ele>
        <time>2018-10-09T11:51:10Z</time>
      </trkpt>
      <trkpt lat="45.83843" lon="6.35956">
        <ele>1327.24</ele>
        <time>2018-10-09T11:51:11Z</time>
      </trkpt>
      <trkpt lat="45.83842" lon="6.35956">
        <ele>1327.72</ele>
        <time>2018-10-09T11:51:12Z</time>
      </trkpt>
      <trkpt lat="45.83841" lon="6.35956">
        <ele>1327.72</ele>
        <time>2018-10-09T11:51:13Z</time>
      </trkpt>
      <trkpt lat="45.83839" lon="6.35955">
        <ele>1328.2</ele>
        <time>2018-10-09T11:51:14Z</time>
      </trkpt>
      <trkpt lat="45.8382" lon="6.3595">
        <ele>1331.56</ele>
        <time>2018-10-09T11:51:27Z</time>
      </trkpt>
      <trkpt lat="45.83819" lon="6.3595">
        <ele>1331.56</ele>
        <time>2018-10-09T11:51:28Z</time>
      </trkpt>
      <trkpt lat="45.83797" lon="6.35948">
        <ele>1333.97</ele>
        <time>2018-10-09T11:51:42Z</time>
      </trkpt>
      <trkpt lat="45.83793" lon="6.35947">
        <ele>1335.41</ele>
        <time>2018-10-09T11:51:45Z</time>
      </trkpt>
      <trkpt lat="45.83773" lon="6.35949">
        <ele>1338.29</ele>
        <time>2018-10-09T11:51:57Z</time>
      </trkpt>
      <trkpt lat="45.83758" lon="6.35956">
        <ele>1340.22</ele>
        <time>2018-10-09T11:52:07Z</time>
      </trkpt>
      <trkpt lat="45.83734" lon="6.35962">
        <ele>1343.58</ele>
        <time>2018-10-09T11:52:21Z</time>
      </trkpt>
      <trkpt lat="45.83713" lon="6.35959">
        <ele>1346.46</ele>
        <time>2018-10-09T11:52:34Z</time>
      </trkpt>
      <trkpt lat="45.83708" lon="6.35957">
        <ele>1347.43</ele>
        <time>2018-10-09T11:52:37Z</time>
      </trkpt>
      <trkpt lat="45.83706" lon="6.35957">
        <ele>1347.43</ele>
        <time>2018-10-09T11:52:38Z</time>
      </trkpt>
      <trkpt lat="45.83704" lon="6.35957">
        <ele>1347.91</ele>
        <time>2018-10-09T11:52:39Z</time>
      </trkpt>
      <trkpt lat="45.83702" lon="6.35955">
        <ele>1348.39</ele>
        <time>2018-10-09T11:52:40Z</time>
      </trkpt>
      <trkpt lat="45.83701" lon="6.35954">
        <ele>1348.39</ele>
        <time>2018-10-09T11:52:41Z</time>
      </trkpt>
      <trkpt lat="45.83699" lon="6.35954">
        <ele>1348.39</ele>
        <time>2018-10-09T11:52:42Z</time>
      </trkpt>
      <trkpt lat="45.83682" lon="6.35941">
        <ele>1350.79</ele>
        <time>2018-10-09T11:52:55Z</time>
      </trkpt>
      <trkpt lat="45.83664" lon="6.35927">
        <ele>1353.19</ele>
        <time>2018-10-09T11:53:06Z</time>
      </trkpt>
      <trkpt lat="45.83656" lon="6.35923">
        <ele>1354.63</ele>
        <time>2018-10-09T11:53:11Z</time>
      </trkpt>
      <trkpt lat="45.83655" lon="6.35923">
        <ele>1354.63</ele>
        <time>2018-10-09T11:53:12Z</time>
      </trkpt>
      <trkpt lat="45.83654" lon="6.35922">
        <ele>1355.12</ele>
        <time>2018-10-09T11:53:14Z</time>
      </trkpt>
      <trkpt lat="45.83653" lon="6.35921">
        <ele>1355.6</ele>
        <time>2018-10-09T11:53:15Z</time>
      </trkpt>
      <trkpt lat="45.83652" lon="6.3592">
        <ele>1355.6</ele>
        <time>2018-10-09T11:53:16Z</time>
      </trkpt>
      <trkpt lat="45.83642" lon="6.35909">
        <ele>1357.52</ele>
        <time>2018-10-09T11:53:23Z</time>
      </trkpt>
      <trkpt lat="45.83641" lon="6.35907">
        <ele>1357.52</ele>
        <time>2018-10-09T11:53:24Z</time>
      </trkpt>
      <trkpt lat="45.83639" lon="6.35905">
        <ele>1358</ele>
        <time>2018-10-09T11:53:26Z</time>
      </trkpt>
      <trkpt lat="45.83638" lon="6.35904">
        <ele>1358</ele>
        <time>2018-10-09T11:53:27Z</time>
      </trkpt>
      <trkpt lat="45.83637" lon="6.35902">
        <ele>1358.48</ele>
        <time>2018-10-09T11:53:28Z</time>
      </trkpt>
      <trkpt lat="45.83636" lon="6.35901">
        <ele>1358.96</ele>
        <time>2018-10-09T11:53:29Z</time>
      </trkpt>
      <trkpt lat="45.83634" lon="6.359">
        <ele>1358.96</ele>
        <time>2018-10-09T11:53:30Z</time>
      </trkpt>
      <trkpt lat="45.83633" lon="6.35898">
        <ele>1358.96</ele>
        <time>2018-10-09T11:53:31Z</time>
      </trkpt>
      <trkpt lat="45.8363" lon="6.35896">
        <ele>1359.92</ele>
        <time>2018-10-09T11:53:33Z</time>
      </trkpt>
      <trkpt lat="45.83628" lon="6.35894">
        <ele>1360.4</ele>
        <time>2018-10-09T11:53:34Z</time>
      </trkpt>
      <trkpt lat="45.83627" lon="6.35893">
        <ele>1360.4</ele>
        <time>2018-10-09T11:53:35Z</time>
      </trkpt>
      <trkpt lat="45.83625" lon="6.35891">
        <ele>1360.4</ele>
        <time>2018-10-09T11:53:36Z</time>
      </trkpt>
      <trkpt lat="45.83624" lon="6.3589">
        <ele>1360.4</ele>
        <time>2018-10-09T11:53:37Z</time>
      </trkpt>
      <trkpt lat="45.83614" lon="6.35873">
        <ele>1362.81</ele>
        <time>2018-10-09T11:53:46Z</time>
      </trkpt>
      <trkpt lat="45.83613" lon="6.35871">
        <ele>1362.81</ele>
        <time>2018-10-09T11:53:47Z</time>
      </trkpt>
      <trkpt lat="45.83613" lon="6.35868">
        <ele>1362.81</ele>
        <time>2018-10-09T11:53:48Z</time>
      </trkpt>
      <trkpt lat="45.83612" lon="6.35866">
        <ele>1363.29</ele>
        <time>2018-10-09T11:53:49Z</time>
      </trkpt>
      <trkpt lat="45.83611" lon="6.35864">
        <ele>1363.77</ele>
        <time>2018-10-09T11:53:50Z</time>
      </trkpt>
      <trkpt lat="45.8361" lon="6.35861">
        <ele>1363.77</ele>
        <time>2018-10-09T11:53:51Z</time>
      </trkpt>
      <trkpt lat="45.83609" lon="6.35859">
        <ele>1363.77</ele>
        <time>2018-10-09T11:53:52Z</time>
      </trkpt>
      <trkpt lat="45.83609" lon="6.35857">
        <ele>1363.77</ele>
        <time>2018-10-09T11:53:53Z</time>
      </trkpt>
      <trkpt lat="45.836" lon="6.35834">
        <ele>1367.13</ele>
        <time>2018-10-09T11:54:04Z</time>
      </trkpt>
      <trkpt lat="45.83594" lon="6.35824">
        <ele>1368.57</ele>
        <time>2018-10-09T11:54:11Z</time>
      </trkpt>
      <trkpt lat="45.83594" lon="6.35823">
        <ele>1368.57</ele>
        <time>2018-10-09T11:54:12Z</time>
      </trkpt>
      <trkpt lat="45.83594" lon="6.35822">
        <ele>1369.05</ele>
        <time>2018-10-09T11:54:13Z</time>
      </trkpt>
      <trkpt lat="45.83593" lon="6.35821">
        <ele>1369.05</ele>
        <time>2018-10-09T11:54:14Z</time>
      </trkpt>
      <trkpt lat="45.83592" lon="6.3582">
        <ele>1369.54</ele>
        <time>2018-10-09T11:54:15Z</time>
      </trkpt>
      <trkpt lat="45.83592" lon="6.35819">
        <ele>1369.54</ele>
        <time>2018-10-09T11:54:16Z</time>
      </trkpt>
      <trkpt lat="45.8359" lon="6.35819">
        <ele>1370.02</ele>
        <time>2018-10-09T11:54:17Z</time>
      </trkpt>
      <trkpt lat="45.83589" lon="6.35818">
        <ele>1370.02</ele>
        <time>2018-10-09T11:54:18Z</time>
      </trkpt>
      <trkpt lat="45.83588" lon="6.35817">
        <ele>1370.5</ele>
        <time>2018-10-09T11:54:19Z</time>
      </trkpt>
      <trkpt lat="45.83587" lon="6.35816">
        <ele>1370.98</ele>
        <time>2018-10-09T11:54:20Z</time>
      </trkpt>
      <trkpt lat="45.83586" lon="6.35815">
        <ele>1370.98</ele>
        <time>2018-10-09T11:54:21Z</time>
      </trkpt>
      <trkpt lat="45.83581" lon="6.35813">
        <ele>1372.42</ele>
        <time>2018-10-09T11:54:25Z</time>
      </trkpt>
      <trkpt lat="45.8358" lon="6.35812">
        <ele>1372.42</ele>
        <time>2018-10-09T11:54:26Z</time>
      </trkpt>
      <trkpt lat="45.83579" lon="6.35811">
        <ele>1372.9</ele>
        <time>2018-10-09T11:54:27Z</time>
      </trkpt>
      <trkpt lat="45.83577" lon="6.35811">
        <ele>1373.38</ele>
        <time>2018-10-09T11:54:28Z</time>
      </trkpt>
      <trkpt lat="45.83575" lon="6.35811">
        <ele>1373.38</ele>
        <time>2018-10-09T11:54:29Z</time>
      </trkpt>
      <trkpt lat="45.83573" lon="6.3581">
        <ele>1373.38</ele>
        <time>2018-10-09T11:54:30Z</time>
      </trkpt>
      <trkpt lat="45.83571" lon="6.35809">
        <ele>1373.86</ele>
        <time>2018-10-09T11:54:31Z</time>
      </trkpt>
      <trkpt lat="45.83569" lon="6.35808">
        <ele>1374.34</ele>
        <time>2018-10-09T11:54:32Z</time>
      </trkpt>
      <trkpt lat="45.83568" lon="6.35808">
        <ele>1374.34</ele>
        <time>2018-10-09T11:54:33Z</time>
      </trkpt>
      <trkpt lat="45.83559" lon="6.35806">
        <ele>1375.78</ele>
        <time>2018-10-09T11:54:39Z</time>
      </trkpt>
      <trkpt lat="45.83558" lon="6.35806">
        <ele>1375.78</ele>
        <time>2018-10-09T11:54:40Z</time>
      </trkpt>
      <trkpt lat="45.83556" lon="6.35807">
        <ele>1376.26</ele>
        <time>2018-10-09T11:54:41Z</time>
      </trkpt>
      <trkpt lat="45.83555" lon="6.35807">
        <ele>1376.26</ele>
        <time>2018-10-09T11:54:42Z</time>
      </trkpt>
      <trkpt lat="45.83553" lon="6.35808">
        <ele>1376.26</ele>
        <time>2018-10-09T11:54:43Z</time>
      </trkpt>
      <trkpt lat="45.83552" lon="6.35808">
        <ele>1376.75</ele>
        <time>2018-10-09T11:54:44Z</time>
      </trkpt>
      <trkpt lat="45.83551" lon="6.35811">
        <ele>1377.23</ele>
        <time>2018-10-09T11:54:45Z</time>
      </trkpt>
      <trkpt lat="45.8355" lon="6.35812">
        <ele>1377.23</ele>
        <time>2018-10-09T11:54:46Z</time>
      </trkpt>
      <trkpt lat="45.83549" lon="6.35812">
        <ele>1377.23</ele>
        <time>2018-10-09T11:54:47Z</time>
      </trkpt>
      <trkpt lat="45.83548" lon="6.35813">
        <ele>1377.23</ele>
        <time>2018-10-09T11:54:48Z</time>
      </trkpt>
      <trkpt lat="45.83547" lon="6.35813">
        <ele>1377.71</ele>
        <time>2018-10-09T11:54:49Z</time>
      </trkpt>
      <trkpt lat="45.83545" lon="6.35814">
        <ele>1378.19</ele>
        <time>2018-10-09T11:54:51Z</time>
      </trkpt>
      <trkpt lat="45.83544" lon="6.35815">
        <ele>1378.19</ele>
        <time>2018-10-09T11:54:52Z</time>
      </trkpt>
      <trkpt lat="45.83544" lon="6.35817">
        <ele>1378.67</ele>
        <time>2018-10-09T11:54:53Z</time>
      </trkpt>
      <trkpt lat="45.83542" lon="6.35818">
        <ele>1379.15</ele>
        <time>2018-10-09T11:54:55Z</time>
      </trkpt>
      <trkpt lat="45.83541" lon="6.35818">
        <ele>1379.63</ele>
        <time>2018-10-09T11:54:56Z</time>
      </trkpt>
      <trkpt lat="45.8354" lon="6.35819">
        <ele>1379.63</ele>
        <time>2018-10-09T11:54:57Z</time>
      </trkpt>
      <trkpt lat="45.83539" lon="6.3582">
        <ele>1379.63</ele>
        <time>2018-10-09T11:54:58Z</time>
      </trkpt>
      <trkpt lat="45.83538" lon="6.35821">
        <ele>1380.11</ele>
        <time>2018-10-09T11:54:59Z</time>
      </trkpt>
      <trkpt lat="45.83538" lon="6.35824">
        <ele>1380.59</ele>
        <time>2018-10-09T11:55:01Z</time>
      </trkpt>
      <trkpt lat="45.83536" lon="6.35827">
        <ele>1380.59</ele>
        <time>2018-10-09T11:55:04Z</time>
      </trkpt>
      <trkpt lat="45.83524" lon="6.35849">
        <ele>1383.96</ele>
        <time>2018-10-09T11:55:23Z</time>
      </trkpt>
      <trkpt lat="45.83507" lon="6.35866">
        <ele>1387.32</ele>
        <time>2018-10-09T11:55:42Z</time>
      </trkpt>
      <trkpt lat="45.8349" lon="6.35881">
        <ele>1390.2</ele>
        <time>2018-10-09T11:55:59Z</time>
      </trkpt>
      <trkpt lat="45.83474" lon="6.35903">
        <ele>1393.09</ele>
        <time>2018-10-09T11:56:14Z</time>
      </trkpt>
      <trkpt lat="45.83471" lon="6.35908">
        <ele>1393.57</ele>
        <time>2018-10-09T11:56:17Z</time>
      </trkpt>
      <trkpt lat="45.83469" lon="6.35909">
        <ele>1393.57</ele>
        <time>2018-10-09T11:56:18Z</time>
      </trkpt>
      <trkpt lat="45.83462" lon="6.35918">
        <ele>1395.01</ele>
        <time>2018-10-09T11:56:23Z</time>
      </trkpt>
      <trkpt lat="45.83461" lon="6.3592">
        <ele>1395.01</ele>
        <time>2018-10-09T11:56:24Z</time>
      </trkpt>
      <trkpt lat="45.8346" lon="6.35921">
        <ele>1395.49</ele>
        <time>2018-10-09T11:56:25Z</time>
      </trkpt>
      <trkpt lat="45.83447" lon="6.35929">
        <ele>1397.89</ele>
        <time>2018-10-09T11:56:33Z</time>
      </trkpt>
      <trkpt lat="45.83446" lon="6.3593">
        <ele>1397.89</ele>
        <time>2018-10-09T11:56:34Z</time>
      </trkpt>
      <trkpt lat="45.83444" lon="6.3593">
        <ele>1398.37</ele>
        <time>2018-10-09T11:56:35Z</time>
      </trkpt>
      <trkpt lat="45.83443" lon="6.35931">
        <ele>1398.37</ele>
        <time>2018-10-09T11:56:36Z</time>
      </trkpt>
      <trkpt lat="45.83441" lon="6.35932">
        <ele>1398.86</ele>
        <time>2018-10-09T11:56:37Z</time>
      </trkpt>
      <trkpt lat="45.83439" lon="6.35934">
        <ele>1398.86</ele>
        <time>2018-10-09T11:56:38Z</time>
      </trkpt>
      <trkpt lat="45.83426" lon="6.35951">
        <ele>1401.74</ele>
        <time>2018-10-09T11:56:48Z</time>
      </trkpt>
      <trkpt lat="45.83415" lon="6.35966">
        <ele>1404.62</ele>
        <time>2018-10-09T11:57:00Z</time>
      </trkpt>
      <trkpt lat="45.83407" lon="6.3597">
        <ele>1406.55</ele>
        <time>2018-10-09T11:57:06Z</time>
      </trkpt>
      <trkpt lat="45.83406" lon="6.35971">
        <ele>1406.55</ele>
        <time>2018-10-09T11:57:07Z</time>
      </trkpt>
      <trkpt lat="45.83405" lon="6.35972">
        <ele>1407.03</ele>
        <time>2018-10-09T11:57:08Z</time>
      </trkpt>
      <trkpt lat="45.83404" lon="6.35974">
        <ele>1407.03</ele>
        <time>2018-10-09T11:57:09Z</time>
      </trkpt>
      <trkpt lat="45.83403" lon="6.35974">
        <ele>1407.51</ele>
        <time>2018-10-09T11:57:10Z</time>
      </trkpt>
      <trkpt lat="45.83401" lon="6.35974">
        <ele>1407.99</ele>
        <time>2018-10-09T11:57:11Z</time>
      </trkpt>
      <trkpt lat="45.834" lon="6.35974">
        <ele>1407.99</ele>
        <time>2018-10-09T11:57:12Z</time>
      </trkpt>
      <trkpt lat="45.83399" lon="6.35975">
        <ele>1408.47</ele>
        <time>2018-10-09T11:57:13Z</time>
      </trkpt>
      <trkpt lat="45.83397" lon="6.3598">
        <ele>1408.95</ele>
        <time>2018-10-09T11:57:16Z</time>
      </trkpt>
      <trkpt lat="45.83396" lon="6.35981">
        <ele>1409.43</ele>
        <time>2018-10-09T11:57:17Z</time>
      </trkpt>
      <trkpt lat="45.83395" lon="6.35982">
        <ele>1409.43</ele>
        <time>2018-10-09T11:57:18Z</time>
      </trkpt>
      <trkpt lat="45.83393" lon="6.35984">
        <ele>1409.43</ele>
        <time>2018-10-09T11:57:19Z</time>
      </trkpt>
      <trkpt lat="45.83392" lon="6.35985">
        <ele>1409.91</ele>
        <time>2018-10-09T11:57:20Z</time>
      </trkpt>
      <trkpt lat="45.83383" lon="6.35996">
        <ele>1411.83</ele>
        <time>2018-10-09T11:57:29Z</time>
      </trkpt>
      <trkpt lat="45.83382" lon="6.35998">
        <ele>1411.83</ele>
        <time>2018-10-09T11:57:30Z</time>
      </trkpt>
      <trkpt lat="45.83379" lon="6.35999">
        <ele>1412.31</ele>
        <time>2018-10-09T11:57:32Z</time>
      </trkpt>
      <trkpt lat="45.83378" lon="6.35999">
        <ele>1412.79</ele>
        <time>2018-10-09T11:57:33Z</time>
      </trkpt>
      <trkpt lat="45.83377" lon="6.36">
        <ele>1412.79</ele>
        <time>2018-10-09T11:57:34Z</time>
      </trkpt>
      <trkpt lat="45.83375" lon="6.36">
        <ele>1412.79</ele>
        <time>2018-10-09T11:57:35Z</time>
      </trkpt>
      <trkpt lat="45.83373" lon="6.36001">
        <ele>1413.28</ele>
        <time>2018-10-09T11:57:36Z</time>
      </trkpt>
      <trkpt lat="45.83372" lon="6.36001">
        <ele>1413.28</ele>
        <time>2018-10-09T11:57:37Z</time>
      </trkpt>
      <trkpt lat="45.83367" lon="6.36004">
        <ele>1414.24</ele>
        <time>2018-10-09T11:57:41Z</time>
      </trkpt>
      <trkpt lat="45.83365" lon="6.36004">
        <ele>1414.72</ele>
        <time>2018-10-09T11:57:42Z</time>
      </trkpt>
      <trkpt lat="45.83364" lon="6.36005">
        <ele>1415.2</ele>
        <time>2018-10-09T11:57:43Z</time>
      </trkpt>
      <trkpt lat="45.83362" lon="6.36005">
        <ele>1415.2</ele>
        <time>2018-10-09T11:57:44Z</time>
      </trkpt>
      <trkpt lat="45.83362" lon="6.36006">
        <ele>1415.68</ele>
        <time>2018-10-09T11:57:45Z</time>
      </trkpt>
      <trkpt lat="45.8336" lon="6.36006">
        <ele>1415.68</ele>
        <time>2018-10-09T11:57:46Z</time>
      </trkpt>
      <trkpt lat="45.83359" lon="6.36005">
        <ele>1416.16</ele>
        <time>2018-10-09T11:57:47Z</time>
      </trkpt>
      <trkpt lat="45.83358" lon="6.36004">
        <ele>1416.16</ele>
        <time>2018-10-09T11:57:48Z</time>
      </trkpt>
      <trkpt lat="45.83357" lon="6.36003">
        <ele>1416.64</ele>
        <time>2018-10-09T11:57:50Z</time>
      </trkpt>
      <trkpt lat="45.83356" lon="6.36002">
        <ele>1416.64</ele>
        <time>2018-10-09T11:57:51Z</time>
      </trkpt>
      <trkpt lat="45.83353" lon="6.35999">
        <ele>1417.6</ele>
        <time>2018-10-09T11:57:54Z</time>
      </trkpt>
      <trkpt lat="45.83352" lon="6.35997">
        <ele>1418.08</ele>
        <time>2018-10-09T11:57:55Z</time>
      </trkpt>
      <trkpt lat="45.8335" lon="6.35995">
        <ele>1418.08</ele>
        <time>2018-10-09T11:57:56Z</time>
      </trkpt>
      <trkpt lat="45.83349" lon="6.35994">
        <ele>1418.56</ele>
        <time>2018-10-09T11:57:57Z</time>
      </trkpt>
      <trkpt lat="45.83348" lon="6.35992">
        <ele>1418.56</ele>
        <time>2018-10-09T11:57:58Z</time>
      </trkpt>
      <trkpt lat="45.83347" lon="6.3599">
        <ele>1418.56</ele>
        <time>2018-10-09T11:57:59Z</time>
      </trkpt>
      <trkpt lat="45.83345" lon="6.35989">
        <ele>1419.04</ele>
        <time>2018-10-09T11:58:00Z</time>
      </trkpt>
      <trkpt lat="45.83343" lon="6.35987">
        <ele>1419.04</ele>
        <time>2018-10-09T11:58:01Z</time>
      </trkpt>
      <trkpt lat="45.83331" lon="6.35975">
        <ele>1420.97</ele>
        <time>2018-10-09T11:58:10Z</time>
      </trkpt>
      <trkpt lat="45.8333" lon="6.35974">
        <ele>1420.97</ele>
        <time>2018-10-09T11:58:11Z</time>
      </trkpt>
      <trkpt lat="45.83329" lon="6.35973">
        <ele>1421.45</ele>
        <time>2018-10-09T11:58:12Z</time>
      </trkpt>
      <trkpt lat="45.83328" lon="6.35971">
        <ele>1421.45</ele>
        <time>2018-10-09T11:58:13Z</time>
      </trkpt>
      <trkpt lat="45.83326" lon="6.3597">
        <ele>1421.93</ele>
        <time>2018-10-09T11:58:14Z</time>
      </trkpt>
      <trkpt lat="45.83324" lon="6.35969">
        <ele>1421.93</ele>
        <time>2018-10-09T11:58:15Z</time>
      </trkpt>
      <trkpt lat="45.83324" lon="6.35968">
        <ele>1422.41</ele>
        <time>2018-10-09T11:58:16Z</time>
      </trkpt>
      <trkpt lat="45.83323" lon="6.35966">
        <ele>1422.41</ele>
        <time>2018-10-09T11:58:17Z</time>
      </trkpt>
      <trkpt lat="45.83322" lon="6.35964">
        <ele>1422.89</ele>
        <time>2018-10-09T11:58:18Z</time>
      </trkpt>
      <trkpt lat="45.83309" lon="6.35937">
        <ele>1425.29</ele>
        <time>2018-10-09T11:58:30Z</time>
      </trkpt>
      <trkpt lat="45.83293" lon="6.35916">
        <ele>1427.7</ele>
        <time>2018-10-09T11:58:42Z</time>
      </trkpt>
      <trkpt lat="45.83279" lon="6.35907">
        <ele>1430.58</ele>
        <time>2018-10-09T11:58:54Z</time>
      </trkpt>
      <trkpt lat="45.83266" lon="6.35907">
        <ele>1433.94</ele>
        <time>2018-10-09T11:59:05Z</time>
      </trkpt>
      <trkpt lat="45.83251" lon="6.35905">
        <ele>1437.31</ele>
        <time>2018-10-09T11:59:17Z</time>
      </trkpt>
      <trkpt lat="45.83239" lon="6.35911">
        <ele>1439.71</ele>
        <time>2018-10-09T11:59:28Z</time>
      </trkpt>
      <trkpt lat="45.83239" lon="6.35913">
        <ele>1440.19</ele>
        <time>2018-10-09T11:59:29Z</time>
      </trkpt>
      <trkpt lat="45.83239" lon="6.35915">
        <ele>1440.19</ele>
        <time>2018-10-09T11:59:30Z</time>
      </trkpt>
      <trkpt lat="45.8324" lon="6.35917">
        <ele>1440.19</ele>
        <time>2018-10-09T11:59:31Z</time>
      </trkpt>
      <trkpt lat="45.83241" lon="6.35919">
        <ele>1440.67</ele>
        <time>2018-10-09T11:59:32Z</time>
      </trkpt>
      <trkpt lat="45.83242" lon="6.3592">
        <ele>1441.15</ele>
        <time>2018-10-09T11:59:33Z</time>
      </trkpt>
      <trkpt lat="45.83243" lon="6.35922">
        <ele>1441.15</ele>
        <time>2018-10-09T11:59:34Z</time>
      </trkpt>
      <trkpt lat="45.83244" lon="6.35923">
        <ele>1441.63</ele>
        <time>2018-10-09T11:59:35Z</time>
      </trkpt>
      <trkpt lat="45.8325" lon="6.35931">
        <ele>1442.6</ele>
        <time>2018-10-09T11:59:40Z</time>
      </trkpt>
      <trkpt lat="45.8326" lon="6.35954">
        <ele>1445.48</ele>
        <time>2018-10-09T11:59:53Z</time>
      </trkpt>
      <trkpt lat="45.83269" lon="6.35977">
        <ele>1447.4</ele>
        <time>2018-10-09T12:00:05Z</time>
      </trkpt>
      <trkpt lat="45.83279" lon="6.36001">
        <ele>1449.81</ele>
        <time>2018-10-09T12:00:18Z</time>
      </trkpt>
      <trkpt lat="45.83285" lon="6.36021">
        <ele>1452.69</ele>
        <time>2018-10-09T12:00:29Z</time>
      </trkpt>
      <trkpt lat="45.83285" lon="6.36023">
        <ele>1452.69</ele>
        <time>2018-10-09T12:00:30Z</time>
      </trkpt>
      <trkpt lat="45.83282" lon="6.3603">
        <ele>1453.65</ele>
        <time>2018-10-09T12:00:34Z</time>
      </trkpt>
      <trkpt lat="45.83278" lon="6.36031">
        <ele>1454.13</ele>
        <time>2018-10-09T12:00:36Z</time>
      </trkpt>
      <trkpt lat="45.83277" lon="6.3603">
        <ele>1454.13</ele>
        <time>2018-10-09T12:00:37Z</time>
      </trkpt>
      <trkpt lat="45.83275" lon="6.36028">
        <ele>1454.61</ele>
        <time>2018-10-09T12:00:38Z</time>
      </trkpt>
      <trkpt lat="45.83274" lon="6.36026">
        <ele>1454.61</ele>
        <time>2018-10-09T12:00:39Z</time>
      </trkpt>
      <trkpt lat="45.83272" lon="6.36024">
        <ele>1454.61</ele>
        <time>2018-10-09T12:00:40Z</time>
      </trkpt>
      <trkpt lat="45.83271" lon="6.36022">
        <ele>1455.09</ele>
        <time>2018-10-09T12:00:41Z</time>
      </trkpt>
      <trkpt lat="45.83252" lon="6.36006">
        <ele>1456.53</ele>
        <time>2018-10-09T12:00:51Z</time>
      </trkpt>
      <trkpt lat="45.83239" lon="6.36007">
        <ele>1458.94</ele>
        <time>2018-10-09T12:01:01Z</time>
      </trkpt>
      <trkpt lat="45.83238" lon="6.36008">
        <ele>1459.42</ele>
        <time>2018-10-09T12:01:02Z</time>
      </trkpt>
      <trkpt lat="45.8322" lon="6.36022">
        <ele>1462.3</ele>
        <time>2018-10-09T12:01:16Z</time>
      </trkpt>
      <trkpt lat="45.83211" lon="6.36037">
        <ele>1465.19</ele>
        <time>2018-10-09T12:01:28Z</time>
      </trkpt>
      <trkpt lat="45.8321" lon="6.36042">
        <ele>1466.15</ele>
        <time>2018-10-09T12:01:31Z</time>
      </trkpt>
      <trkpt lat="45.8321" lon="6.36043">
        <ele>1466.63</ele>
        <time>2018-10-09T12:01:32Z</time>
      </trkpt>
      <trkpt lat="45.83211" lon="6.36045">
        <ele>1466.63</ele>
        <time>2018-10-09T12:01:33Z</time>
      </trkpt>
      <trkpt lat="45.83214" lon="6.36066">
        <ele>1469.99</ele>
        <time>2018-10-09T12:01:45Z</time>
      </trkpt>
      <trkpt lat="45.83216" lon="6.36082">
        <ele>1470.95</ele>
        <time>2018-10-09T12:01:54Z</time>
      </trkpt>
      <trkpt lat="45.83215" lon="6.36084">
        <ele>1471.44</ele>
        <time>2018-10-09T12:01:55Z</time>
      </trkpt>
      <trkpt lat="45.83215" lon="6.36085">
        <ele>1471.44</ele>
        <time>2018-10-09T12:01:56Z</time>
      </trkpt>
      <trkpt lat="45.83209" lon="6.36107">
        <ele>1474.8</ele>
        <time>2018-10-09T12:02:24Z</time>
      </trkpt>
      <trkpt lat="45.83206" lon="6.3612">
        <ele>1477.68</ele>
        <time>2018-10-09T12:02:38Z</time>
      </trkpt>
      <trkpt lat="45.83201" lon="6.36135">
        <ele>1481.05</ele>
        <time>2018-10-09T12:02:52Z</time>
      </trkpt>
      <trkpt lat="45.83203" lon="6.36141">
        <ele>1482.01</ele>
        <time>2018-10-09T12:02:57Z</time>
      </trkpt>
      <trkpt lat="45.83203" lon="6.36141">
        <ele>1482.01</ele>
        <time>2018-10-09T12:02:58Z</time>
      </trkpt>
      <trkpt lat="45.83204" lon="6.36142">
        <ele>1482.49</ele>
        <time>2018-10-09T12:02:59Z</time>
      </trkpt>
      <trkpt lat="45.83205" lon="6.36141">
        <ele>1482.49</ele>
        <time>2018-10-09T12:03:00Z</time>
      </trkpt>
      <trkpt lat="45.83206" lon="6.36141">
        <ele>1482.49</ele>
        <time>2018-10-09T12:03:01Z</time>
      </trkpt>
      <trkpt lat="45.83207" lon="6.36141">
        <ele>1482.97</ele>
        <time>2018-10-09T12:03:02Z</time>
      </trkpt>
      <trkpt lat="45.83224" lon="6.36132">
        <ele>1485.37</ele>
        <time>2018-10-09T12:03:20Z</time>
      </trkpt>
      <trkpt lat="45.8323" lon="6.36132">
        <ele>1486.34</ele>
        <time>2018-10-09T12:03:25Z</time>
      </trkpt>
      <trkpt lat="45.83231" lon="6.36132">
        <ele>1486.82</ele>
        <time>2018-10-09T12:03:26Z</time>
      </trkpt>
      <trkpt lat="45.83232" lon="6.36132">
        <ele>1486.82</ele>
        <time>2018-10-09T12:03:27Z</time>
      </trkpt>
      <trkpt lat="45.83247" lon="6.36151">
        <ele>1489.7</ele>
        <time>2018-10-09T12:03:44Z</time>
      </trkpt>
      <trkpt lat="45.83257" lon="6.36171">
        <ele>1492.58</ele>
        <time>2018-10-09T12:03:58Z</time>
      </trkpt>
      <trkpt lat="45.83258" lon="6.36176">
        <ele>1493.55</ele>
        <time>2018-10-09T12:04:01Z</time>
      </trkpt>
      <trkpt lat="45.83258" lon="6.36177">
        <ele>1493.55</ele>
        <time>2018-10-09T12:04:02Z</time>
      </trkpt>
      <trkpt lat="45.83259" lon="6.36179">
        <ele>1494.03</ele>
        <time>2018-10-09T12:04:03Z</time>
      </trkpt>
      <trkpt lat="45.83262" lon="6.36194">
        <ele>1495.95</ele>
        <time>2018-10-09T12:04:13Z</time>
      </trkpt>
      <trkpt lat="45.83275" lon="6.36214">
        <ele>1497.87</ele>
        <time>2018-10-09T12:04:25Z</time>
      </trkpt>
      <trkpt lat="45.8329" lon="6.36232">
        <ele>1501.24</ele>
        <time>2018-10-09T12:04:36Z</time>
      </trkpt>
      <trkpt lat="45.83303" lon="6.36249">
        <ele>1504.12</ele>
        <time>2018-10-09T12:04:48Z</time>
      </trkpt>
      <trkpt lat="45.83323" lon="6.36259">
        <ele>1507.48</ele>
        <time>2018-10-09T12:05:01Z</time>
      </trkpt>
      <trkpt lat="45.83325" lon="6.36264">
        <ele>1507.97</ele>
        <time>2018-10-09T12:05:04Z</time>
      </trkpt>
      <trkpt lat="45.83325" lon="6.36266">
        <ele>1508.45</ele>
        <time>2018-10-09T12:05:05Z</time>
      </trkpt>
      <trkpt lat="45.83324" lon="6.36267">
        <ele>1508.45</ele>
        <time>2018-10-09T12:05:06Z</time>
      </trkpt>
      <trkpt lat="45.83322" lon="6.36269">
        <ele>1508.93</ele>
        <time>2018-10-09T12:05:07Z</time>
      </trkpt>
      <trkpt lat="45.8332" lon="6.36269">
        <ele>1508.93</ele>
        <time>2018-10-09T12:05:08Z</time>
      </trkpt>
      <trkpt lat="45.83318" lon="6.36269">
        <ele>1509.41</ele>
        <time>2018-10-09T12:05:09Z</time>
      </trkpt>
      <trkpt lat="45.83316" lon="6.36268">
        <ele>1509.41</ele>
        <time>2018-10-09T12:05:10Z</time>
      </trkpt>
      <trkpt lat="45.83315" lon="6.36268">
        <ele>1509.41</ele>
        <time>2018-10-09T12:05:11Z</time>
      </trkpt>
      <trkpt lat="45.83313" lon="6.36268">
        <ele>1509.89</ele>
        <time>2018-10-09T12:05:12Z</time>
      </trkpt>
      <trkpt lat="45.83311" lon="6.36267">
        <ele>1509.89</ele>
        <time>2018-10-09T12:05:13Z</time>
      </trkpt>
      <trkpt lat="45.8331" lon="6.36267">
        <ele>1510.37</ele>
        <time>2018-10-09T12:05:14Z</time>
      </trkpt>
      <trkpt lat="45.83308" lon="6.36266">
        <ele>1510.37</ele>
        <time>2018-10-09T12:05:15Z</time>
      </trkpt>
      <trkpt lat="45.83307" lon="6.36266">
        <ele>1510.37</ele>
        <time>2018-10-09T12:05:16Z</time>
      </trkpt>
      <trkpt lat="45.83306" lon="6.36265">
        <ele>1510.85</ele>
        <time>2018-10-09T12:05:17Z</time>
      </trkpt>
      <trkpt lat="45.83304" lon="6.36265">
        <ele>1510.85</ele>
        <time>2018-10-09T12:05:18Z</time>
      </trkpt>
      <trkpt lat="45.83302" lon="6.36265">
        <ele>1511.33</ele>
        <time>2018-10-09T12:05:19Z</time>
      </trkpt>
      <trkpt lat="45.833" lon="6.36265">
        <ele>1511.33</ele>
        <time>2018-10-09T12:05:20Z</time>
      </trkpt>
      <trkpt lat="45.83299" lon="6.36265">
        <ele>1511.81</ele>
        <time>2018-10-09T12:05:21Z</time>
      </trkpt>
      <trkpt lat="45.83297" lon="6.36265">
        <ele>1511.81</ele>
        <time>2018-10-09T12:05:22Z</time>
      </trkpt>
      <trkpt lat="45.83296" lon="6.36265">
        <ele>1511.81</ele>
        <time>2018-10-09T12:05:23Z</time>
      </trkpt>
      <trkpt lat="45.83294" lon="6.36264">
        <ele>1512.29</ele>
        <time>2018-10-09T12:05:24Z</time>
      </trkpt>
      <trkpt lat="45.83276" lon="6.36261">
        <ele>1515.18</ele>
        <time>2018-10-09T12:05:37Z</time>
      </trkpt>
      <trkpt lat="45.83258" lon="6.36258">
        <ele>1517.1</ele>
        <time>2018-10-09T12:05:49Z</time>
      </trkpt>
      <trkpt lat="45.8324" lon="6.36259">
        <ele>1519.98</ele>
        <time>2018-10-09T12:06:01Z</time>
      </trkpt>
      <trkpt lat="45.83229" lon="6.36267">
        <ele>1523.35</ele>
        <time>2018-10-09T12:06:14Z</time>
      </trkpt>
      <trkpt lat="45.83221" lon="6.36279">
        <ele>1526.23</ele>
        <time>2018-10-09T12:06:27Z</time>
      </trkpt>
      <trkpt lat="45.83209" lon="6.36289">
        <ele>1529.59</ele>
        <time>2018-10-09T12:06:41Z</time>
      </trkpt>
      <trkpt lat="45.83197" lon="6.36293">
        <ele>1532.48</ele>
        <time>2018-10-09T12:06:56Z</time>
      </trkpt>
      <trkpt lat="45.83185" lon="6.36297">
        <ele>1535.84</ele>
        <time>2018-10-09T12:07:10Z</time>
      </trkpt>
      <trkpt lat="45.83171" lon="6.36302">
        <ele>1538.73</ele>
        <time>2018-10-09T12:07:25Z</time>
      </trkpt>
      <trkpt lat="45.83156" lon="6.3631">
        <ele>1542.09</ele>
        <time>2018-10-09T12:07:41Z</time>
      </trkpt>
      <trkpt lat="45.83155" lon="6.3631">
        <ele>1542.09</ele>
        <time>2018-10-09T12:07:42Z</time>
      </trkpt>
      <trkpt lat="45.8314" lon="6.36314">
        <ele>1544.5</ele>
        <time>2018-10-09T12:07:55Z</time>
      </trkpt>
      <trkpt lat="45.83138" lon="6.36314">
        <ele>1544.5</ele>
        <time>2018-10-09T12:07:56Z</time>
      </trkpt>
      <trkpt lat="45.83137" lon="6.36315">
        <ele>1544.5</ele>
        <time>2018-10-09T12:07:57Z</time>
      </trkpt>
      <trkpt lat="45.83136" lon="6.36316">
        <ele>1544.5</ele>
        <time>2018-10-09T12:07:58Z</time>
      </trkpt>
      <trkpt lat="45.83135" lon="6.36316">
        <ele>1544.98</ele>
        <time>2018-10-09T12:07:59Z</time>
      </trkpt>
      <trkpt lat="45.83133" lon="6.36317">
        <ele>1544.98</ele>
        <time>2018-10-09T12:08:00Z</time>
      </trkpt>
      <trkpt lat="45.83132" lon="6.36317">
        <ele>1544.98</ele>
        <time>2018-10-09T12:08:01Z</time>
      </trkpt>
      <trkpt lat="45.83131" lon="6.36318">
        <ele>1545.46</ele>
        <time>2018-10-09T12:08:02Z</time>
      </trkpt>
      <trkpt lat="45.83129" lon="6.36319">
        <ele>1545.94</ele>
        <time>2018-10-09T12:08:03Z</time>
      </trkpt>
      <trkpt lat="45.83127" lon="6.3632">
        <ele>1545.94</ele>
        <time>2018-10-09T12:08:04Z</time>
      </trkpt>
      <trkpt lat="45.83114" lon="6.36329">
        <ele>1548.82</ele>
        <time>2018-10-09T12:08:14Z</time>
      </trkpt>
      <trkpt lat="45.83112" lon="6.3633">
        <ele>1548.82</ele>
        <time>2018-10-09T12:08:15Z</time>
      </trkpt>
      <trkpt lat="45.83111" lon="6.36332">
        <ele>1548.82</ele>
        <time>2018-10-09T12:08:16Z</time>
      </trkpt>
      <trkpt lat="45.83104" lon="6.36337">
        <ele>1550.26</ele>
        <time>2018-10-09T12:08:20Z</time>
      </trkpt>
      <trkpt lat="45.83102" lon="6.36339">
        <ele>1550.74</ele>
        <time>2018-10-09T12:08:21Z</time>
      </trkpt>
      <trkpt lat="45.83101" lon="6.3634">
        <ele>1550.74</ele>
        <time>2018-10-09T12:08:22Z</time>
      </trkpt>
      <trkpt lat="45.83083" lon="6.36351">
        <ele>1552.19</ele>
        <time>2018-10-09T12:08:32Z</time>
      </trkpt>
      <trkpt lat="45.83064" lon="6.36364">
        <ele>1553.63</ele>
        <time>2018-10-09T12:08:42Z</time>
      </trkpt>
      <trkpt lat="45.83043" lon="6.36366">
        <ele>1555.55</ele>
        <time>2018-10-09T12:08:52Z</time>
      </trkpt>
      <trkpt lat="45.83025" lon="6.36376">
        <ele>1557.95</ele>
        <time>2018-10-09T12:09:03Z</time>
      </trkpt>
      <trkpt lat="45.83014" lon="6.36386">
        <ele>1559.4</ele>
        <time>2018-10-09T12:09:10Z</time>
      </trkpt>
      <trkpt lat="45.83013" lon="6.36387">
        <ele>1559.4</ele>
        <time>2018-10-09T12:09:11Z</time>
      </trkpt>
      <trkpt lat="45.83011" lon="6.36388">
        <ele>1559.4</ele>
        <time>2018-10-09T12:09:12Z</time>
      </trkpt>
      <trkpt lat="45.8301" lon="6.3639">
        <ele>1559.88</ele>
        <time>2018-10-09T12:09:13Z</time>
      </trkpt>
      <trkpt lat="45.83009" lon="6.36391">
        <ele>1560.36</ele>
        <time>2018-10-09T12:09:14Z</time>
      </trkpt>
      <trkpt lat="45.83007" lon="6.36393">
        <ele>1560.36</ele>
        <time>2018-10-09T12:09:15Z</time>
      </trkpt>
      <trkpt lat="45.83006" lon="6.36395">
        <ele>1560.84</ele>
        <time>2018-10-09T12:09:16Z</time>
      </trkpt>
      <trkpt lat="45.83005" lon="6.36396">
        <ele>1560.84</ele>
        <time>2018-10-09T12:09:17Z</time>
      </trkpt>
      <trkpt lat="45.83003" lon="6.36398">
        <ele>1561.32</ele>
        <time>2018-10-09T12:09:18Z</time>
      </trkpt>
      <trkpt lat="45.83002" lon="6.36399">
        <ele>1561.8</ele>
        <time>2018-10-09T12:09:19Z</time>
      </trkpt>
      <trkpt lat="45.83001" lon="6.36401">
        <ele>1561.8</ele>
        <time>2018-10-09T12:09:20Z</time>
      </trkpt>
      <trkpt lat="45.82985" lon="6.36415">
        <ele>1564.2</ele>
        <time>2018-10-09T12:09:31Z</time>
      </trkpt>
      <trkpt lat="45.82968" lon="6.36429">
        <ele>1566.61</ele>
        <time>2018-10-09T12:09:42Z</time>
      </trkpt>
      <trkpt lat="45.8296" lon="6.36434">
        <ele>1568.05</ele>
        <time>2018-10-09T12:09:48Z</time>
      </trkpt>
      <trkpt lat="45.82959" lon="6.36434">
        <ele>1568.53</ele>
        <time>2018-10-09T12:09:49Z</time>
      </trkpt>
      <trkpt lat="45.82952" lon="6.36437">
        <ele>1569.97</ele>
        <time>2018-10-09T12:09:55Z</time>
      </trkpt>
      <trkpt lat="45.82951" lon="6.36437">
        <ele>1570.45</ele>
        <time>2018-10-09T12:09:56Z</time>
      </trkpt>
      <trkpt lat="45.8295" lon="6.36438">
        <ele>1570.45</ele>
        <time>2018-10-09T12:09:57Z</time>
      </trkpt>
      <trkpt lat="45.82949" lon="6.36438">
        <ele>1570.93</ele>
        <time>2018-10-09T12:09:58Z</time>
      </trkpt>
      <trkpt lat="45.82948" lon="6.36439">
        <ele>1571.41</ele>
        <time>2018-10-09T12:09:59Z</time>
      </trkpt>
      <trkpt lat="45.82947" lon="6.36439">
        <ele>1571.41</ele>
        <time>2018-10-09T12:10:00Z</time>
      </trkpt>
      <trkpt lat="45.82946" lon="6.36439">
        <ele>1571.89</ele>
        <time>2018-10-09T12:10:01Z</time>
      </trkpt>
      <trkpt lat="45.82944" lon="6.3644">
        <ele>1572.37</ele>
        <time>2018-10-09T12:10:02Z</time>
      </trkpt>
      <trkpt lat="45.82943" lon="6.36441">
        <ele>1572.37</ele>
        <time>2018-10-09T12:10:03Z</time>
      </trkpt>
      <trkpt lat="45.82929" lon="6.36452">
        <ele>1575.74</ele>
        <time>2018-10-09T12:10:16Z</time>
      </trkpt>
      <trkpt lat="45.82913" lon="6.36465">
        <ele>1578.62</ele>
        <time>2018-10-09T12:10:29Z</time>
      </trkpt>
      <trkpt lat="45.82894" lon="6.36472">
        <ele>1581.99</ele>
        <time>2018-10-09T12:10:43Z</time>
      </trkpt>
      <trkpt lat="45.82877" lon="6.36459">
        <ele>1585.35</ele>
        <time>2018-10-09T12:10:57Z</time>
      </trkpt>
      <trkpt lat="45.82862" lon="6.36449">
        <ele>1588.24</ele>
        <time>2018-10-09T12:11:09Z</time>
      </trkpt>
      <trkpt lat="45.82859" lon="6.36449">
        <ele>1588.72</ele>
        <time>2018-10-09T12:11:11Z</time>
      </trkpt>
      <trkpt lat="45.82858" lon="6.36449">
        <ele>1589.2</ele>
        <time>2018-10-09T12:11:12Z</time>
      </trkpt>
      <trkpt lat="45.82857" lon="6.36449">
        <ele>1589.68</ele>
        <time>2018-10-09T12:11:13Z</time>
      </trkpt>
      <trkpt lat="45.82856" lon="6.36449">
        <ele>1589.68</ele>
        <time>2018-10-09T12:11:14Z</time>
      </trkpt>
      <trkpt lat="45.82854" lon="6.36449">
        <ele>1590.16</ele>
        <time>2018-10-09T12:11:15Z</time>
      </trkpt>
      <trkpt lat="45.82844" lon="6.36461">
        <ele>1593.04</ele>
        <time>2018-10-09T12:11:27Z</time>
      </trkpt>
      <trkpt lat="45.82832" lon="6.36482">
        <ele>1596.41</ele>
        <time>2018-10-09T12:11:40Z</time>
      </trkpt>
      <trkpt lat="45.82823" lon="6.36501">
        <ele>1599.29</ele>
        <time>2018-10-09T12:11:52Z</time>
      </trkpt>
      <trkpt lat="45.82816" lon="6.36518">
        <ele>1602.66</ele>
        <time>2018-10-09T12:12:04Z</time>
      </trkpt>
      <trkpt lat="45.82813" lon="6.36541">
        <ele>1606.02</ele>
        <time>2018-10-09T12:12:17Z</time>
      </trkpt>
      <trkpt lat="45.82812" lon="6.36569">
        <ele>1608.42</ele>
        <time>2018-10-09T12:12:30Z</time>
      </trkpt>
      <trkpt lat="45.82802" lon="6.3659">
        <ele>1609.38</ele>
        <time>2018-10-09T12:12:42Z</time>
      </trkpt>
      <trkpt lat="45.82799" lon="6.36589">
        <ele>1609.38</ele>
        <time>2018-10-09T12:12:46Z</time>
      </trkpt>
      <trkpt lat="45.82798" lon="6.36589">
        <ele>1609.38</ele>
        <time>2018-10-09T12:12:47Z</time>
      </trkpt>
      <trkpt lat="45.82797" lon="6.36587">
        <ele>1609.38</ele>
        <time>2018-10-09T12:12:48Z</time>
      </trkpt>
      <trkpt lat="45.82796" lon="6.36586">
        <ele>1609.38</ele>
        <time>2018-10-09T12:12:49Z</time>
      </trkpt>
      <trkpt lat="45.82795" lon="6.36584">
        <ele>1608.9</ele>
        <time>2018-10-09T12:12:50Z</time>
      </trkpt>
      <trkpt lat="45.82794" lon="6.36582">
        <ele>1608.9</ele>
        <time>2018-10-09T12:12:51Z</time>
      </trkpt>
      <trkpt lat="45.82793" lon="6.3658">
        <ele>1608.9</ele>
        <time>2018-10-09T12:12:52Z</time>
      </trkpt>
      <trkpt lat="45.82792" lon="6.36578">
        <ele>1608.9</ele>
        <time>2018-10-09T12:12:53Z</time>
      </trkpt>
      <trkpt lat="45.82787" lon="6.3655">
        <ele>1608.42</ele>
        <time>2018-10-09T12:13:01Z</time>
      </trkpt>
      <trkpt lat="45.82781" lon="6.36522">
        <ele>1607.94</ele>
        <time>2018-10-09T12:13:08Z</time>
      </trkpt>
      <trkpt lat="45.82782" lon="6.36491">
        <ele>1607.46</ele>
        <time>2018-10-09T12:13:16Z</time>
      </trkpt>
      <trkpt lat="45.82786" lon="6.36462">
        <ele>1606.98</ele>
        <time>2018-10-09T12:13:23Z</time>
      </trkpt>
      <trkpt lat="45.82792" lon="6.36433">
        <ele>1606.98</ele>
        <time>2018-10-09T12:13:31Z</time>
      </trkpt>
      <trkpt lat="45.82802" lon="6.36407">
        <ele>1607.94</ele>
        <time>2018-10-09T12:13:40Z</time>
      </trkpt>
      <trkpt lat="45.82807" lon="6.36383">
        <ele>1609.38</ele>
        <time>2018-10-09T12:13:56Z</time>
      </trkpt>
      <trkpt lat="45.82797" lon="6.36386">
        <ele>1610.83</ele>
        <time>2018-10-09T12:14:09Z</time>
      </trkpt>
      <trkpt lat="45.82797" lon="6.36387">
        <ele>1610.83</ele>
        <time>2018-10-09T12:14:10Z</time>
      </trkpt>
      <trkpt lat="45.82796" lon="6.36389">
        <ele>1610.83</ele>
        <time>2018-10-09T12:14:11Z</time>
      </trkpt>
      <trkpt lat="45.82795" lon="6.36389">
        <ele>1611.31</ele>
        <time>2018-10-09T12:14:12Z</time>
      </trkpt>
      <trkpt lat="45.82794" lon="6.3639">
        <ele>1611.31</ele>
        <time>2018-10-09T12:14:13Z</time>
      </trkpt>
      <trkpt lat="45.82783" lon="6.36415">
        <ele>1614.19</ele>
        <time>2018-10-09T12:14:31Z</time>
      </trkpt>
      <trkpt lat="45.82772" lon="6.36441">
        <ele>1615.63</ele>
        <time>2018-10-09T12:14:40Z</time>
      </trkpt>
      <trkpt lat="45.82762" lon="6.36463">
        <ele>1616.59</ele>
        <time>2018-10-09T12:14:48Z</time>
      </trkpt>
      <trkpt lat="45.82751" lon="6.36486">
        <ele>1618.04</ele>
        <time>2018-10-09T12:14:57Z</time>
      </trkpt>
      <trkpt lat="45.82741" lon="6.36509">
        <ele>1620.92</ele>
        <time>2018-10-09T12:15:08Z</time>
      </trkpt>
      <trkpt lat="45.82733" lon="6.36531">
        <ele>1623.8</ele>
        <time>2018-10-09T12:15:19Z</time>
      </trkpt>
      <trkpt lat="45.82722" lon="6.36542">
        <ele>1626.69</ele>
        <time>2018-10-09T12:15:29Z</time>
      </trkpt>
      <trkpt lat="45.8272" lon="6.36544">
        <ele>1627.17</ele>
        <time>2018-10-09T12:15:31Z</time>
      </trkpt>
      <trkpt lat="45.82718" lon="6.36544">
        <ele>1627.65</ele>
        <time>2018-10-09T12:15:32Z</time>
      </trkpt>
      <trkpt lat="45.82716" lon="6.36544">
        <ele>1628.13</ele>
        <time>2018-10-09T12:15:33Z</time>
      </trkpt>
      <trkpt lat="45.82715" lon="6.36544">
        <ele>1628.13</ele>
        <time>2018-10-09T12:15:34Z</time>
      </trkpt>
      <trkpt lat="45.82714" lon="6.36544">
        <ele>1628.61</ele>
        <time>2018-10-09T12:15:35Z</time>
      </trkpt>
      <trkpt lat="45.82714" lon="6.36545">
        <ele>1629.09</ele>
        <time>2018-10-09T12:15:36Z</time>
      </trkpt>
      <trkpt lat="45.82713" lon="6.36545">
        <ele>1629.57</ele>
        <time>2018-10-09T12:15:38Z</time>
      </trkpt>
      <trkpt lat="45.82707" lon="6.36546">
        <ele>1630.05</ele>
        <time>2018-10-09T12:15:43Z</time>
      </trkpt>
      <trkpt lat="45.82706" lon="6.36546">
        <ele>1630.05</ele>
        <time>2018-10-09T12:15:44Z</time>
      </trkpt>
      <trkpt lat="45.82702" lon="6.3655">
        <ele>1631.01</ele>
        <time>2018-10-09T12:15:59Z</time>
      </trkpt>
      <trkpt lat="45.82701" lon="6.3655">
        <ele>1631.49</ele>
        <time>2018-10-09T12:16:00Z</time>
      </trkpt>
      <trkpt lat="45.827" lon="6.36552">
        <ele>1631.49</ele>
        <time>2018-10-09T12:16:01Z</time>
      </trkpt>
      <trkpt lat="45.82689" lon="6.36572">
        <ele>1633.9</ele>
        <time>2018-10-09T12:16:17Z</time>
      </trkpt>
      <trkpt lat="45.82689" lon="6.36574">
        <ele>1633.9</ele>
        <time>2018-10-09T12:16:18Z</time>
      </trkpt>
      <trkpt lat="45.82689" lon="6.36577">
        <ele>1634.38</ele>
        <time>2018-10-09T12:16:19Z</time>
      </trkpt>
      <trkpt lat="45.82688" lon="6.3658">
        <ele>1634.38</ele>
        <time>2018-10-09T12:16:20Z</time>
      </trkpt>
      <trkpt lat="45.82689" lon="6.36583">
        <ele>1634.38</ele>
        <time>2018-10-09T12:16:21Z</time>
      </trkpt>
      <trkpt lat="45.82689" lon="6.36586">
        <ele>1634.38</ele>
        <time>2018-10-09T12:16:22Z</time>
      </trkpt>
      <trkpt lat="45.82689" lon="6.36588">
        <ele>1634.38</ele>
        <time>2018-10-09T12:16:23Z</time>
      </trkpt>
      <trkpt lat="45.82689" lon="6.36591">
        <ele>1634.86</ele>
        <time>2018-10-09T12:16:24Z</time>
      </trkpt>
      <trkpt lat="45.82693" lon="6.3661">
        <ele>1634.38</ele>
        <time>2018-10-09T12:16:32Z</time>
      </trkpt>
      <trkpt lat="45.82692" lon="6.36613">
        <ele>1634.86</ele>
        <time>2018-10-09T12:16:34Z</time>
      </trkpt>
      <trkpt lat="45.8268" lon="6.36638">
        <ele>1636.78</ele>
        <time>2018-10-09T12:16:46Z</time>
      </trkpt>
      <trkpt lat="45.82672" lon="6.36661">
        <ele>1639.67</ele>
        <time>2018-10-09T12:16:57Z</time>
      </trkpt>
      <trkpt lat="45.82669" lon="6.36687">
        <ele>1642.07</ele>
        <time>2018-10-09T12:17:09Z</time>
      </trkpt>
      <trkpt lat="45.82681" lon="6.36711">
        <ele>1643.99</ele>
        <time>2018-10-09T12:17:22Z</time>
      </trkpt>
      <trkpt lat="45.82694" lon="6.36733">
        <ele>1646.88</ele>
        <time>2018-10-09T12:17:36Z</time>
      </trkpt>
      <trkpt lat="45.82698" lon="6.36741">
        <ele>1648.8</ele>
        <time>2018-10-09T12:17:43Z</time>
      </trkpt>
      <trkpt lat="45.82699" lon="6.36742">
        <ele>1648.8</ele>
        <time>2018-10-09T12:17:44Z</time>
      </trkpt>
      <trkpt lat="45.82703" lon="6.36757">
        <ele>1651.2</ele>
        <time>2018-10-09T12:17:55Z</time>
      </trkpt>
      <trkpt lat="45.82704" lon="6.36758">
        <ele>1651.2</ele>
        <time>2018-10-09T12:17:57Z</time>
      </trkpt>
      <trkpt lat="45.82704" lon="6.3676">
        <ele>1651.68</ele>
        <time>2018-10-09T12:17:58Z</time>
      </trkpt>
      <trkpt lat="45.82707" lon="6.36775">
        <ele>1653.6</ele>
        <time>2018-10-09T12:18:08Z</time>
      </trkpt>
      <trkpt lat="45.82707" lon="6.36776">
        <ele>1653.6</ele>
        <time>2018-10-09T12:18:09Z</time>
      </trkpt>
      <trkpt lat="45.82707" lon="6.36778">
        <ele>1653.6</ele>
        <time>2018-10-09T12:18:10Z</time>
      </trkpt>
      <trkpt lat="45.82706" lon="6.36806">
        <ele>1656.97</ele>
        <time>2018-10-09T12:18:26Z</time>
      </trkpt>
      <trkpt lat="45.82693" lon="6.36827">
        <ele>1659.85</ele>
        <time>2018-10-09T12:18:43Z</time>
      </trkpt>
      <trkpt lat="45.82675" lon="6.3684">
        <ele>1661.78</ele>
        <time>2018-10-09T12:18:55Z</time>
      </trkpt>
      <trkpt lat="45.82659" lon="6.36851">
        <ele>1664.66</ele>
        <time>2018-10-09T12:19:06Z</time>
      </trkpt>
      <trkpt lat="45.82639" lon="6.36857">
        <ele>1668.02</ele>
        <time>2018-10-09T12:19:18Z</time>
      </trkpt>
      <trkpt lat="45.82625" lon="6.36857">
        <ele>1670.91</ele>
        <time>2018-10-09T12:19:30Z</time>
      </trkpt>
      <trkpt lat="45.82619" lon="6.36856">
        <ele>1672.83</ele>
        <time>2018-10-09T12:19:37Z</time>
      </trkpt>
      <trkpt lat="45.82618" lon="6.36856">
        <ele>1672.83</ele>
        <time>2018-10-09T12:19:38Z</time>
      </trkpt>
      <trkpt lat="45.82614" lon="6.36856">
        <ele>1673.79</ele>
        <time>2018-10-09T12:19:43Z</time>
      </trkpt>
      <trkpt lat="45.82613" lon="6.36856">
        <ele>1674.27</ele>
        <time>2018-10-09T12:19:44Z</time>
      </trkpt>
      <trkpt lat="45.82598" lon="6.36858">
        <ele>1677.64</ele>
        <time>2018-10-09T12:20:00Z</time>
      </trkpt>
      <trkpt lat="45.8258" lon="6.36866">
        <ele>1680.52</ele>
        <time>2018-10-09T12:20:18Z</time>
      </trkpt>
      <trkpt lat="45.82566" lon="6.36872">
        <ele>1683.89</ele>
        <time>2018-10-09T12:20:34Z</time>
      </trkpt>
      <trkpt lat="45.82551" lon="6.36873">
        <ele>1686.77</ele>
        <time>2018-10-09T12:20:49Z</time>
      </trkpt>
      <trkpt lat="45.82547" lon="6.36873">
        <ele>1688.69</ele>
        <time>2018-10-09T12:20:55Z</time>
      </trkpt>
      <trkpt lat="45.82533" lon="6.36879">
        <ele>1691.58</ele>
        <time>2018-10-09T12:21:08Z</time>
      </trkpt>
      <trkpt lat="45.82532" lon="6.36878">
        <ele>1691.58</ele>
        <time>2018-10-09T12:21:09Z</time>
      </trkpt>
      <trkpt lat="45.82531" lon="6.36878">
        <ele>1692.06</ele>
        <time>2018-10-09T12:21:10Z</time>
      </trkpt>
      <trkpt lat="45.8253" lon="6.36878">
        <ele>1692.06</ele>
        <time>2018-10-09T12:21:11Z</time>
      </trkpt>
      <trkpt lat="45.82529" lon="6.36879">
        <ele>1692.06</ele>
        <time>2018-10-09T12:21:12Z</time>
      </trkpt>
      <trkpt lat="45.82527" lon="6.36879">
        <ele>1692.06</ele>
        <time>2018-10-09T12:21:13Z</time>
      </trkpt>
      <trkpt lat="45.82526" lon="6.36879">
        <ele>1692.54</ele>
        <time>2018-10-09T12:21:14Z</time>
      </trkpt>
      <trkpt lat="45.82519" lon="6.36882">
        <ele>1693.02</ele>
        <time>2018-10-09T12:21:19Z</time>
      </trkpt>
      <trkpt lat="45.82517" lon="6.36882">
        <ele>1693.5</ele>
        <time>2018-10-09T12:21:20Z</time>
      </trkpt>
      <trkpt lat="45.82515" lon="6.36882">
        <ele>1693.5</ele>
        <time>2018-10-09T12:21:21Z</time>
      </trkpt>
      <trkpt lat="45.82514" lon="6.36882">
        <ele>1693.5</ele>
        <time>2018-10-09T12:21:22Z</time>
      </trkpt>
      <trkpt lat="45.82512" lon="6.36882">
        <ele>1693.98</ele>
        <time>2018-10-09T12:21:23Z</time>
      </trkpt>
      <trkpt lat="45.82511" lon="6.36882">
        <ele>1693.98</ele>
        <time>2018-10-09T12:21:24Z</time>
      </trkpt>
      <trkpt lat="45.82509" lon="6.36882">
        <ele>1694.46</ele>
        <time>2018-10-09T12:21:25Z</time>
      </trkpt>
      <trkpt lat="45.82495" lon="6.36887">
        <ele>1697.34</ele>
        <time>2018-10-09T12:21:35Z</time>
      </trkpt>
      <trkpt lat="45.82489" lon="6.3689">
        <ele>1698.79</ele>
        <time>2018-10-09T12:21:40Z</time>
      </trkpt>
      <trkpt lat="45.82489" lon="6.3689">
        <ele>1699.27</ele>
        <time>2018-10-09T12:21:41Z</time>
      </trkpt>
      <trkpt lat="45.82474" lon="6.36899">
        <ele>1702.63</ele>
        <time>2018-10-09T12:21:56Z</time>
      </trkpt>
      <trkpt lat="45.82463" lon="6.36903">
        <ele>1705.52</ele>
        <time>2018-10-09T12:22:10Z</time>
      </trkpt>
      <trkpt lat="45.82448" lon="6.36904">
        <ele>1708.4</ele>
        <time>2018-10-09T12:22:25Z</time>
      </trkpt>
      <trkpt lat="45.82434" lon="6.36904">
        <ele>1711.76</ele>
        <time>2018-10-09T12:22:39Z</time>
      </trkpt>
      <trkpt lat="45.82426" lon="6.36904">
        <ele>1714.65</ele>
        <time>2018-10-09T12:22:51Z</time>
      </trkpt>
      <trkpt lat="45.82416" lon="6.36903">
        <ele>1718.01</ele>
        <time>2018-10-09T12:23:04Z</time>
      </trkpt>
      <trkpt lat="45.82404" lon="6.36894">
        <ele>1720.9</ele>
        <time>2018-10-09T12:23:19Z</time>
      </trkpt>
      <trkpt lat="45.82403" lon="6.36892">
        <ele>1721.38</ele>
        <time>2018-10-09T12:23:21Z</time>
      </trkpt>
      <trkpt lat="45.82394" lon="6.36876">
        <ele>1723.78</ele>
        <time>2018-10-09T12:23:37Z</time>
      </trkpt>
      <trkpt lat="45.82393" lon="6.36876">
        <ele>1723.78</ele>
        <time>2018-10-09T12:23:38Z</time>
      </trkpt>
      <trkpt lat="45.82386" lon="6.36864">
        <ele>1727.15</ele>
        <time>2018-10-09T12:23:52Z</time>
      </trkpt>
      <trkpt lat="45.82381" lon="6.36869">
        <ele>1728.59</ele>
        <time>2018-10-09T12:24:02Z</time>
      </trkpt>
      <trkpt lat="45.82382" lon="6.3687">
        <ele>1728.59</ele>
        <time>2018-10-09T12:24:03Z</time>
      </trkpt>
      <trkpt lat="45.82382" lon="6.36871">
        <ele>1729.07</ele>
        <time>2018-10-09T12:24:04Z</time>
      </trkpt>
      <trkpt lat="45.82382" lon="6.36873">
        <ele>1729.07</ele>
        <time>2018-10-09T12:24:05Z</time>
      </trkpt>
      <trkpt lat="45.82382" lon="6.36874">
        <ele>1729.07</ele>
        <time>2018-10-09T12:24:06Z</time>
      </trkpt>
      <trkpt lat="45.82382" lon="6.36876">
        <ele>1729.07</ele>
        <time>2018-10-09T12:24:07Z</time>
      </trkpt>
      <trkpt lat="45.82382" lon="6.36877">
        <ele>1729.55</ele>
        <time>2018-10-09T12:24:08Z</time>
      </trkpt>
      <trkpt lat="45.82381" lon="6.3689">
        <ele>1731.47</ele>
        <time>2018-10-09T12:24:18Z</time>
      </trkpt>
      <trkpt lat="45.82381" lon="6.36891">
        <ele>1731.95</ele>
        <time>2018-10-09T12:24:19Z</time>
      </trkpt>
      <trkpt lat="45.82382" lon="6.36892">
        <ele>1731.95</ele>
        <time>2018-10-09T12:24:20Z</time>
      </trkpt>
      <trkpt lat="45.82382" lon="6.36894">
        <ele>1732.43</ele>
        <time>2018-10-09T12:24:21Z</time>
      </trkpt>
      <trkpt lat="45.82382" lon="6.36895">
        <ele>1732.43</ele>
        <time>2018-10-09T12:24:22Z</time>
      </trkpt>
      <trkpt lat="45.82382" lon="6.36899">
        <ele>1732.91</ele>
        <time>2018-10-09T12:24:25Z</time>
      </trkpt>
      <trkpt lat="45.82383" lon="6.369">
        <ele>1732.91</ele>
        <time>2018-10-09T12:24:26Z</time>
      </trkpt>
      <trkpt lat="45.82383" lon="6.36901">
        <ele>1733.39</ele>
        <time>2018-10-09T12:24:27Z</time>
      </trkpt>
      <trkpt lat="45.82384" lon="6.36921">
        <ele>1736.28</ele>
        <time>2018-10-09T12:24:44Z</time>
      </trkpt>
      <trkpt lat="45.82385" lon="6.36928">
        <ele>1737.72</ele>
        <time>2018-10-09T12:24:51Z</time>
      </trkpt>
      <trkpt lat="45.82385" lon="6.36929">
        <ele>1737.72</ele>
        <time>2018-10-09T12:24:52Z</time>
      </trkpt>
      <trkpt lat="45.82386" lon="6.36937">
        <ele>1738.68</ele>
        <time>2018-10-09T12:24:59Z</time>
      </trkpt>
      <trkpt lat="45.82389" lon="6.36953">
        <ele>1741.08</ele>
        <time>2018-10-09T12:25:12Z</time>
      </trkpt>
      <trkpt lat="45.82389" lon="6.36954">
        <ele>1741.08</ele>
        <time>2018-10-09T12:25:13Z</time>
      </trkpt>
      <trkpt lat="45.82389" lon="6.36956">
        <ele>1741.08</ele>
        <time>2018-10-09T12:25:14Z</time>
      </trkpt>
      <trkpt lat="45.82389" lon="6.36957">
        <ele>1741.08</ele>
        <time>2018-10-09T12:25:15Z</time>
      </trkpt>
      <trkpt lat="45.8239" lon="6.36959">
        <ele>1741.57</ele>
        <time>2018-10-09T12:25:16Z</time>
      </trkpt>
      <trkpt lat="45.8239" lon="6.3696">
        <ele>1741.57</ele>
        <time>2018-10-09T12:25:17Z</time>
      </trkpt>
      <trkpt lat="45.8239" lon="6.36962">
        <ele>1741.57</ele>
        <time>2018-10-09T12:25:18Z</time>
      </trkpt>
      <trkpt lat="45.82391" lon="6.36963">
        <ele>1741.57</ele>
        <time>2018-10-09T12:25:19Z</time>
      </trkpt>
      <trkpt lat="45.82391" lon="6.36965">
        <ele>1742.05</ele>
        <time>2018-10-09T12:25:20Z</time>
      </trkpt>
      <trkpt lat="45.82392" lon="6.36973">
        <ele>1742.05</ele>
        <time>2018-10-09T12:25:25Z</time>
      </trkpt>
      <trkpt lat="45.82393" lon="6.36974">
        <ele>1742.05</ele>
        <time>2018-10-09T12:25:26Z</time>
      </trkpt>
      <trkpt lat="45.82394" lon="6.36975">
        <ele>1742.05</ele>
        <time>2018-10-09T12:25:27Z</time>
      </trkpt>
      <trkpt lat="45.82412" lon="6.36991">
        <ele>1742.53</ele>
        <time>2018-10-09T12:25:36Z</time>
      </trkpt>
      <trkpt lat="45.82432" lon="6.36998">
        <ele>1743.97</ele>
        <time>2018-10-09T12:25:46Z</time>
      </trkpt>
      <trkpt lat="45.8245" lon="6.37001">
        <ele>1744.45</ele>
        <time>2018-10-09T12:25:54Z</time>
      </trkpt>
      <trkpt lat="45.82469" lon="6.37011">
        <ele>1745.41</ele>
        <time>2018-10-09T12:26:03Z</time>
      </trkpt>
      <trkpt lat="45.82489" lon="6.3702">
        <ele>1746.37</ele>
        <time>2018-10-09T12:26:12Z</time>
      </trkpt>
      <trkpt lat="45.82496" lon="6.37024">
        <ele>1748.29</ele>
        <time>2018-10-09T12:26:17Z</time>
      </trkpt>
      <trkpt lat="45.82496" lon="6.37024">
        <ele>1748.78</ele>
        <time>2018-10-09T12:26:18Z</time>
      </trkpt>
      <trkpt lat="45.82497" lon="6.37022">
        <ele>1748.78</ele>
        <time>2018-10-09T12:26:19Z</time>
      </trkpt>
      <trkpt lat="45.82498" lon="6.37021">
        <ele>1749.26</ele>
        <time>2018-10-09T12:26:20Z</time>
      </trkpt>
      <trkpt lat="45.82499" lon="6.3702">
        <ele>1749.74</ele>
        <time>2018-10-09T12:26:21Z</time>
      </trkpt>
      <trkpt lat="45.825" lon="6.37019">
        <ele>1750.22</ele>
        <time>2018-10-09T12:26:22Z</time>
      </trkpt>
      <trkpt lat="45.82502" lon="6.37019">
        <ele>1750.22</ele>
        <time>2018-10-09T12:26:23Z</time>
      </trkpt>
      <trkpt lat="45.82503" lon="6.3702">
        <ele>1750.22</ele>
        <time>2018-10-09T12:26:24Z</time>
      </trkpt>
      <trkpt lat="45.82505" lon="6.37022">
        <ele>1750.7</ele>
        <time>2018-10-09T12:26:25Z</time>
      </trkpt>
      <trkpt lat="45.82507" lon="6.37023">
        <ele>1750.7</ele>
        <time>2018-10-09T12:26:26Z</time>
      </trkpt>
      <trkpt lat="45.82508" lon="6.37023">
        <ele>1751.18</ele>
        <time>2018-10-09T12:26:27Z</time>
      </trkpt>
      <trkpt lat="45.82509" lon="6.37023">
        <ele>1751.18</ele>
        <time>2018-10-09T12:26:28Z</time>
      </trkpt>
      <trkpt lat="45.82511" lon="6.37023">
        <ele>1751.66</ele>
        <time>2018-10-09T12:26:29Z</time>
      </trkpt>
      <trkpt lat="45.82513" lon="6.37024">
        <ele>1751.66</ele>
        <time>2018-10-09T12:26:30Z</time>
      </trkpt>
      <trkpt lat="45.82515" lon="6.37024">
        <ele>1751.66</ele>
        <time>2018-10-09T12:26:31Z</time>
      </trkpt>
      <trkpt lat="45.82517" lon="6.37025">
        <ele>1752.14</ele>
        <time>2018-10-09T12:26:32Z</time>
      </trkpt>
      <trkpt lat="45.8252" lon="6.37026">
        <ele>1752.14</ele>
        <time>2018-10-09T12:26:33Z</time>
      </trkpt>
      <trkpt lat="45.82535" lon="6.37033">
        <ele>1753.58</ele>
        <time>2018-10-09T12:26:42Z</time>
      </trkpt>
      <trkpt lat="45.82553" lon="6.37038">
        <ele>1755.99</ele>
        <time>2018-10-09T12:26:53Z</time>
      </trkpt>
      <trkpt lat="45.82571" lon="6.37046">
        <ele>1756.95</ele>
        <time>2018-10-09T12:27:03Z</time>
      </trkpt>
      <trkpt lat="45.82583" lon="6.37054">
        <ele>1758.39</ele>
        <time>2018-10-09T12:27:11Z</time>
      </trkpt>
      <trkpt lat="45.82584" lon="6.37054">
        <ele>1758.39</ele>
        <time>2018-10-09T12:27:12Z</time>
      </trkpt>
      <trkpt lat="45.82585" lon="6.37054">
        <ele>1758.87</ele>
        <time>2018-10-09T12:27:13Z</time>
      </trkpt>
      <trkpt lat="45.82586" lon="6.37053">
        <ele>1758.87</ele>
        <time>2018-10-09T12:27:14Z</time>
      </trkpt>
      <trkpt lat="45.82587" lon="6.37053">
        <ele>1759.35</ele>
        <time>2018-10-09T12:27:15Z</time>
      </trkpt>
      <trkpt lat="45.82604" lon="6.37064">
        <ele>1760.79</ele>
        <time>2018-10-09T12:27:26Z</time>
      </trkpt>
      <trkpt lat="45.82607" lon="6.37065">
        <ele>1761.27</ele>
        <time>2018-10-09T12:27:28Z</time>
      </trkpt>
      <trkpt lat="45.82609" lon="6.37066">
        <ele>1761.27</ele>
        <time>2018-10-09T12:27:29Z</time>
      </trkpt>
      <trkpt lat="45.82625" lon="6.37073">
        <ele>1763.2</ele>
        <time>2018-10-09T12:27:39Z</time>
      </trkpt>
      <trkpt lat="45.82633" lon="6.37079">
        <ele>1765.12</ele>
        <time>2018-10-09T12:27:45Z</time>
      </trkpt>
      <trkpt lat="45.82634" lon="6.3708">
        <ele>1765.12</ele>
        <time>2018-10-09T12:27:46Z</time>
      </trkpt>
      <trkpt lat="45.82636" lon="6.37083">
        <ele>1765.6</ele>
        <time>2018-10-09T12:27:48Z</time>
      </trkpt>
      <trkpt lat="45.8264" lon="6.37089">
        <ele>1767.04</ele>
        <time>2018-10-09T12:27:52Z</time>
      </trkpt>
      <trkpt lat="45.82648" lon="6.3709">
        <ele>1768</ele>
        <time>2018-10-09T12:27:57Z</time>
      </trkpt>
      <trkpt lat="45.82654" lon="6.37091">
        <ele>1770.41</ele>
        <time>2018-10-09T12:28:05Z</time>
      </trkpt>
      <trkpt lat="45.82658" lon="6.37089">
        <ele>1772.33</ele>
        <time>2018-10-09T12:28:12Z</time>
      </trkpt>
      <trkpt lat="45.82662" lon="6.37092">
        <ele>1774.25</ele>
        <time>2018-10-09T12:28:19Z</time>
      </trkpt>
      <trkpt lat="45.82669" lon="6.37095">
        <ele>1777.61</ele>
        <time>2018-10-09T12:28:33Z</time>
      </trkpt>
      <trkpt lat="45.8267" lon="6.37096">
        <ele>1777.61</ele>
        <time>2018-10-09T12:28:34Z</time>
      </trkpt>
      <trkpt lat="45.82676" lon="6.37095">
        <ele>1780.5</ele>
        <time>2018-10-09T12:28:45Z</time>
      </trkpt>
      <trkpt lat="45.82681" lon="6.37096">
        <ele>1782.42</ele>
        <time>2018-10-09T12:28:53Z</time>
      </trkpt>
      <trkpt lat="45.82681" lon="6.37098">
        <ele>1782.42</ele>
        <time>2018-10-09T12:28:54Z</time>
      </trkpt>
      <trkpt lat="45.82688" lon="6.37104">
        <ele>1785.31</ele>
        <time>2018-10-09T12:29:08Z</time>
      </trkpt>
      <trkpt lat="45.82689" lon="6.37104">
        <ele>1785.79</ele>
        <time>2018-10-09T12:29:10Z</time>
      </trkpt>
      <trkpt lat="45.8269" lon="6.37105">
        <ele>1786.75</ele>
        <time>2018-10-09T12:29:13Z</time>
      </trkpt>
      <trkpt lat="45.82696" lon="6.37108">
        <ele>1789.63</ele>
        <time>2018-10-09T12:29:25Z</time>
      </trkpt>
      <trkpt lat="45.82696" lon="6.37108">
        <ele>1790.11</ele>
        <time>2018-10-09T12:29:26Z</time>
      </trkpt>
      <trkpt lat="45.82697" lon="6.37107">
        <ele>1790.59</ele>
        <time>2018-10-09T12:29:27Z</time>
      </trkpt>
      <trkpt lat="45.82698" lon="6.37108">
        <ele>1790.59</ele>
        <time>2018-10-09T12:29:28Z</time>
      </trkpt>
      <trkpt lat="45.82702" lon="6.3711">
        <ele>1792.52</ele>
        <time>2018-10-09T12:29:37Z</time>
      </trkpt>
      <trkpt lat="45.82703" lon="6.37111">
        <ele>1793</ele>
        <time>2018-10-09T12:29:39Z</time>
      </trkpt>
      <trkpt lat="45.82708" lon="6.37113">
        <ele>1796.36</ele>
        <time>2018-10-09T12:29:52Z</time>
      </trkpt>
      <trkpt lat="45.82714" lon="6.37114">
        <ele>1798.76</ele>
        <time>2018-10-09T12:30:03Z</time>
      </trkpt>
      <trkpt lat="45.82715" lon="6.37115">
        <ele>1799.73</ele>
        <time>2018-10-09T12:30:05Z</time>
      </trkpt>
      <trkpt lat="45.82723" lon="6.37121">
        <ele>1802.61</ele>
        <time>2018-10-09T12:30:18Z</time>
      </trkpt>
      <trkpt lat="45.82727" lon="6.37126">
        <ele>1803.57</ele>
        <time>2018-10-09T12:30:24Z</time>
      </trkpt>
      <trkpt lat="45.82729" lon="6.37127">
        <ele>1805.01</ele>
        <time>2018-10-09T12:30:29Z</time>
      </trkpt>
      <trkpt lat="45.8273" lon="6.37126">
        <ele>1805.01</ele>
        <time>2018-10-09T12:30:30Z</time>
      </trkpt>
      <trkpt lat="45.82731" lon="6.37126">
        <ele>1805.49</ele>
        <time>2018-10-09T12:30:31Z</time>
      </trkpt>
      <trkpt lat="45.82732" lon="6.37126">
        <ele>1805.49</ele>
        <time>2018-10-09T12:30:32Z</time>
      </trkpt>
      <trkpt lat="45.82733" lon="6.37127">
        <ele>1805.49</ele>
        <time>2018-10-09T12:30:33Z</time>
      </trkpt>
      <trkpt lat="45.82736" lon="6.3713">
        <ele>1806.45</ele>
        <time>2018-10-09T12:30:38Z</time>
      </trkpt>
      <trkpt lat="45.82737" lon="6.3713">
        <ele>1806.45</ele>
        <time>2018-10-09T12:30:39Z</time>
      </trkpt>
      <trkpt lat="45.82757" lon="6.37138">
        <ele>1808.86</ele>
        <time>2018-10-09T12:30:51Z</time>
      </trkpt>
      <trkpt lat="45.82761" lon="6.37138">
        <ele>1810.3</ele>
        <time>2018-10-09T12:30:54Z</time>
      </trkpt>
      <trkpt lat="45.82772" lon="6.37136">
        <ele>1813.66</ele>
        <time>2018-10-09T12:31:04Z</time>
      </trkpt>
      <trkpt lat="45.82775" lon="6.37134">
        <ele>1814.63</ele>
        <time>2018-10-09T12:31:07Z</time>
      </trkpt>
      <trkpt lat="45.82776" lon="6.37133">
        <ele>1814.63</ele>
        <time>2018-10-09T12:31:08Z</time>
      </trkpt>
      <trkpt lat="45.82779" lon="6.37134">
        <ele>1814.63</ele>
        <time>2018-10-09T12:31:10Z</time>
      </trkpt>
      <trkpt lat="45.82781" lon="6.37135">
        <ele>1814.63</ele>
        <time>2018-10-09T12:31:11Z</time>
      </trkpt>
      <trkpt lat="45.82782" lon="6.37136">
        <ele>1815.11</ele>
        <time>2018-10-09T12:31:12Z</time>
      </trkpt>
      <trkpt lat="45.82784" lon="6.37137">
        <ele>1815.11</ele>
        <time>2018-10-09T12:31:13Z</time>
      </trkpt>
      <trkpt lat="45.82786" lon="6.37139">
        <ele>1815.59</ele>
        <time>2018-10-09T12:31:14Z</time>
      </trkpt>
      <trkpt lat="45.82788" lon="6.3714">
        <ele>1815.59</ele>
        <time>2018-10-09T12:31:15Z</time>
      </trkpt>
      <trkpt lat="45.8279" lon="6.37143">
        <ele>1815.59</ele>
        <time>2018-10-09T12:31:16Z</time>
      </trkpt>
      <trkpt lat="45.82792" lon="6.37144">
        <ele>1815.59</ele>
        <time>2018-10-09T12:31:17Z</time>
      </trkpt>
      <trkpt lat="45.82793" lon="6.37146">
        <ele>1815.11</ele>
        <time>2018-10-09T12:31:18Z</time>
      </trkpt>
      <trkpt lat="45.82811" lon="6.37151">
        <ele>1815.59</ele>
        <time>2018-10-09T12:31:26Z</time>
      </trkpt>
      <trkpt lat="45.82828" lon="6.37145">
        <ele>1817.03</ele>
        <time>2018-10-09T12:31:36Z</time>
      </trkpt>
      <trkpt lat="45.82829" lon="6.37144">
        <ele>1817.03</ele>
        <time>2018-10-09T12:31:37Z</time>
      </trkpt>
      <trkpt lat="45.82847" lon="6.3715">
        <ele>1817.99</ele>
        <time>2018-10-09T12:31:46Z</time>
      </trkpt>
      <trkpt lat="45.82861" lon="6.37153">
        <ele>1820.39</ele>
        <time>2018-10-09T12:31:54Z</time>
      </trkpt>
      <trkpt lat="45.82862" lon="6.37153">
        <ele>1820.87</ele>
        <time>2018-10-09T12:31:55Z</time>
      </trkpt>
      <trkpt lat="45.82863" lon="6.37153">
        <ele>1820.87</ele>
        <time>2018-10-09T12:31:56Z</time>
      </trkpt>
      <trkpt lat="45.82865" lon="6.37153">
        <ele>1821.35</ele>
        <time>2018-10-09T12:31:57Z</time>
      </trkpt>
      <trkpt lat="45.82866" lon="6.37153">
        <ele>1821.84</ele>
        <time>2018-10-09T12:31:58Z</time>
      </trkpt>
      <trkpt lat="45.82868" lon="6.37153">
        <ele>1821.84</ele>
        <time>2018-10-09T12:31:59Z</time>
      </trkpt>
      <trkpt lat="45.8287" lon="6.37154">
        <ele>1821.84</ele>
        <time>2018-10-09T12:32:00Z</time>
      </trkpt>
      <trkpt lat="45.82887" lon="6.37157">
        <ele>1823.76</ele>
        <time>2018-10-09T12:32:11Z</time>
      </trkpt>
      <trkpt lat="45.829" lon="6.37158">
        <ele>1823.76</ele>
        <time>2018-10-09T12:32:18Z</time>
      </trkpt>
      <trkpt lat="45.82914" lon="6.37166">
        <ele>1825.68</ele>
        <time>2018-10-09T12:32:29Z</time>
      </trkpt>
      <trkpt lat="45.82915" lon="6.37168">
        <ele>1826.16</ele>
        <time>2018-10-09T12:32:30Z</time>
      </trkpt>
      <trkpt lat="45.82915" lon="6.3717">
        <ele>1826.64</ele>
        <time>2018-10-09T12:32:31Z</time>
      </trkpt>
      <trkpt lat="45.82917" lon="6.37171">
        <ele>1828.08</ele>
        <time>2018-10-09T12:32:34Z</time>
      </trkpt>
      <trkpt lat="45.82918" lon="6.37171">
        <ele>1828.56</ele>
        <time>2018-10-09T12:32:35Z</time>
      </trkpt>
      <trkpt lat="45.82919" lon="6.37172">
        <ele>1828.56</ele>
        <time>2018-10-09T12:32:36Z</time>
      </trkpt>
      <trkpt lat="45.8292" lon="6.37173">
        <ele>1828.56</ele>
        <time>2018-10-09T12:32:37Z</time>
      </trkpt>
      <trkpt lat="45.82919" lon="6.37175">
        <ele>1829.05</ele>
        <time>2018-10-09T12:32:38Z</time>
      </trkpt>
      <trkpt lat="45.82918" lon="6.37176">
        <ele>1830.01</ele>
        <time>2018-10-09T12:32:39Z</time>
      </trkpt>
      <trkpt lat="45.82918" lon="6.37178">
        <ele>1830.01</ele>
        <time>2018-10-09T12:32:40Z</time>
      </trkpt>
      <trkpt lat="45.82917" lon="6.3718">
        <ele>1830.49</ele>
        <time>2018-10-09T12:32:42Z</time>
      </trkpt>
      <trkpt lat="45.82917" lon="6.37182">
        <ele>1830.97</ele>
        <time>2018-10-09T12:33:57Z</time>
      </trkpt>
      <trkpt lat="45.82917" lon="6.37183">
        <ele>1830.49</ele>
        <time>2018-10-09T12:34:21Z</time>
      </trkpt>
      <trkpt lat="45.82917" lon="6.37182">
        <ele>1830.01</ele>
        <time>2018-10-09T12:34:55Z</time>
      </trkpt>
      <trkpt lat="45.82917" lon="6.37181">
        <ele>1830.97</ele>
        <time>2018-10-09T12:35:47Z</time>
      </trkpt>
      <trkpt lat="45.82917" lon="6.37181">
        <ele>1831.45</ele>
        <time>2018-10-09T12:36:29Z</time>
      </trkpt>
      <trkpt lat="45.82918" lon="6.37178">
        <ele>1830.01</ele>
        <time>2018-10-09T12:36:36Z</time>
      </trkpt>
      <trkpt lat="45.82918" lon="6.37176">
        <ele>1829.53</ele>
        <time>2018-10-09T12:36:39Z</time>
      </trkpt>
      <trkpt lat="45.82916" lon="6.37175">
        <ele>1829.05</ele>
        <time>2018-10-09T12:36:40Z</time>
      </trkpt>
      <trkpt lat="45.82915" lon="6.37174">
        <ele>1828.56</ele>
        <time>2018-10-09T12:36:41Z</time>
      </trkpt>
      <trkpt lat="45.82907" lon="6.37166">
        <ele>1825.2</ele>
        <time>2018-10-09T12:36:47Z</time>
      </trkpt>
      <trkpt lat="45.82901" lon="6.37163">
        <ele>1824.24</ele>
        <time>2018-10-09T12:36:50Z</time>
      </trkpt>
      <trkpt lat="45.8288" lon="6.3716">
        <ele>1823.76</ele>
        <time>2018-10-09T12:37:00Z</time>
      </trkpt>
      <trkpt lat="45.82859" lon="6.37155">
        <ele>1822.32</ele>
        <time>2018-10-09T12:37:09Z</time>
      </trkpt>
      <trkpt lat="45.82846" lon="6.37153">
        <ele>1819.43</ele>
        <time>2018-10-09T12:37:15Z</time>
      </trkpt>
      <trkpt lat="45.82825" lon="6.37148">
        <ele>1818.47</ele>
        <time>2018-10-09T12:37:23Z</time>
      </trkpt>
      <trkpt lat="45.82805" lon="6.37155">
        <ele>1816.55</ele>
        <time>2018-10-09T12:37:30Z</time>
      </trkpt>
      <trkpt lat="45.82787" lon="6.37147">
        <ele>1815.59</ele>
        <time>2018-10-09T12:37:37Z</time>
      </trkpt>
      <trkpt lat="45.82777" lon="6.37139">
        <ele>1815.11</ele>
        <time>2018-10-09T12:37:42Z</time>
      </trkpt>
      <trkpt lat="45.82775" lon="6.3714">
        <ele>1815.11</ele>
        <time>2018-10-09T12:37:43Z</time>
      </trkpt>
      <trkpt lat="45.82773" lon="6.37141">
        <ele>1815.11</ele>
        <time>2018-10-09T12:37:44Z</time>
      </trkpt>
      <trkpt lat="45.82771" lon="6.37142">
        <ele>1815.11</ele>
        <time>2018-10-09T12:37:45Z</time>
      </trkpt>
      <trkpt lat="45.8277" lon="6.37142">
        <ele>1815.11</ele>
        <time>2018-10-09T12:37:46Z</time>
      </trkpt>
      <trkpt lat="45.82768" lon="6.37143">
        <ele>1814.63</ele>
        <time>2018-10-09T12:37:47Z</time>
      </trkpt>
      <trkpt lat="45.82765" lon="6.37143">
        <ele>1814.15</ele>
        <time>2018-10-09T12:37:48Z</time>
      </trkpt>
      <trkpt lat="45.82763" lon="6.37143">
        <ele>1813.66</ele>
        <time>2018-10-09T12:37:49Z</time>
      </trkpt>
      <trkpt lat="45.82761" lon="6.37143">
        <ele>1813.18</ele>
        <time>2018-10-09T12:37:50Z</time>
      </trkpt>
      <trkpt lat="45.82758" lon="6.37143">
        <ele>1812.7</ele>
        <time>2018-10-09T12:37:51Z</time>
      </trkpt>
      <trkpt lat="45.82746" lon="6.37139">
        <ele>1809.82</ele>
        <time>2018-10-09T12:37:55Z</time>
      </trkpt>
      <trkpt lat="45.82732" lon="6.37132">
        <ele>1806.45</ele>
        <time>2018-10-09T12:38:02Z</time>
      </trkpt>
      <trkpt lat="45.82727" lon="6.37132">
        <ele>1805.49</ele>
        <time>2018-10-09T12:38:05Z</time>
      </trkpt>
      <trkpt lat="45.82725" lon="6.37131">
        <ele>1805.01</ele>
        <time>2018-10-09T12:38:06Z</time>
      </trkpt>
      <trkpt lat="45.82723" lon="6.37129">
        <ele>1804.53</ele>
        <time>2018-10-09T12:38:07Z</time>
      </trkpt>
      <trkpt lat="45.82721" lon="6.37128">
        <ele>1804.05</ele>
        <time>2018-10-09T12:38:08Z</time>
      </trkpt>
      <trkpt lat="45.82719" lon="6.37126">
        <ele>1804.05</ele>
        <time>2018-10-09T12:38:09Z</time>
      </trkpt>
      <trkpt lat="45.82718" lon="6.37125">
        <ele>1803.57</ele>
        <time>2018-10-09T12:38:10Z</time>
      </trkpt>
      <trkpt lat="45.82715" lon="6.37123">
        <ele>1801.65</ele>
        <time>2018-10-09T12:38:12Z</time>
      </trkpt>
      <trkpt lat="45.82715" lon="6.37121">
        <ele>1801.65</ele>
        <time>2018-10-09T12:38:13Z</time>
      </trkpt>
      <trkpt lat="45.82714" lon="6.3712">
        <ele>1801.17</ele>
        <time>2018-10-09T12:38:14Z</time>
      </trkpt>
      <trkpt lat="45.82713" lon="6.37119">
        <ele>1800.69</ele>
        <time>2018-10-09T12:38:15Z</time>
      </trkpt>
      <trkpt lat="45.82711" lon="6.37119">
        <ele>1800.21</ele>
        <time>2018-10-09T12:38:16Z</time>
      </trkpt>
      <trkpt lat="45.8271" lon="6.3712">
        <ele>1799.73</ele>
        <time>2018-10-09T12:38:17Z</time>
      </trkpt>
      <trkpt lat="45.82709" lon="6.37119">
        <ele>1798.76</ele>
        <time>2018-10-09T12:38:18Z</time>
      </trkpt>
      <trkpt lat="45.82708" lon="6.37118">
        <ele>1798.28</ele>
        <time>2018-10-09T12:38:19Z</time>
      </trkpt>
      <trkpt lat="45.82707" lon="6.37117">
        <ele>1797.8</ele>
        <time>2018-10-09T12:38:20Z</time>
      </trkpt>
      <trkpt lat="45.82706" lon="6.37117">
        <ele>1797.32</ele>
        <time>2018-10-09T12:38:21Z</time>
      </trkpt>
      <trkpt lat="45.82704" lon="6.37117">
        <ele>1796.36</ele>
        <time>2018-10-09T12:38:22Z</time>
      </trkpt>
      <trkpt lat="45.82703" lon="6.37117">
        <ele>1795.88</ele>
        <time>2018-10-09T12:38:23Z</time>
      </trkpt>
      <trkpt lat="45.82702" lon="6.37115">
        <ele>1794.92</ele>
        <time>2018-10-09T12:38:24Z</time>
      </trkpt>
      <trkpt lat="45.82701" lon="6.37115">
        <ele>1794.44</ele>
        <time>2018-10-09T12:38:25Z</time>
      </trkpt>
      <trkpt lat="45.82699" lon="6.37115">
        <ele>1794.44</ele>
        <time>2018-10-09T12:38:26Z</time>
      </trkpt>
      <trkpt lat="45.82697" lon="6.37114">
        <ele>1793.48</ele>
        <time>2018-10-09T12:38:27Z</time>
      </trkpt>
      <trkpt lat="45.82696" lon="6.37112">
        <ele>1792.52</ele>
        <time>2018-10-09T12:38:28Z</time>
      </trkpt>
      <trkpt lat="45.82695" lon="6.37112">
        <ele>1792.03</ele>
        <time>2018-10-09T12:38:29Z</time>
      </trkpt>
      <trkpt lat="45.82694" lon="6.37111">
        <ele>1791.07</ele>
        <time>2018-10-09T12:38:30Z</time>
      </trkpt>
      <trkpt lat="45.82693" lon="6.37111">
        <ele>1790.59</ele>
        <time>2018-10-09T12:38:31Z</time>
      </trkpt>
      <trkpt lat="45.82684" lon="6.37108">
        <ele>1787.23</ele>
        <time>2018-10-09T12:38:36Z</time>
      </trkpt>
      <trkpt lat="45.82677" lon="6.37101">
        <ele>1783.38</ele>
        <time>2018-10-09T12:38:41Z</time>
      </trkpt>
      <trkpt lat="45.82675" lon="6.37101">
        <ele>1782.9</ele>
        <time>2018-10-09T12:38:42Z</time>
      </trkpt>
      <trkpt lat="45.82667" lon="6.37098">
        <ele>1780.02</ele>
        <time>2018-10-09T12:38:46Z</time>
      </trkpt>
      <trkpt lat="45.82664" lon="6.37098">
        <ele>1779.06</ele>
        <time>2018-10-09T12:38:47Z</time>
      </trkpt>
      <trkpt lat="45.82662" lon="6.37097">
        <ele>1777.61</ele>
        <time>2018-10-09T12:38:48Z</time>
      </trkpt>
      <trkpt lat="45.8266" lon="6.37096">
        <ele>1776.65</ele>
        <time>2018-10-09T12:38:49Z</time>
      </trkpt>
      <trkpt lat="45.82658" lon="6.37094">
        <ele>1776.17</ele>
        <time>2018-10-09T12:38:50Z</time>
      </trkpt>
      <trkpt lat="45.82656" lon="6.37093">
        <ele>1775.69</ele>
        <time>2018-10-09T12:38:51Z</time>
      </trkpt>
      <trkpt lat="45.82653" lon="6.37094">
        <ele>1774.73</ele>
        <time>2018-10-09T12:38:52Z</time>
      </trkpt>
      <trkpt lat="45.82651" lon="6.37095">
        <ele>1773.77</ele>
        <time>2018-10-09T12:38:53Z</time>
      </trkpt>
      <trkpt lat="45.82648" lon="6.37095">
        <ele>1773.29</ele>
        <time>2018-10-09T12:38:54Z</time>
      </trkpt>
      <trkpt lat="45.82645" lon="6.37094">
        <ele>1772.81</ele>
        <time>2018-10-09T12:38:55Z</time>
      </trkpt>
      <trkpt lat="45.82643" lon="6.37093">
        <ele>1771.37</ele>
        <time>2018-10-09T12:38:56Z</time>
      </trkpt>
      <trkpt lat="45.8264" lon="6.37092">
        <ele>1769.92</ele>
        <time>2018-10-09T12:38:57Z</time>
      </trkpt>
      <trkpt lat="45.82637" lon="6.37091">
        <ele>1768.96</ele>
        <time>2018-10-09T12:38:58Z</time>
      </trkpt>
      <trkpt lat="45.82635" lon="6.37091">
        <ele>1768.96</ele>
        <time>2018-10-09T12:38:59Z</time>
      </trkpt>
      <trkpt lat="45.82632" lon="6.37089">
        <ele>1768.48</ele>
        <time>2018-10-09T12:39:00Z</time>
      </trkpt>
      <trkpt lat="45.82631" lon="6.37087">
        <ele>1768</ele>
        <time>2018-10-09T12:39:01Z</time>
      </trkpt>
      <trkpt lat="45.82629" lon="6.37085">
        <ele>1767.52</ele>
        <time>2018-10-09T12:39:02Z</time>
      </trkpt>
      <trkpt lat="45.82627" lon="6.37082">
        <ele>1767.04</ele>
        <time>2018-10-09T12:39:03Z</time>
      </trkpt>
      <trkpt lat="45.82625" lon="6.37081">
        <ele>1766.08</ele>
        <time>2018-10-09T12:39:04Z</time>
      </trkpt>
      <trkpt lat="45.82622" lon="6.3708">
        <ele>1766.08</ele>
        <time>2018-10-09T12:39:05Z</time>
      </trkpt>
      <trkpt lat="45.82608" lon="6.37071">
        <ele>1763.2</ele>
        <time>2018-10-09T12:39:11Z</time>
      </trkpt>
      <trkpt lat="45.82588" lon="6.37062">
        <ele>1761.27</ele>
        <time>2018-10-09T12:39:18Z</time>
      </trkpt>
      <trkpt lat="45.82576" lon="6.37059">
        <ele>1759.83</ele>
        <time>2018-10-09T12:39:24Z</time>
      </trkpt>
      <trkpt lat="45.82574" lon="6.37057">
        <ele>1759.83</ele>
        <time>2018-10-09T12:39:25Z</time>
      </trkpt>
      <trkpt lat="45.82571" lon="6.37056">
        <ele>1759.35</ele>
        <time>2018-10-09T12:39:26Z</time>
      </trkpt>
      <trkpt lat="45.82568" lon="6.37054">
        <ele>1759.35</ele>
        <time>2018-10-09T12:39:27Z</time>
      </trkpt>
      <trkpt lat="45.82566" lon="6.37053">
        <ele>1758.87</ele>
        <time>2018-10-09T12:39:28Z</time>
      </trkpt>
      <trkpt lat="45.82563" lon="6.37052">
        <ele>1758.39</ele>
        <time>2018-10-09T12:39:29Z</time>
      </trkpt>
      <trkpt lat="45.8256" lon="6.37051">
        <ele>1758.39</ele>
        <time>2018-10-09T12:39:30Z</time>
      </trkpt>
      <trkpt lat="45.82557" lon="6.3705">
        <ele>1757.91</ele>
        <time>2018-10-09T12:39:31Z</time>
      </trkpt>
      <trkpt lat="45.82554" lon="6.37049">
        <ele>1757.91</ele>
        <time>2018-10-09T12:39:32Z</time>
      </trkpt>
      <trkpt lat="45.82534" lon="6.3704">
        <ele>1756.47</ele>
        <time>2018-10-09T12:39:40Z</time>
      </trkpt>
      <trkpt lat="45.82513" lon="6.37034">
        <ele>1753.58</ele>
        <time>2018-10-09T12:39:48Z</time>
      </trkpt>
      <trkpt lat="45.82494" lon="6.37029">
        <ele>1751.66</ele>
        <time>2018-10-09T12:39:56Z</time>
      </trkpt>
      <trkpt lat="45.82487" lon="6.37028">
        <ele>1750.22</ele>
        <time>2018-10-09T12:40:00Z</time>
      </trkpt>
      <trkpt lat="45.82485" lon="6.37027">
        <ele>1749.26</ele>
        <time>2018-10-09T12:40:01Z</time>
      </trkpt>
      <trkpt lat="45.82482" lon="6.37025">
        <ele>1748.78</ele>
        <time>2018-10-09T12:40:02Z</time>
      </trkpt>
      <trkpt lat="45.82461" lon="6.37014">
        <ele>1746.37</ele>
        <time>2018-10-09T12:40:09Z</time>
      </trkpt>
      <trkpt lat="45.82443" lon="6.37004">
        <ele>1745.89</ele>
        <time>2018-10-09T12:40:16Z</time>
      </trkpt>
      <trkpt lat="45.82421" lon="6.36999">
        <ele>1745.41</ele>
        <time>2018-10-09T12:40:24Z</time>
      </trkpt>
      <trkpt lat="45.82403" lon="6.36986">
        <ele>1743.49</ele>
        <time>2018-10-09T12:40:31Z</time>
      </trkpt>
      <trkpt lat="45.82388" lon="6.36963">
        <ele>1743.01</ele>
        <time>2018-10-09T12:40:40Z</time>
      </trkpt>
      <trkpt lat="45.82382" lon="6.36934">
        <ele>1739.64</ele>
        <time>2018-10-09T12:40:48Z</time>
      </trkpt>
      <trkpt lat="45.82381" lon="6.36912">
        <ele>1736.76</ele>
        <time>2018-10-09T12:40:54Z</time>
      </trkpt>
      <trkpt lat="45.8238" lon="6.36895">
        <ele>1733.88</ele>
        <time>2018-10-09T12:40:58Z</time>
      </trkpt>
      <trkpt lat="45.82381" lon="6.36866">
        <ele>1730.99</ele>
        <time>2018-10-09T12:41:05Z</time>
      </trkpt>
      <trkpt lat="45.82382" lon="6.36863">
        <ele>1730.51</ele>
        <time>2018-10-09T12:41:06Z</time>
      </trkpt>
      <trkpt lat="45.82384" lon="6.36862">
        <ele>1729.55</ele>
        <time>2018-10-09T12:41:07Z</time>
      </trkpt>
      <trkpt lat="45.82387" lon="6.36862">
        <ele>1729.07</ele>
        <time>2018-10-09T12:41:08Z</time>
      </trkpt>
      <trkpt lat="45.82389" lon="6.36865">
        <ele>1728.59</ele>
        <time>2018-10-09T12:41:09Z</time>
      </trkpt>
      <trkpt lat="45.82392" lon="6.36868">
        <ele>1727.63</ele>
        <time>2018-10-09T12:41:10Z</time>
      </trkpt>
      <trkpt lat="45.82395" lon="6.36871">
        <ele>1726.67</ele>
        <time>2018-10-09T12:41:11Z</time>
      </trkpt>
      <trkpt lat="45.82397" lon="6.36875">
        <ele>1726.18</ele>
        <time>2018-10-09T12:41:12Z</time>
      </trkpt>
      <trkpt lat="45.82399" lon="6.36879">
        <ele>1725.7</ele>
        <time>2018-10-09T12:41:13Z</time>
      </trkpt>
      <trkpt lat="45.82401" lon="6.36882">
        <ele>1725.22</ele>
        <time>2018-10-09T12:41:14Z</time>
      </trkpt>
      <trkpt lat="45.82402" lon="6.36886">
        <ele>1723.78</ele>
        <time>2018-10-09T12:41:15Z</time>
      </trkpt>
      <trkpt lat="45.82404" lon="6.36889">
        <ele>1723.3</ele>
        <time>2018-10-09T12:41:16Z</time>
      </trkpt>
      <trkpt lat="45.82406" lon="6.36891">
        <ele>1722.82</ele>
        <time>2018-10-09T12:41:17Z</time>
      </trkpt>
      <trkpt lat="45.82417" lon="6.36897">
        <ele>1719.46</ele>
        <time>2018-10-09T12:41:22Z</time>
      </trkpt>
      <trkpt lat="45.82429" lon="6.36901">
        <ele>1716.09</ele>
        <time>2018-10-09T12:41:27Z</time>
      </trkpt>
      <trkpt lat="45.82439" lon="6.369">
        <ele>1713.21</ele>
        <time>2018-10-09T12:41:31Z</time>
      </trkpt>
      <trkpt lat="45.82454" lon="6.369">
        <ele>1709.36</ele>
        <time>2018-10-09T12:41:36Z</time>
      </trkpt>
      <trkpt lat="45.82467" lon="6.36899">
        <ele>1706</ele>
        <time>2018-10-09T12:41:41Z</time>
      </trkpt>
      <trkpt lat="45.82481" lon="6.36891">
        <ele>1702.63</ele>
        <time>2018-10-09T12:41:47Z</time>
      </trkpt>
      <trkpt lat="45.82494" lon="6.36882">
        <ele>1699.27</ele>
        <time>2018-10-09T12:41:52Z</time>
      </trkpt>
      <trkpt lat="45.82502" lon="6.36878">
        <ele>1697.83</ele>
        <time>2018-10-09T12:41:55Z</time>
      </trkpt>
      <trkpt lat="45.82522" lon="6.36871">
        <ele>1693.98</ele>
        <time>2018-10-09T12:42:01Z</time>
      </trkpt>
      <trkpt lat="45.82532" lon="6.36868">
        <ele>1693.02</ele>
        <time>2018-10-09T12:42:04Z</time>
      </trkpt>
      <trkpt lat="45.8255" lon="6.36866">
        <ele>1689.17</ele>
        <time>2018-10-09T12:42:10Z</time>
      </trkpt>
      <trkpt lat="45.82567" lon="6.36864">
        <ele>1685.81</ele>
        <time>2018-10-09T12:42:16Z</time>
      </trkpt>
      <trkpt lat="45.82582" lon="6.36856">
        <ele>1682.44</ele>
        <time>2018-10-09T12:42:22Z</time>
      </trkpt>
      <trkpt lat="45.82598" lon="6.36853">
        <ele>1679.08</ele>
        <time>2018-10-09T12:42:29Z</time>
      </trkpt>
      <trkpt lat="45.82613" lon="6.36852">
        <ele>1675.23</ele>
        <time>2018-10-09T12:42:35Z</time>
      </trkpt>
      <trkpt lat="45.82631" lon="6.36854">
        <ele>1672.83</ele>
        <time>2018-10-09T12:42:41Z</time>
      </trkpt>
      <trkpt lat="45.82643" lon="6.36853">
        <ele>1669.47</ele>
        <time>2018-10-09T12:42:45Z</time>
      </trkpt>
      <trkpt lat="45.82663" lon="6.36842">
        <ele>1666.1</ele>
        <time>2018-10-09T12:42:52Z</time>
      </trkpt>
      <trkpt lat="45.82668" lon="6.36838">
        <ele>1665.62</ele>
        <time>2018-10-09T12:42:54Z</time>
      </trkpt>
      <trkpt lat="45.82681" lon="6.36827">
        <ele>1662.26</ele>
        <time>2018-10-09T12:42:59Z</time>
      </trkpt>
      <trkpt lat="45.82686" lon="6.36822">
        <ele>1661.3</ele>
        <time>2018-10-09T12:43:01Z</time>
      </trkpt>
      <trkpt lat="45.82703" lon="6.36805">
        <ele>1658.41</ele>
        <time>2018-10-09T12:43:09Z</time>
      </trkpt>
      <trkpt lat="45.82708" lon="6.36784">
        <ele>1655.05</ele>
        <time>2018-10-09T12:43:16Z</time>
      </trkpt>
      <trkpt lat="45.82708" lon="6.3678">
        <ele>1655.05</ele>
        <time>2018-10-09T12:43:17Z</time>
      </trkpt>
      <trkpt lat="45.82701" lon="6.3675">
        <ele>1652.64</ele>
        <time>2018-10-09T12:43:25Z</time>
      </trkpt>
      <trkpt lat="45.82691" lon="6.36723">
        <ele>1649.28</ele>
        <time>2018-10-09T12:43:32Z</time>
      </trkpt>
      <trkpt lat="45.82679" lon="6.36702">
        <ele>1646.4</ele>
        <time>2018-10-09T12:43:38Z</time>
      </trkpt>
      <trkpt lat="45.82668" lon="6.36681">
        <ele>1643.99</ele>
        <time>2018-10-09T12:43:44Z</time>
      </trkpt>
      <trkpt lat="45.82666" lon="6.36669">
        <ele>1643.03</ele>
        <time>2018-10-09T12:43:47Z</time>
      </trkpt>
      <trkpt lat="45.82667" lon="6.36665">
        <ele>1642.07</ele>
        <time>2018-10-09T12:43:48Z</time>
      </trkpt>
      <trkpt lat="45.82676" lon="6.36638">
        <ele>1639.19</ele>
        <time>2018-10-09T12:43:55Z</time>
      </trkpt>
      <trkpt lat="45.82686" lon="6.36614">
        <ele>1636.3</ele>
        <time>2018-10-09T12:44:02Z</time>
      </trkpt>
      <trkpt lat="45.82689" lon="6.36606">
        <ele>1635.82</ele>
        <time>2018-10-09T12:44:05Z</time>
      </trkpt>
      <trkpt lat="45.82689" lon="6.36605">
        <ele>1635.34</ele>
        <time>2018-10-09T12:44:06Z</time>
      </trkpt>
      <trkpt lat="45.82683" lon="6.36575">
        <ele>1635.34</ele>
        <time>2018-10-09T12:44:19Z</time>
      </trkpt>
      <trkpt lat="45.82691" lon="6.3655">
        <ele>1633.42</ele>
        <time>2018-10-09T12:44:26Z</time>
      </trkpt>
      <trkpt lat="45.82697" lon="6.36546">
        <ele>1632.46</ele>
        <time>2018-10-09T12:44:29Z</time>
      </trkpt>
      <trkpt lat="45.82699" lon="6.36545">
        <ele>1631.98</ele>
        <time>2018-10-09T12:44:30Z</time>
      </trkpt>
      <trkpt lat="45.827" lon="6.36544">
        <ele>1631.98</ele>
        <time>2018-10-09T12:44:31Z</time>
      </trkpt>
      <trkpt lat="45.82701" lon="6.36543">
        <ele>1631.49</ele>
        <time>2018-10-09T12:44:32Z</time>
      </trkpt>
      <trkpt lat="45.82701" lon="6.36541">
        <ele>1631.49</ele>
        <time>2018-10-09T12:44:33Z</time>
      </trkpt>
      <trkpt lat="45.82703" lon="6.36541">
        <ele>1631.98</ele>
        <time>2018-10-09T12:44:34Z</time>
      </trkpt>
      <trkpt lat="45.82704" lon="6.36541">
        <ele>1631.49</ele>
        <time>2018-10-09T12:44:35Z</time>
      </trkpt>
      <trkpt lat="45.82706" lon="6.36541">
        <ele>1631.49</ele>
        <time>2018-10-09T12:44:36Z</time>
      </trkpt>
      <trkpt lat="45.82708" lon="6.36541">
        <ele>1631.01</ele>
        <time>2018-10-09T12:44:37Z</time>
      </trkpt>
      <trkpt lat="45.8271" lon="6.36542">
        <ele>1631.01</ele>
        <time>2018-10-09T12:44:38Z</time>
      </trkpt>
      <trkpt lat="45.82713" lon="6.36542">
        <ele>1630.05</ele>
        <time>2018-10-09T12:44:39Z</time>
      </trkpt>
      <trkpt lat="45.8273" lon="6.3653">
        <ele>1627.17</ele>
        <time>2018-10-09T12:44:47Z</time>
      </trkpt>
      <trkpt lat="45.8274" lon="6.36509">
        <ele>1623.32</ele>
        <time>2018-10-09T12:44:53Z</time>
      </trkpt>
      <trkpt lat="45.8275" lon="6.36483">
        <ele>1620.92</ele>
        <time>2018-10-09T12:45:00Z</time>
      </trkpt>
      <trkpt lat="45.8276" lon="6.36458">
        <ele>1618.04</ele>
        <time>2018-10-09T12:45:06Z</time>
      </trkpt>
      <trkpt lat="45.82772" lon="6.36435">
        <ele>1616.59</ele>
        <time>2018-10-09T12:45:12Z</time>
      </trkpt>
      <trkpt lat="45.82784" lon="6.36412">
        <ele>1615.63</ele>
        <time>2018-10-09T12:45:19Z</time>
      </trkpt>
      <trkpt lat="45.82796" lon="6.36391">
        <ele>1613.71</ele>
        <time>2018-10-09T12:45:26Z</time>
      </trkpt>
      <trkpt lat="45.82806" lon="6.36382">
        <ele>1611.79</ele>
        <time>2018-10-09T12:45:31Z</time>
      </trkpt>
      <trkpt lat="45.82809" lon="6.36384">
        <ele>1610.83</ele>
        <time>2018-10-09T12:45:32Z</time>
      </trkpt>
      <trkpt lat="45.82811" lon="6.36387">
        <ele>1610.35</ele>
        <time>2018-10-09T12:45:33Z</time>
      </trkpt>
      <trkpt lat="45.82812" lon="6.36392">
        <ele>1610.35</ele>
        <time>2018-10-09T12:45:34Z</time>
      </trkpt>
      <trkpt lat="45.82813" lon="6.36396">
        <ele>1609.86</ele>
        <time>2018-10-09T12:45:35Z</time>
      </trkpt>
      <trkpt lat="45.82812" lon="6.36401">
        <ele>1609.86</ele>
        <time>2018-10-09T12:45:36Z</time>
      </trkpt>
      <trkpt lat="45.8281" lon="6.36404">
        <ele>1609.86</ele>
        <time>2018-10-09T12:45:37Z</time>
      </trkpt>
      <trkpt lat="45.82809" lon="6.36408">
        <ele>1609.38</ele>
        <time>2018-10-09T12:45:38Z</time>
      </trkpt>
      <trkpt lat="45.82795" lon="6.36435">
        <ele>1608.42</ele>
        <time>2018-10-09T12:45:45Z</time>
      </trkpt>
      <trkpt lat="45.82791" lon="6.36464">
        <ele>1607.94</ele>
        <time>2018-10-09T12:45:52Z</time>
      </trkpt>
      <trkpt lat="45.8279" lon="6.36492">
        <ele>1607.46</ele>
        <time>2018-10-09T12:45:59Z</time>
      </trkpt>
      <trkpt lat="45.8279" lon="6.36523">
        <ele>1608.42</ele>
        <time>2018-10-09T12:46:07Z</time>
      </trkpt>
      <trkpt lat="45.82794" lon="6.36549">
        <ele>1608.9</ele>
        <time>2018-10-09T12:46:15Z</time>
      </trkpt>
      <trkpt lat="45.82798" lon="6.36578">
        <ele>1609.86</ele>
        <time>2018-10-09T12:46:23Z</time>
      </trkpt>
      <trkpt lat="45.82803" lon="6.36587">
        <ele>1609.38</ele>
        <time>2018-10-09T12:46:27Z</time>
      </trkpt>
      <trkpt lat="45.82804" lon="6.36587">
        <ele>1609.38</ele>
        <time>2018-10-09T12:46:28Z</time>
      </trkpt>
      <trkpt lat="45.82806" lon="6.36586">
        <ele>1609.38</ele>
        <time>2018-10-09T12:46:29Z</time>
      </trkpt>
      <trkpt lat="45.82807" lon="6.36584">
        <ele>1609.38</ele>
        <time>2018-10-09T12:46:30Z</time>
      </trkpt>
      <trkpt lat="45.82807" lon="6.36583">
        <ele>1609.38</ele>
        <time>2018-10-09T12:46:31Z</time>
      </trkpt>
      <trkpt lat="45.82808" lon="6.36582">
        <ele>1609.38</ele>
        <time>2018-10-09T12:46:32Z</time>
      </trkpt>
      <trkpt lat="45.82809" lon="6.36581">
        <ele>1609.38</ele>
        <time>2018-10-09T12:46:33Z</time>
      </trkpt>
      <trkpt lat="45.8281" lon="6.36578">
        <ele>1609.38</ele>
        <time>2018-10-09T12:46:34Z</time>
      </trkpt>
      <trkpt lat="45.82811" lon="6.36575">
        <ele>1608.9</ele>
        <time>2018-10-09T12:46:35Z</time>
      </trkpt>
      <trkpt lat="45.82812" lon="6.36572">
        <ele>1608.9</ele>
        <time>2018-10-09T12:46:36Z</time>
      </trkpt>
      <trkpt lat="45.82812" lon="6.36568">
        <ele>1608.42</ele>
        <time>2018-10-09T12:46:37Z</time>
      </trkpt>
      <trkpt lat="45.82812" lon="6.36565">
        <ele>1608.42</ele>
        <time>2018-10-09T12:46:38Z</time>
      </trkpt>
      <trkpt lat="45.82814" lon="6.36536">
        <ele>1606.98</ele>
        <time>2018-10-09T12:46:47Z</time>
      </trkpt>
      <trkpt lat="45.82819" lon="6.36513">
        <ele>1604.1</ele>
        <time>2018-10-09T12:46:54Z</time>
      </trkpt>
      <trkpt lat="45.82828" lon="6.36492">
        <ele>1600.25</ele>
        <time>2018-10-09T12:47:01Z</time>
      </trkpt>
      <trkpt lat="45.82839" lon="6.36466">
        <ele>1596.89</ele>
        <time>2018-10-09T12:47:08Z</time>
      </trkpt>
      <trkpt lat="45.82841" lon="6.36463">
        <ele>1596.41</ele>
        <time>2018-10-09T12:47:09Z</time>
      </trkpt>
      <trkpt lat="45.82853" lon="6.36446">
        <ele>1593.04</ele>
        <time>2018-10-09T12:47:15Z</time>
      </trkpt>
      <trkpt lat="45.82866" lon="6.36443">
        <ele>1591.12</ele>
        <time>2018-10-09T12:47:20Z</time>
      </trkpt>
      <trkpt lat="45.82879" lon="6.36457">
        <ele>1588.24</ele>
        <time>2018-10-09T12:47:25Z</time>
      </trkpt>
      <trkpt lat="45.82894" lon="6.36471">
        <ele>1584.39</ele>
        <time>2018-10-09T12:47:31Z</time>
      </trkpt>
      <trkpt lat="45.82904" lon="6.36471">
        <ele>1582.95</ele>
        <time>2018-10-09T12:47:34Z</time>
      </trkpt>
      <trkpt lat="45.82924" lon="6.36457">
        <ele>1579.58</ele>
        <time>2018-10-09T12:47:41Z</time>
      </trkpt>
      <trkpt lat="45.82942" lon="6.36441">
        <ele>1576.22</ele>
        <time>2018-10-09T12:47:48Z</time>
      </trkpt>
      <trkpt lat="45.82957" lon="6.36429">
        <ele>1572.37</ele>
        <time>2018-10-09T12:47:54Z</time>
      </trkpt>
      <trkpt lat="45.8297" lon="6.36421">
        <ele>1569.01</ele>
        <time>2018-10-09T12:47:58Z</time>
      </trkpt>
      <trkpt lat="45.82976" lon="6.36416">
        <ele>1568.53</ele>
        <time>2018-10-09T12:48:00Z</time>
      </trkpt>
      <trkpt lat="45.82988" lon="6.36405">
        <ele>1566.12</ele>
        <time>2018-10-09T12:48:04Z</time>
      </trkpt>
      <trkpt lat="45.83006" lon="6.36389">
        <ele>1563.24</ele>
        <time>2018-10-09T12:48:11Z</time>
      </trkpt>
      <trkpt lat="45.83018" lon="6.36374">
        <ele>1560.36</ele>
        <time>2018-10-09T12:48:16Z</time>
      </trkpt>
      <trkpt lat="45.8304" lon="6.36363">
        <ele>1557.47</ele>
        <time>2018-10-09T12:48:23Z</time>
      </trkpt>
      <trkpt lat="45.83057" lon="6.36361">
        <ele>1556.03</ele>
        <time>2018-10-09T12:48:28Z</time>
      </trkpt>
      <trkpt lat="45.83078" lon="6.36354">
        <ele>1554.59</ele>
        <time>2018-10-09T12:48:35Z</time>
      </trkpt>
      <trkpt lat="45.83097" lon="6.36339">
        <ele>1553.15</ele>
        <time>2018-10-09T12:48:42Z</time>
      </trkpt>
      <trkpt lat="45.83115" lon="6.36322">
        <ele>1551.22</ele>
        <time>2018-10-09T12:48:50Z</time>
      </trkpt>
      <trkpt lat="45.83131" lon="6.36311">
        <ele>1548.34</ele>
        <time>2018-10-09T12:48:57Z</time>
      </trkpt>
      <trkpt lat="45.83148" lon="6.36302">
        <ele>1544.98</ele>
        <time>2018-10-09T12:49:04Z</time>
      </trkpt>
      <trkpt lat="45.83167" lon="6.3629">
        <ele>1541.61</ele>
        <time>2018-10-09T12:49:12Z</time>
      </trkpt>
      <trkpt lat="45.83182" lon="6.36283">
        <ele>1537.77</ele>
        <time>2018-10-09T12:49:18Z</time>
      </trkpt>
      <trkpt lat="45.83196" lon="6.36281">
        <ele>1534.88</ele>
        <time>2018-10-09T12:49:23Z</time>
      </trkpt>
      <trkpt lat="45.83211" lon="6.36275">
        <ele>1532</ele>
        <time>2018-10-09T12:49:29Z</time>
      </trkpt>
      <trkpt lat="45.83223" lon="6.36264">
        <ele>1528.63</ele>
        <time>2018-10-09T12:49:34Z</time>
      </trkpt>
      <trkpt lat="45.83233" lon="6.36254">
        <ele>1524.31</ele>
        <time>2018-10-09T12:49:39Z</time>
      </trkpt>
      <trkpt lat="45.8325" lon="6.36247">
        <ele>1521.42</ele>
        <time>2018-10-09T12:49:45Z</time>
      </trkpt>
      <trkpt lat="45.8327" lon="6.36254">
        <ele>1519.02</ele>
        <time>2018-10-09T12:49:51Z</time>
      </trkpt>
      <trkpt lat="45.83292" lon="6.36259">
        <ele>1515.66</ele>
        <time>2018-10-09T12:49:59Z</time>
      </trkpt>
      <trkpt lat="45.83314" lon="6.36264">
        <ele>1512.77</ele>
        <time>2018-10-09T12:50:07Z</time>
      </trkpt>
      <trkpt lat="45.83321" lon="6.36268">
        <ele>1512.29</ele>
        <time>2018-10-09T12:50:10Z</time>
      </trkpt>
      <trkpt lat="45.83323" lon="6.36268">
        <ele>1511.81</ele>
        <time>2018-10-09T12:50:11Z</time>
      </trkpt>
      <trkpt lat="45.83325" lon="6.36266">
        <ele>1511.81</ele>
        <time>2018-10-09T12:50:12Z</time>
      </trkpt>
      <trkpt lat="45.83326" lon="6.36264">
        <ele>1511.33</ele>
        <time>2018-10-09T12:50:13Z</time>
      </trkpt>
      <trkpt lat="45.83325" lon="6.36261">
        <ele>1510.85</ele>
        <time>2018-10-09T12:50:14Z</time>
      </trkpt>
      <trkpt lat="45.83324" lon="6.36259">
        <ele>1510.37</ele>
        <time>2018-10-09T12:50:15Z</time>
      </trkpt>
      <trkpt lat="45.83322" lon="6.36258">
        <ele>1510.37</ele>
        <time>2018-10-09T12:50:16Z</time>
      </trkpt>
      <trkpt lat="45.8332" lon="6.36256">
        <ele>1509.89</ele>
        <time>2018-10-09T12:50:17Z</time>
      </trkpt>
      <trkpt lat="45.83318" lon="6.36254">
        <ele>1509.41</ele>
        <time>2018-10-09T12:50:18Z</time>
      </trkpt>
      <trkpt lat="45.83315" lon="6.36253">
        <ele>1509.41</ele>
        <time>2018-10-09T12:50:19Z</time>
      </trkpt>
      <trkpt lat="45.83313" lon="6.36251">
        <ele>1508.45</ele>
        <time>2018-10-09T12:50:20Z</time>
      </trkpt>
      <trkpt lat="45.83294" lon="6.36235">
        <ele>1506.04</ele>
        <time>2018-10-09T12:50:28Z</time>
      </trkpt>
      <trkpt lat="45.83276" lon="6.36215">
        <ele>1502.68</ele>
        <time>2018-10-09T12:50:36Z</time>
      </trkpt>
      <trkpt lat="45.83261" lon="6.36195">
        <ele>1499.79</ele>
        <time>2018-10-09T12:50:43Z</time>
      </trkpt>
      <trkpt lat="45.83255" lon="6.3617">
        <ele>1496.91</ele>
        <time>2018-10-09T12:50:50Z</time>
      </trkpt>
      <trkpt lat="45.83248" lon="6.36155">
        <ele>1493.55</ele>
        <time>2018-10-09T12:50:55Z</time>
      </trkpt>
      <trkpt lat="45.83233" lon="6.36135">
        <ele>1490.66</ele>
        <time>2018-10-09T12:51:03Z</time>
      </trkpt>
      <trkpt lat="45.83214" lon="6.36136">
        <ele>1487.78</ele>
        <time>2018-10-09T12:51:10Z</time>
      </trkpt>
      <trkpt lat="45.83199" lon="6.36141">
        <ele>1485.37</ele>
        <time>2018-10-09T12:51:16Z</time>
      </trkpt>
      <trkpt lat="45.83198" lon="6.36138">
        <ele>1484.89</ele>
        <time>2018-10-09T12:51:17Z</time>
      </trkpt>
      <trkpt lat="45.83197" lon="6.36134">
        <ele>1484.41</ele>
        <time>2018-10-09T12:51:18Z</time>
      </trkpt>
      <trkpt lat="45.83198" lon="6.3613">
        <ele>1483.93</ele>
        <time>2018-10-09T12:51:19Z</time>
      </trkpt>
      <trkpt lat="45.83199" lon="6.36126">
        <ele>1482.97</ele>
        <time>2018-10-09T12:51:20Z</time>
      </trkpt>
      <trkpt lat="45.83201" lon="6.36123">
        <ele>1482.49</ele>
        <time>2018-10-09T12:51:21Z</time>
      </trkpt>
      <trkpt lat="45.83202" lon="6.3612">
        <ele>1481.53</ele>
        <time>2018-10-09T12:51:22Z</time>
      </trkpt>
      <trkpt lat="45.83204" lon="6.36117">
        <ele>1481.05</ele>
        <time>2018-10-09T12:51:23Z</time>
      </trkpt>
      <trkpt lat="45.83205" lon="6.36114">
        <ele>1480.09</ele>
        <time>2018-10-09T12:51:24Z</time>
      </trkpt>
      <trkpt lat="45.83213" lon="6.36094">
        <ele>1477.2</ele>
        <time>2018-10-09T12:51:30Z</time>
      </trkpt>
      <trkpt lat="45.83215" lon="6.3607">
        <ele>1473.84</ele>
        <time>2018-10-09T12:51:36Z</time>
      </trkpt>
      <trkpt lat="45.83214" lon="6.36063">
        <ele>1472.88</ele>
        <time>2018-10-09T12:51:38Z</time>
      </trkpt>
      <trkpt lat="45.83212" lon="6.36037">
        <ele>1469.99</ele>
        <time>2018-10-09T12:51:45Z</time>
      </trkpt>
      <trkpt lat="45.8322" lon="6.3602">
        <ele>1467.59</ele>
        <time>2018-10-09T12:51:51Z</time>
      </trkpt>
      <trkpt lat="45.83222" lon="6.36018">
        <ele>1467.59</ele>
        <time>2018-10-09T12:51:52Z</time>
      </trkpt>
      <trkpt lat="45.83232" lon="6.36009">
        <ele>1463.74</ele>
        <time>2018-10-09T12:51:56Z</time>
      </trkpt>
      <trkpt lat="45.83248" lon="6.35999">
        <ele>1460.38</ele>
        <time>2018-10-09T12:52:03Z</time>
      </trkpt>
      <trkpt lat="45.83268" lon="6.36011">
        <ele>1458.46</ele>
        <time>2018-10-09T12:52:10Z</time>
      </trkpt>
      <trkpt lat="45.83281" lon="6.36027">
        <ele>1457.02</ele>
        <time>2018-10-09T12:52:16Z</time>
      </trkpt>
      <trkpt lat="45.83283" lon="6.36026">
        <ele>1456.53</ele>
        <time>2018-10-09T12:52:17Z</time>
      </trkpt>
      <trkpt lat="45.83284" lon="6.36024">
        <ele>1456.05</ele>
        <time>2018-10-09T12:52:18Z</time>
      </trkpt>
      <trkpt lat="45.83285" lon="6.36021">
        <ele>1455.57</ele>
        <time>2018-10-09T12:52:19Z</time>
      </trkpt>
      <trkpt lat="45.83284" lon="6.36018">
        <ele>1455.09</ele>
        <time>2018-10-09T12:52:20Z</time>
      </trkpt>
      <trkpt lat="45.83284" lon="6.36015">
        <ele>1454.61</ele>
        <time>2018-10-09T12:52:21Z</time>
      </trkpt>
      <trkpt lat="45.83274" lon="6.35989">
        <ele>1452.69</ele>
        <time>2018-10-09T12:52:28Z</time>
      </trkpt>
      <trkpt lat="45.83264" lon="6.35963">
        <ele>1449.81</ele>
        <time>2018-10-09T12:52:35Z</time>
      </trkpt>
      <trkpt lat="45.83255" lon="6.35937">
        <ele>1446.92</ele>
        <time>2018-10-09T12:52:43Z</time>
      </trkpt>
      <trkpt lat="45.83251" lon="6.35932">
        <ele>1445.96</ele>
        <time>2018-10-09T12:52:45Z</time>
      </trkpt>
      <trkpt lat="45.83238" lon="6.35916">
        <ele>1443.56</ele>
        <time>2018-10-09T12:52:52Z</time>
      </trkpt>
      <trkpt lat="45.83237" lon="6.35912">
        <ele>1443.08</ele>
        <time>2018-10-09T12:52:53Z</time>
      </trkpt>
      <trkpt lat="45.83237" lon="6.35908">
        <ele>1443.08</ele>
        <time>2018-10-09T12:52:54Z</time>
      </trkpt>
      <trkpt lat="45.83238" lon="6.35905">
        <ele>1442.6</ele>
        <time>2018-10-09T12:52:55Z</time>
      </trkpt>
      <trkpt lat="45.8324" lon="6.35903">
        <ele>1442.11</ele>
        <time>2018-10-09T12:52:56Z</time>
      </trkpt>
      <trkpt lat="45.83242" lon="6.35902">
        <ele>1441.63</ele>
        <time>2018-10-09T12:52:57Z</time>
      </trkpt>
      <trkpt lat="45.83244" lon="6.35902">
        <ele>1441.15</ele>
        <time>2018-10-09T12:52:58Z</time>
      </trkpt>
      <trkpt lat="45.83247" lon="6.35902">
        <ele>1440.67</ele>
        <time>2018-10-09T12:52:59Z</time>
      </trkpt>
      <trkpt lat="45.83249" lon="6.35902">
        <ele>1440.19</ele>
        <time>2018-10-09T12:53:00Z</time>
      </trkpt>
      <trkpt lat="45.83252" lon="6.35903">
        <ele>1439.71</ele>
        <time>2018-10-09T12:53:01Z</time>
      </trkpt>
      <trkpt lat="45.83267" lon="6.35904">
        <ele>1436.83</ele>
        <time>2018-10-09T12:53:07Z</time>
      </trkpt>
      <trkpt lat="45.83286" lon="6.3591">
        <ele>1432.98</ele>
        <time>2018-10-09T12:53:15Z</time>
      </trkpt>
      <trkpt lat="45.83304" lon="6.35925">
        <ele>1430.1</ele>
        <time>2018-10-09T12:53:23Z</time>
      </trkpt>
      <trkpt lat="45.83315" lon="6.35951">
        <ele>1426.73</ele>
        <time>2018-10-09T12:53:32Z</time>
      </trkpt>
      <trkpt lat="45.83334" lon="6.35972">
        <ele>1423.37</ele>
        <time>2018-10-09T12:53:40Z</time>
      </trkpt>
      <trkpt lat="45.83345" lon="6.35993">
        <ele>1420.49</ele>
        <time>2018-10-09T12:53:48Z</time>
      </trkpt>
      <trkpt lat="45.83347" lon="6.35998">
        <ele>1419.04</ele>
        <time>2018-10-09T12:53:51Z</time>
      </trkpt>
      <trkpt lat="45.83348" lon="6.35998">
        <ele>1418.56</ele>
        <time>2018-10-09T12:53:52Z</time>
      </trkpt>
      <trkpt lat="45.8335" lon="6.35998">
        <ele>1418.08</ele>
        <time>2018-10-09T12:53:53Z</time>
      </trkpt>
      <trkpt lat="45.83352" lon="6.35998">
        <ele>1417.6</ele>
        <time>2018-10-09T12:53:54Z</time>
      </trkpt>
      <trkpt lat="45.83355" lon="6.35998">
        <ele>1417.6</ele>
        <time>2018-10-09T12:53:55Z</time>
      </trkpt>
      <trkpt lat="45.83358" lon="6.35998">
        <ele>1416.64</ele>
        <time>2018-10-09T12:53:56Z</time>
      </trkpt>
      <trkpt lat="45.83361" lon="6.35998">
        <ele>1416.64</ele>
        <time>2018-10-09T12:53:57Z</time>
      </trkpt>
      <trkpt lat="45.83364" lon="6.35997">
        <ele>1416.16</ele>
        <time>2018-10-09T12:53:58Z</time>
      </trkpt>
      <trkpt lat="45.83387" lon="6.35991">
        <ele>1412.79</ele>
        <time>2018-10-09T12:54:05Z</time>
      </trkpt>
      <trkpt lat="45.83408" lon="6.35977">
        <ele>1409.91</ele>
        <time>2018-10-09T12:54:13Z</time>
      </trkpt>
      <trkpt lat="45.8342" lon="6.35971">
        <ele>1407.03</ele>
        <time>2018-10-09T12:54:18Z</time>
      </trkpt>
      <trkpt lat="45.83422" lon="6.35968">
        <ele>1406.07</ele>
        <time>2018-10-09T12:54:19Z</time>
      </trkpt>
      <trkpt lat="45.83423" lon="6.35964">
        <ele>1405.58</ele>
        <time>2018-10-09T12:54:20Z</time>
      </trkpt>
      <trkpt lat="45.83429" lon="6.35951">
        <ele>1404.14</ele>
        <time>2018-10-09T12:54:24Z</time>
      </trkpt>
      <trkpt lat="45.83438" lon="6.35939">
        <ele>1402.22</ele>
        <time>2018-10-09T12:54:28Z</time>
      </trkpt>
      <trkpt lat="45.83454" lon="6.35918">
        <ele>1398.86</ele>
        <time>2018-10-09T12:54:35Z</time>
      </trkpt>
      <trkpt lat="45.83463" lon="6.35909">
        <ele>1397.41</ele>
        <time>2018-10-09T12:54:39Z</time>
      </trkpt>
      <trkpt lat="45.83479" lon="6.35889">
        <ele>1394.05</ele>
        <time>2018-10-09T12:54:46Z</time>
      </trkpt>
      <trkpt lat="45.83496" lon="6.35868">
        <ele>1391.17</ele>
        <time>2018-10-09T12:54:53Z</time>
      </trkpt>
      <trkpt lat="45.83515" lon="6.35851">
        <ele>1388.76</ele>
        <time>2018-10-09T12:55:01Z</time>
      </trkpt>
      <trkpt lat="45.83527" lon="6.3583">
        <ele>1384.92</ele>
        <time>2018-10-09T12:55:08Z</time>
      </trkpt>
      <trkpt lat="45.83537" lon="6.35813">
        <ele>1382.03</ele>
        <time>2018-10-09T12:55:14Z</time>
      </trkpt>
      <trkpt lat="45.83547" lon="6.35802">
        <ele>1380.11</ele>
        <time>2018-10-09T12:55:19Z</time>
      </trkpt>
      <trkpt lat="45.8355" lon="6.35801">
        <ele>1379.63</ele>
        <time>2018-10-09T12:55:20Z</time>
      </trkpt>
      <trkpt lat="45.83552" lon="6.35801">
        <ele>1379.15</ele>
        <time>2018-10-09T12:55:21Z</time>
      </trkpt>
      <trkpt lat="45.8357" lon="6.35805">
        <ele>1375.78</ele>
        <time>2018-10-09T12:55:29Z</time>
      </trkpt>
      <trkpt lat="45.83586" lon="6.35817">
        <ele>1372.42</ele>
        <time>2018-10-09T12:55:36Z</time>
      </trkpt>
      <trkpt lat="45.83593" lon="6.35822">
        <ele>1371.46</ele>
        <time>2018-10-09T12:55:39Z</time>
      </trkpt>
      <trkpt lat="45.83604" lon="6.35847">
        <ele>1368.09</ele>
        <time>2018-10-09T12:55:47Z</time>
      </trkpt>
      <trkpt lat="45.83617" lon="6.35878">
        <ele>1365.21</ele>
        <time>2018-10-09T12:55:55Z</time>
      </trkpt>
      <trkpt lat="45.8363" lon="6.35898">
        <ele>1361.84</ele>
        <time>2018-10-09T12:56:03Z</time>
      </trkpt>
      <trkpt lat="45.83635" lon="6.35906">
        <ele>1360.88</ele>
        <time>2018-10-09T12:56:06Z</time>
      </trkpt>
      <trkpt lat="45.83643" lon="6.35913">
        <ele>1359.44</ele>
        <time>2018-10-09T12:56:09Z</time>
      </trkpt>
      <trkpt lat="45.83662" lon="6.35923">
        <ele>1356.56</ele>
        <time>2018-10-09T12:56:16Z</time>
      </trkpt>
      <trkpt lat="45.83685" lon="6.35939">
        <ele>1354.15</ele>
        <time>2018-10-09T12:56:23Z</time>
      </trkpt>
      <trkpt lat="45.83707" lon="6.35953">
        <ele>1351.75</ele>
        <time>2018-10-09T12:56:30Z</time>
      </trkpt>
      <trkpt lat="45.83729" lon="6.35961">
        <ele>1348.39</ele>
        <time>2018-10-09T12:56:37Z</time>
      </trkpt>
      <trkpt lat="45.83751" lon="6.35949">
        <ele>1345.5</ele>
        <time>2018-10-09T12:56:45Z</time>
      </trkpt>
      <trkpt lat="45.83762" lon="6.35943">
        <ele>1343.58</ele>
        <time>2018-10-09T12:56:49Z</time>
      </trkpt>
      <trkpt lat="45.83784" lon="6.35939">
        <ele>1340.22</ele>
        <time>2018-10-09T12:56:57Z</time>
      </trkpt>
      <trkpt lat="45.83806" lon="6.35944">
        <ele>1337.81</ele>
        <time>2018-10-09T12:57:04Z</time>
      </trkpt>
      <trkpt lat="45.83826" lon="6.35944">
        <ele>1335.41</ele>
        <time>2018-10-09T12:57:11Z</time>
      </trkpt>
      <trkpt lat="45.83836" lon="6.35946">
        <ele>1333.49</ele>
        <time>2018-10-09T12:57:15Z</time>
      </trkpt>
      <trkpt lat="45.83856" lon="6.35949">
        <ele>1330.12</ele>
        <time>2018-10-09T12:57:23Z</time>
      </trkpt>
      <trkpt lat="45.83868" lon="6.35947">
        <ele>1327.24</ele>
        <time>2018-10-09T12:57:28Z</time>
      </trkpt>
      <trkpt lat="45.8387" lon="6.35945">
        <ele>1327.24</ele>
        <time>2018-10-09T12:57:29Z</time>
      </trkpt>
      <trkpt lat="45.83889" lon="6.35931">
        <ele>1323.87</ele>
        <time>2018-10-09T12:57:37Z</time>
      </trkpt>
      <trkpt lat="45.83896" lon="6.35906">
        <ele>1320.99</ele>
        <time>2018-10-09T12:57:44Z</time>
      </trkpt>
      <trkpt lat="45.83896" lon="6.35898">
        <ele>1319.55</ele>
        <time>2018-10-09T12:57:46Z</time>
      </trkpt>
      <trkpt lat="45.83897" lon="6.35895">
        <ele>1319.07</ele>
        <time>2018-10-09T12:57:47Z</time>
      </trkpt>
      <trkpt lat="45.83898" lon="6.35892">
        <ele>1318.59</ele>
        <time>2018-10-09T12:57:48Z</time>
      </trkpt>
      <trkpt lat="45.8391" lon="6.35872">
        <ele>1315.22</ele>
        <time>2018-10-09T12:57:55Z</time>
      </trkpt>
      <trkpt lat="45.83912" lon="6.35869">
        <ele>1315.22</ele>
        <time>2018-10-09T12:57:56Z</time>
      </trkpt>
      <trkpt lat="45.83925" lon="6.35847">
        <ele>1311.86</ele>
        <time>2018-10-09T12:58:03Z</time>
      </trkpt>
      <trkpt lat="45.83949" lon="6.35849">
        <ele>1309.45</ele>
        <time>2018-10-09T12:58:10Z</time>
      </trkpt>
      <trkpt lat="45.83963" lon="6.35849">
        <ele>1308.49</ele>
        <time>2018-10-09T12:58:15Z</time>
      </trkpt>
      <trkpt lat="45.83965" lon="6.35846">
        <ele>1308.49</ele>
        <time>2018-10-09T12:58:16Z</time>
      </trkpt>
      <trkpt lat="45.83967" lon="6.35843">
        <ele>1308.01</ele>
        <time>2018-10-09T12:58:17Z</time>
      </trkpt>
      <trkpt lat="45.83969" lon="6.3584">
        <ele>1308.01</ele>
        <time>2018-10-09T12:58:18Z</time>
      </trkpt>
      <trkpt lat="45.8397" lon="6.35837">
        <ele>1307.53</ele>
        <time>2018-10-09T12:58:19Z</time>
      </trkpt>
      <trkpt lat="45.83972" lon="6.35834">
        <ele>1307.05</ele>
        <time>2018-10-09T12:58:20Z</time>
      </trkpt>
      <trkpt lat="45.83973" lon="6.35831">
        <ele>1306.57</ele>
        <time>2018-10-09T12:58:21Z</time>
      </trkpt>
      <trkpt lat="45.83974" lon="6.35829">
        <ele>1306.57</ele>
        <time>2018-10-09T12:58:22Z</time>
      </trkpt>
    </trkseg>
  </trk>
</gpx>